GFSMA_sfc_thetae_000.txt.gz
Theta_e
317 317 316 315 314 313 314 313 316 315 312 313 313 310 308 306 307 308 308 320 326 327 327 325 324 325 326 330 332 333 332 333 333 335 336 335 334 334 334 333 335 334 334
317 316 314 315 314 314 314 312 311 311 311 312 312 311 309 306 305 306 308 309 322 325 326 325 324 324 324 326 329 331 330 331 331 333 334 334 333 333 333 333 334 334 334
316 315 312 311 313 314 313 313 312 312 311 312 311 312 312 310 306 306 307 308 311 321 322 324 326 326 324 324 327 329 330 330 331 331 333 333 332 332 332 332 333 333 333
313 311 310 309 311 311 310 310 310 310 308 308 308 309 310 310 309 308 307 307 308 310 316 320 323 324 325 323 323 324 327 328 328 328 330 331 331 331 332 332 332 331 332
313 309 308 308 310 308 307 307 306 307 305 304 305 304 306 307 308 311 308 307 306 309 308 313 319 320 322 324 323 323 324 324 324 325 327 329 329 330 331 331 331 330 331
308 307 307 307 307 305 304 303 302 303 303 302 305 303 303 305 306 306 307 309 309 308 308 306 306 313 318 322 324 322 322 323 323 323 324 325 326 327 329 330 329 330 330
308 306 305 306 305 303 302 301 301 301 301 301 299 301 300 301 302 302 304 304 305 304 304 305 307 306 309 319 323 321 321 321 322 322 321 323 324 325 326 327 329 328 330
306 305 303 302 302 301 300 299 300 299 299 300 297 297 294 298 297 300 301 301 300 302 303 304 305 306 305 306 312 320 320 320 320 320 322 321 321 322 322 322 323 326 327
303 302 301 301 300 300 298 298 299 298 297 298 298 296 292 290 293 297 297 295 296 296 298 302 303 303 306 303 305 310 315 316 320 321 321 320 317 316 319 320 320 321 323
301 301 300 300 299 299 297 298 300 297 297 295 296 299 295 294 292 290 292 295 295 295 295 297 297 300 307 307 307 306 306 308 313 318 319 315 314 313 315 317 319 320 319
299 299 299 298 298 298 297 296 297 296 296 295 294 294 293 292 295 290 287 289 292 293 294 294 294 298 301 307 306 306 305 304 306 310 310 310 311 312 313 314 317 319 318
297 297 298 296 295 295 294 294 293 293 292 292 292 292 292 290 289 288 289 288 288 290 291 292 293 295 297 301 307 306 304 303 304 305 307 309 311 311 312 313 314 316 318
296 296 295 295 294 294 293 293 292 291 292 291 291 292 292 291 291 290 289 289 287 289 288 290 292 292 297 297 301 305 305 302 303 304 304 305 306 307 308 310 313 315 315
295 295 294 294 293 293 292 291 290 290 290 289 288 288 289 289 289 288 290 288 285 287 287 286 289 291 292 295 298 303 303 302 302 302 301 302 303 304 302 302 304 307 310
296 293 293 292 292 291 291 291 289 288 288 287 287 287 287 288 288 290 292 289 285 282 284 285 286 290 291 292 295 296 298 302 301 300 299 301 302 303 300 300 300 302 304
294 293 291 290 291 290 290 290 288 288 287 287 288 287 286 287 288 289 289 290 288 285 282 286 287 289 291 292 294 294 296 299 300 299 298 299 299 301 300 299 299 300 300
294 294 292 290 289 288 287 286 287 287 287 285 285 284 283 283 283 283 284 286 287 288 284 285 287 286 286 286 288 290 294 294 297 298 297 298 297 298 298 298 297 297 298
291 291 291 290 287 286 286 285 285 285 283 282 282 281 281 283 281 281 281 282 283 284 285 282 283 284 284 285 286 287 290 293 296 296 297 297 297 296 296 296 295 296 295
290 290 289 287 286 286 285 284 283 282 281 281 280 280 280 280 279 280 280 281 282 284 283 281 281 282 283 284 284 286 286 287 290 296 294 296 296 296 296 295 295 295 295
292 288 287 287 287 285 285 283 282 280 280 280 281 280 279 279 278 279 280 281 282 280 280 279 279 279 279 281 283 282 281 282 284 289 291 290 291 294 295 295 295 295 295
292 287 286 285 284 284 283 280 280 280 279 279 279 279 279 280 282 283 282 282 280 278 278 277 277 277 277 277 278 280 279 280 281 284 285 285 284 286 288 291 293 295 295
286 285 284 284 283 284 284 284 281 278 279 278 277 278 278 280 280 282 283 283 283 280 280 278 276 275 275 276 277 277 276 277 277 281 281 282 283 283 285 288 292 292 292
285 283 283 282 281 281 284 284 284 279 278 277 278 277 278 280 280 280 281 282 281 283 283 281 278 277 276 277 277 276 276 276 276 280 281 279 282 281 283 286 291 291 291
284 282 281 281 281 282 285 285 283 279 279 278 278 278 277 277 278 279 279 280 280 280 280 280 278 278 278 279 279 279 278 278 279 280 281 275 279 278 281 282 288 292 291
280 281 281 281 280 280 284 284 281 277 277 277 278 278 278 277 279 282 279 277 277 278 281 282 283 283 284 284 283 281 279 279 277 277 279 278 276 274 274 276 280 288 290
282 281 280 279 281 278 282 281 280 274 271 275 276 277 278 278 279 281 279 277 275 276 276 277 277 279 280 279 281 281 279 278 277 274 278 277 277 276 273 274 276 277 277

GFSMA_sfc_thetae_003.txt.gz
Theta_e
315 315 314 313 313 313 312 311 312 312 310 310 312 311 310 308 307 306 308 317 322 327 327 327 327 326 327 329 330 331 330 331 332 332 334 334 333 333 334 333 332 334 334
315 315 313 312 312 312 312 312 311 310 310 310 310 311 311 309 307 306 306 307 317 322 327 327 327 327 327 328 329 330 330 330 329 330 331 333 332 332 332 333 332 332 333
314 312 310 308 309 310 309 308 308 308 307 307 306 308 309 309 309 308 306 306 308 315 321 325 328 329 330 328 328 328 329 330 329 328 329 331 331 331 331 331 332 332 332
311 309 306 306 307 308 307 305 305 303 303 303 303 303 304 306 307 310 307 306 306 308 311 316 320 323 327 328 327 327 326 328 329 327 328 329 330 330 330 330 329 331 331
308 305 305 305 306 305 303 303 302 302 301 301 301 301 300 302 303 308 306 306 305 305 305 309 312 314 318 320 323 324 324 325 327 325 326 327 328 328 329 329 329 329 330
307 305 304 304 304 302 300 300 299 300 300 300 302 300 298 299 300 302 302 304 302 302 302 303 304 305 311 314 317 321 323 323 323 324 325 325 326 326 325 327 328 328 329
304 302 301 301 301 299 298 299 299 298 297 298 296 298 296 296 298 300 301 301 301 301 301 302 302 301 302 308 311 315 321 323 323 323 325 325 324 324 323 323 324 326 328
301 301 300 299 299 298 297 297 297 296 297 297 295 294 291 294 296 298 297 298 296 299 299 300 299 297 296 303 305 311 314 318 322 322 324 324 323 321 321 320 320 321 324
300 299 299 298 298 297 296 296 296 295 294 296 296 294 290 288 290 294 295 294 293 294 295 297 298 296 296 302 305 305 308 309 313 319 321 322 321 317 317 317 318 319 320
298 298 298 297 296 295 294 296 296 294 294 292 294 296 293 291 287 286 290 293 293 293 293 293 294 295 296 298 304 307 306 306 308 313 317 319 318 315 313 314 315 317 319
297 297 296 296 295 294 293 292 292 291 291 290 290 290 290 290 290 288 285 287 290 291 293 292 293 293 295 297 300 304 305 304 306 308 310 311 311 310 311 312 313 314 318
296 296 297 295 294 293 292 291 290 290 289 289 289 291 290 290 288 288 287 286 286 289 290 292 291 292 293 294 299 301 305 304 304 305 306 307 308 309 309 311 312 314 315
296 295 294 292 292 292 291 290 289 288 288 287 286 287 288 287 288 287 286 285 286 287 290 289 291 291 293 293 294 299 302 303 303 304 305 306 305 305 306 307 308 311 314
293 293 292 292 292 291 290 290 288 287 287 285 285 285 285 286 286 286 285 285 281 282 284 287 291 291 290 291 294 298 298 300 301 302 303 305 303 303 304 302 302 304 308
294 293 292 293 293 292 290 289 288 286 286 285 284 284 284 285 284 284 285 286 284 278 279 283 284 288 291 292 292 293 294 300 299 300 300 302 303 303 303 303 300 300 302
295 294 294 293 291 291 290 288 287 286 286 285 286 284 282 283 282 283 281 283 283 283 280 284 284 287 290 289 291 289 291 298 297 297 298 298 300 301 302 302 302 300 300
292 292 292 291 290 289 287 286 285 286 286 284 282 281 281 281 280 280 280 280 280 281 279 282 286 289 287 286 287 289 290 289 293 297 296 297 297 298 299 300 300 299 298
289 289 289 291 288 286 285 285 285 284 282 281 280 280 280 281 278 278 278 278 279 280 280 278 283 283 284 286 286 287 288 289 288 294 295 296 295 297 297 296 296 296 297
291 291 290 286 285 286 286 285 283 281 280 280 280 279 279 279 277 277 278 278 279 281 280 279 280 281 283 283 283 286 285 285 287 292 293 293 294 295 296 296 295 296 296
289 288 288 286 286 285 284 283 281 280 280 280 280 280 279 278 277 277 278 280 282 281 279 278 279 279 279 280 281 281 280 282 282 287 289 289 291 292 294 295 295 295 295
289 288 286 284 284 284 283 280 280 280 279 279 279 279 279 280 282 281 279 278 279 280 279 279 278 278 277 276 277 278 278 278 280 282 282 284 285 286 288 290 293 295 295
288 283 282 282 282 283 285 285 283 279 279 278 277 278 278 280 280 281 281 282 281 279 278 278 278 278 278 277 277 276 276 276 275 281 280 280 283 282 283 286 292 292 293
282 282 281 281 281 280 285 285 286 281 280 278 279 278 278 279 278 278 279 280 280 281 282 280 278 277 277 277 277 276 275 275 276 278 280 278 280 281 282 285 289 291 291
286 280 280 281 280 282 285 284 282 278 278 277 277 276 276 276 278 278 279 279 279 278 280 280 279 278 278 279 278 278 277 277 277 279 280 274 277 277 282 284 287 290 291
280 280 281 280 279 278 282 281 279 275 276 275 276 276 277 277 278 281 279 278 278 278 280 281 281 281 282 283 283 280 277 278 276 278 278 277 275 274 273 276 282 289 289
281 280 280 278 279 276 280 280 278 274 270 274 275 276 277 277 279 279 277 276 275 276 276 277 277 278 279 279 281 280 278 277 277 274 277 277 277 275 272 273 274 276 276

GFSMA_sfc_thetae_006.txt.gz
Theta_e
314 314 312 312 312 312 311 311 310 310 310 311 310 310 310 310 309 308 307 314 318 319 323 325 326 327 331 332 331 330 331 329 329 330 332 333 332 331 332 332 332 333 332
314 313 311 310 309 310 309 309 309 308 308 307 306 308 307 307 307 308 307 307 314 315 318 320 323 325 327 328 330 330 330 330 330 328 330 331 331 332 331 331 331 331 333
312 309 306 305 306 307 306 305 305 304 303 303 303 304 304 305 305 308 307 307 307 311 313 315 317 319 320 322 324 327 329 329 330 329 329 329 330 330 330 330 330 331 331
307 305 304 304 305 304 303 303 303 300 301 300 299 300 300 302 303 306 305 305 304 304 305 310 310 312 314 318 320 321 324 327 328 329 329 329 329 329 329 329 329 329 330
306 304 303 303 302 301 300 300 299 299 299 299 300 300 298 299 301 306 304 302 302 302 302 304 306 306 307 309 313 317 320 323 325 327 329 328 328 328 327 327 328 327 328
306 306 303 301 300 299 298 298 298 298 298 298 300 298 297 297 300 301 300 301 300 300 300 300 299 299 302 305 309 312 316 319 323 324 326 327 327 327 326 324 325 326 326
301 300 299 299 298 297 296 297 296 296 296 297 295 295 295 296 298 299 299 298 298 300 299 299 299 298 297 301 305 310 312 315 317 322 324 325 325 326 324 322 322 323 324
299 300 298 297 297 296 296 295 295 295 295 296 294 293 290 293 295 296 296 296 294 296 296 297 297 298 297 297 300 305 310 312 313 315 317 321 323 324 324 321 319 320 320
298 297 297 297 295 295 295 294 294 294 292 293 293 292 288 286 289 293 293 293 292 293 294 295 296 297 297 297 298 301 306 308 310 312 314 315 320 322 320 318 317 317 318
297 297 296 295 294 294 294 294 294 292 292 289 292 293 291 290 287 286 291 291 291 292 292 293 294 295 296 296 298 300 302 306 307 309 312 314 316 319 318 315 314 314 316
296 296 295 294 294 293 292 291 290 289 290 288 288 288 289 289 289 287 283 286 289 290 292 292 292 293 295 295 295 298 300 301 305 307 310 311 313 315 312 312 312 312 313
294 295 295 293 292 291 291 290 289 288 288 287 288 288 287 286 285 285 283 283 284 287 287 291 291 292 293 294 295 297 298 300 304 305 307 308 308 308 309 310 311 312 315
294 293 292 292 291 291 291 289 288 287 286 285 285 285 286 285 287 286 284 282 282 283 285 288 290 291 293 292 292 295 298 299 302 304 305 306 306 306 306 306 307 309 311
292 292 292 291 291 293 291 292 290 287 287 285 284 284 284 285 285 285 284 282 278 280 281 283 287 290 290 291 293 294 293 298 299 300 303 304 305 304 304 302 301 303 306
293 292 290 293 293 292 291 290 287 288 286 286 285 285 284 284 283 282 283 282 280 276 277 281 283 288 289 291 292 291 290 294 298 299 298 299 300 303 303 302 301 301 301
292 293 292 293 292 291 290 289 286 286 286 285 285 284 282 282 282 282 280 281 281 278 275 281 282 286 289 290 291 291 290 292 294 297 296 297 297 299 301 303 302 301 300
291 291 291 291 288 288 288 285 284 284 285 284 282 281 281 281 280 280 280 279 279 279 276 278 282 284 284 287 288 290 291 289 290 294 295 296 295 295 297 299 299 301 300
288 289 289 289 288 287 285 283 283 284 282 281 281 280 280 281 279 278 278 277 278 279 277 276 280 281 283 286 286 287 289 290 287 292 294 294 295 295 295 296 297 298 297
287 288 289 287 286 284 284 283 283 282 281 280 280 280 279 279 277 277 277 277 278 280 281 280 279 281 282 283 284 286 286 286 286 290 291 292 293 294 294 295 296 296 296
288 289 287 287 285 284 283 283 282 280 280 280 280 280 279 279 278 277 278 278 279 278 279 279 279 279 280 282 281 281 281 283 283 285 287 288 290 292 292 293 295 295 295
290 287 287 284 282 283 283 281 281 280 279 279 279 280 280 281 283 282 279 278 277 278 278 278 278 279 279 278 278 280 279 280 281 283 284 285 285 286 289 291 293 295 295
288 283 280 281 281 282 285 286 285 281 280 279 280 279 279 280 280 280 280 280 280 277 277 277 277 277 278 280 280 279 278 277 277 282 282 282 285 284 285 288 291 293 293
284 282 281 281 280 282 286 285 283 279 278 278 277 276 276 278 277 277 278 280 280 281 281 280 277 278 279 280 280 278 277 277 277 280 282 280 282 282 284 286 289 291 291
284 280 280 280 280 281 283 283 281 277 277 276 276 276 275 276 277 278 278 279 278 279 280 279 279 279 280 281 280 280 279 278 279 280 282 278 280 281 283 285 287 290 291
282 280 280 279 278 278 281 281 279 276 276 275 276 276 276 276 278 280 278 277 277 278 280 281 281 281 281 281 282 280 277 277 276 278 280 280 279 279 279 282 284 288 289
280 280 279 277 279 276 279 279 278 274 270 274 275 276 277 277 279 279 278 276 274 277 278 279 279 279 279 279 280 279 279 277 277 276 279 279 279 279 277 279 280 282 283

GFSMA_sfc_thetae_009.txt.gz
Theta_e
330 327 325 323 322 321 320 320 320 320 319 318 318 316 314 313 314 314 317 315 317 320 323 324 325 325 326 326 328 330 332 331 329 328 331 332 332 333 332 331 331 331 331
326 324 319 317 317 318 318 317 318 316 315 314 313 313 311 311 313 314 315 315 312 313 314 316 318 320 322 323 323 324 326 331 330 328 330 330 330 331 331 330 330 331 331
319 316 316 316 315 316 315 315 314 314 312 310 309 309 309 310 310 313 313 312 311 309 309 310 311 312 313 315 316 320 322 325 327 330 329 330 330 330 330 330 329 329 330
316 316 314 314 313 312 312 312 311 310 309 308 307 307 308 308 310 313 310 310 309 308 308 306 307 307 308 310 312 315 317 320 322 325 329 329 329 329 329 328 329 328 328
312 313 311 310 310 309 309 308 308 307 306 305 303 305 305 304 312 310 308 308 307 307 306 305 304 304 305 307 309 311 314 316 319 321 326 328 328 328 328 328 327 327 327
310 310 309 309 309 307 307 307 306 305 305 303 300 301 302 305 311 310 307 306 305 305 305 304 303 303 303 304 305 308 311 313 315 316 320 325 327 328 327 327 325 324 324
308 309 307 307 307 306 306 306 305 302 301 304 300 299 300 306 307 306 306 305 302 302 303 302 301 301 302 303 303 306 308 311 313 314 314 317 322 324 327 325 323 322 323
306 306 307 307 307 306 306 305 303 300 302 303 297 296 294 297 301 303 302 302 301 301 300 300 300 300 301 301 302 303 304 307 309 311 313 314 316 320 324 325 322 320 320
306 306 307 307 306 306 304 303 302 301 298 300 301 296 291 290 294 298 299 299 299 298 298 298 297 298 299 301 301 301 300 301 303 307 311 313 313 316 320 323 322 320 319
306 304 305 305 305 304 303 302 300 299 298 294 296 298 297 296 289 288 294 295 296 294 295 296 295 297 297 299 300 300 300 299 300 303 309 311 313 314 317 321 321 318 317
304 303 303 303 303 302 301 300 298 297 296 294 293 293 293 292 292 288 284 287 290 292 293 292 294 294 295 297 298 298 297 298 299 302 307 310 312 313 316 318 318 316 316
305 304 302 302 301 300 299 298 297 295 295 294 294 292 289 287 286 287 285 286 286 288 290 291 292 292 293 294 296 296 296 297 298 301 305 308 310 311 310 315 314 315 314
301 302 301 300 299 298 297 298 296 295 294 293 292 291 291 290 290 289 287 285 285 287 288 290 290 291 291 292 296 295 296 295 295 299 304 305 307 307 308 310 311 313 315
298 301 301 299 298 299 298 297 296 295 295 294 293 292 291 291 292 291 288 286 283 284 286 286 289 290 291 292 292 294 296 294 294 298 301 302 304 305 305 304 306 306 308
298 300 299 298 299 298 297 296 295 295 294 294 293 293 292 292 291 290 289 287 284 280 281 284 284 288 289 290 291 293 295 294 294 294 298 299 299 302 304 304 302 301 300
298 299 298 298 297 298 296 295 294 294 292 293 292 292 291 290 289 289 288 287 286 282 279 283 284 285 287 287 290 291 294 294 294 293 295 297 297 298 301 302 303 303 301
297 298 298 296 297 295 295 294 293 292 291 292 292 289 288 288 287 287 286 285 283 283 279 282 283 286 286 287 288 290 294 294 294 293 293 295 295 296 297 299 299 300 302
296 295 294 294 294 294 294 292 291 291 290 289 289 287 287 286 286 286 285 283 283 283 281 279 282 283 285 287 288 289 291 292 292 292 291 293 294 295 295 296 297 297 298
293 294 294 292 292 293 291 290 290 289 288 287 287 286 286 285 285 285 283 282 282 281 281 280 280 282 284 286 287 288 289 291 291 290 291 291 292 293 294 295 296 297 297
294 294 293 293 293 291 289 289 288 287 286 286 286 286 285 284 283 283 282 282 281 280 279 279 279 280 282 284 285 285 285 289 288 288 289 288 289 290 292 293 294 295 296
295 293 290 288 288 288 287 287 287 286 286 286 285 284 283 283 282 281 281 280 279 278 279 279 278 279 280 280 281 283 284 286 287 288 287 289 291 292 293 294 294 294 294
293 290 289 288 287 286 286 286 286 285 284 282 281 281 281 280 280 280 279 280 280 279 279 278 280 278 279 280 282 282 282 282 282 289 287 287 289 289 291 292 291 292 294
293 292 288 288 287 287 284 283 282 282 281 281 280 279 279 279 279 280 280 280 281 281 280 280 279 279 279 281 281 281 281 281 281 285 285 283 288 286 289 288 289 291 291
291 291 288 287 286 284 282 281 281 282 281 280 279 279 279 279 279 279 280 280 279 280 280 281 281 281 281 282 281 282 281 282 283 284 285 281 286 285 288 289 288 289 291
290 288 287 285 283 282 280 280 280 281 279 279 279 279 279 278 279 280 279 278 278 278 281 281 281 281 282 282 282 281 280 280 279 281 284 282 283 284 286 287 289 288 289
285 286 284 283 280 281 279 279 280 280 279 278 279 279 278 278 278 279 278 278 276 278 278 279 279 280 281 282 281 281 281 279 280 279 283 281 282 283 282 288 288 290 291

GFSMA_sfc_thetae_012.txt.gz
Theta_e
332 332 331 329 327 325 324 323 322 321 320 319 320 318 317 317 317 317 318 315 316 318 320 321 320 320 320 321 322 324 325 328 329 328 330 331 331 332 332 331 331 331 331
327 330 326 324 323 323 322 320 319 317 317 317 316 316 315 315 314 316 315 317 312 312 313 314 315 315 316 316 316 318 321 323 325 328 330 330 331 330 331 331 330 330 331
324 322 321 321 321 319 318 318 317 317 315 314 314 314 314 314 313 314 315 314 313 310 309 309 310 311 311 313 313 314 316 317 320 323 325 330 329 330 330 330 330 330 329
319 319 319 320 317 317 316 315 314 313 313 312 311 311 311 312 311 314 314 313 312 311 311 307 307 307 307 309 310 311 313 314 316 318 321 326 329 328 330 330 329 328 329
317 319 317 316 316 315 314 313 312 311 309 309 307 307 309 309 309 310 312 311 312 311 310 310 308 307 305 306 308 309 310 312 313 315 316 318 322 327 328 328 328 327 326
315 317 315 314 313 312 311 310 310 310 308 308 306 306 308 307 308 310 310 309 309 308 307 307 306 305 306 304 305 306 309 309 311 313 314 315 316 319 324 327 328 326 324
313 313 312 312 312 310 310 310 308 307 306 307 304 303 303 305 307 307 307 306 306 306 305 304 303 303 302 303 304 305 307 308 308 308 310 312 313 315 317 322 326 325 323
311 310 311 310 310 308 309 309 307 304 304 305 302 300 296 299 302 305 305 304 304 304 302 301 301 301 301 301 302 303 304 305 306 306 306 307 311 313 315 318 323 325 323
311 310 310 310 309 308 306 307 306 304 301 303 302 299 295 293 296 299 301 300 302 300 300 299 299 298 299 299 300 301 301 300 302 303 304 306 308 311 314 315 320 323 324
311 310 309 309 308 307 306 306 304 303 301 298 299 299 299 297 292 290 297 298 297 296 297 296 297 296 297 296 297 300 299 298 298 300 303 304 307 309 312 314 317 321 322
311 309 308 308 307 306 306 305 303 301 300 299 297 296 296 295 294 290 287 291 293 294 295 294 295 296 296 296 295 296 297 297 297 298 301 304 306 308 310 313 314 319 321
303 303 303 306 307 306 305 303 302 301 299 297 296 294 293 291 290 289 288 289 289 291 293 294 294 294 295 295 295 296 297 296 296 296 299 303 306 307 309 312 314 317 319
299 300 302 303 304 304 303 302 300 299 297 295 295 293 293 292 292 291 289 288 287 290 291 293 293 294 293 294 294 295 293 294 296 295 296 301 303 304 307 309 312 315 317
298 300 302 303 304 303 301 299 300 299 297 296 295 294 293 293 293 292 290 288 285 287 289 289 292 292 292 292 292 292 293 294 295 294 294 297 301 302 304 306 306 309 313
298 300 303 303 302 301 300 300 299 297 296 295 295 294 293 293 293 292 291 290 287 283 284 287 287 291 291 291 291 292 292 293 294 294 293 294 298 300 301 303 305 303 302
299 300 301 301 301 299 299 299 297 296 294 294 293 293 293 292 292 292 291 290 289 286 284 286 287 289 290 289 291 292 292 292 292 293 293 293 296 297 298 299 302 304 303
298 298 299 300 298 298 297 297 297 294 293 293 293 293 292 292 291 291 290 290 288 287 283 285 287 288 288 288 289 290 292 292 293 293 293 292 294 295 296 296 298 301 302
298 297 297 297 297 297 296 296 295 293 292 292 292 292 291 290 290 290 289 288 287 287 283 282 284 284 285 287 288 288 289 291 293 294 292 292 292 294 294 294 296 297 298
297 297 297 296 296 296 296 295 293 292 292 292 291 290 290 290 288 288 287 286 285 284 285 283 282 283 284 286 285 288 288 289 291 293 291 291 291 292 293 294 294 296 297
296 297 296 296 296 295 294 292 292 292 292 291 291 290 289 288 286 286 284 284 283 283 283 282 280 281 283 285 285 284 286 289 289 291 291 289 289 291 292 293 294 295 295
296 296 295 294 293 292 291 291 291 291 291 289 289 287 287 284 282 282 282 282 281 281 280 280 280 281 281 281 282 284 284 285 287 290 290 289 291 292 294 294 294 293 294
295 295 295 294 293 292 286 285 285 288 288 287 285 285 285 283 283 281 281 281 281 280 279 279 280 279 280 282 283 283 283 282 281 289 288 287 291 289 291 292 291 291 291
295 294 295 294 293 293 284 283 282 287 286 285 284 284 283 283 282 282 281 281 282 282 281 281 279 280 281 282 282 282 282 282 282 285 286 284 288 287 290 291 289 290 290
294 293 293 293 292 288 282 281 281 287 286 284 284 283 283 283 282 280 280 281 282 282 282 282 281 282 283 283 283 283 282 282 284 285 286 282 286 286 288 291 288 288 290
293 293 292 291 289 288 281 280 281 285 284 283 283 283 282 281 280 279 280 279 280 281 282 281 281 281 281 282 282 283 281 280 280 282 286 284 285 286 287 289 291 288 289
292 291 289 290 283 287 280 279 281 285 283 283 283 282 279 279 278 279 279 278 277 279 279 280 281 281 282 282 282 283 281 279 280 281 285 283 283 284 283 289 290 291 291

GFSMA_sfc_thetae_015.txt.gz
Theta_e
333 331 331 330 328 327 326 325 324 322 320 320 320 318 318 317 317 316 317 319 318 318 318 319 319 319 319 318 318 319 321 323 324 326 329 331 330 331 331 331 331 331 331
331 327 326 326 324 325 322 321 319 318 317 318 317 317 316 316 316 316 315 317 316 315 314 314 314 315 316 315 315 315 316 318 319 321 323 327 330 329 330 330 330 330 331
327 325 323 322 320 322 321 320 319 317 315 315 315 314 314 314 314 314 313 316 314 313 312 311 310 310 311 312 312 313 313 314 315 317 319 320 323 328 329 330 330 330 329
322 321 319 320 319 317 317 316 315 313 312 312 311 311 311 310 311 312 311 314 313 313 309 309 308 308 307 308 309 310 311 312 313 314 315 317 318 320 324 328 330 329 328
319 320 318 318 318 316 315 314 313 312 310 310 309 309 310 309 310 309 309 311 313 311 309 312 311 310 305 306 306 308 309 310 310 311 313 313 315 316 317 320 326 329 328
317 318 317 316 315 314 313 313 312 312 310 308 305 306 308 307 307 308 308 310 310 309 308 307 306 305 308 304 304 306 308 309 308 309 310 310 310 312 314 316 318 323 328
315 315 315 315 314 312 312 312 310 308 305 306 303 304 304 306 308 306 307 308 307 307 307 305 304 302 302 305 304 304 306 307 308 307 307 307 308 308 310 313 316 319 324
314 313 314 313 312 310 310 309 308 305 304 304 301 300 296 298 302 303 304 304 306 304 303 302 301 300 300 299 301 301 303 304 304 304 304 305 306 307 308 310 313 316 320
313 313 312 312 311 309 306 307 306 305 301 302 303 299 293 292 295 299 300 301 304 301 300 299 299 298 298 298 298 298 300 299 300 301 302 303 304 305 307 309 311 313 316
313 311 310 309 309 307 306 305 305 304 302 299 300 300 300 298 292 291 295 296 298 297 299 298 297 297 297 297 299 299 297 297 297 299 301 301 303 305 306 308 310 311 314
307 304 304 304 305 306 306 306 305 303 302 300 298 297 296 295 295 291 288 290 294 295 295 296 296 295 296 296 296 297 298 298 295 295 297 300 302 305 306 306 308 310 312
302 302 302 303 303 304 305 305 304 303 301 300 298 296 294 291 290 290 288 289 290 292 294 295 296 296 297 296 296 298 297 296 294 294 296 298 300 303 305 306 307 310 311
299 300 301 302 302 303 304 303 302 301 300 298 297 295 294 293 293 291 289 288 288 290 291 294 295 296 294 296 295 296 294 293 294 295 296 296 297 300 303 304 306 308 310
299 300 301 303 303 303 303 302 301 301 299 297 296 295 294 294 294 292 290 288 287 287 289 289 294 294 294 294 294 295 292 293 293 294 295 294 295 298 300 301 303 305 307
298 299 301 301 302 302 301 302 300 299 299 297 296 295 294 293 293 292 292 290 288 284 284 289 289 292 292 293 293 293 293 294 294 293 293 293 294 297 298 298 300 302 305
299 299 299 299 300 301 302 300 299 298 296 296 294 294 294 294 293 292 291 291 290 288 284 288 289 290 291 290 291 292 292 293 292 293 292 293 292 294 295 296 297 299 302
299 298 298 298 298 299 299 298 297 297 296 294 294 293 293 293 292 291 292 291 290 289 285 288 289 289 288 288 288 290 291 291 292 293 293 293 292 292 293 294 295 296 298
298 298 298 297 297 297 297 296 295 295 294 293 293 293 291 291 291 291 290 289 288 288 287 283 285 286 286 287 288 288 288 289 291 291 293 293 293 292 293 294 294 295 296
297 297 297 297 296 296 295 296 296 294 293 293 293 291 291 290 289 288 288 287 286 286 286 283 282 285 286 286 286 287 287 288 289 292 292 291 292 292 292 293 294 295 296
297 297 297 296 296 295 294 294 293 292 292 292 292 291 290 288 287 285 284 284 284 283 283 282 281 281 283 285 286 284 284 287 287 289 290 291 292 293 293 293 294 293 294
296 296 296 295 296 294 292 292 292 292 291 291 290 289 288 286 283 283 282 282 282 280 280 279 279 281 281 282 281 284 283 285 286 288 288 290 290 292 293 293 294 292 292
296 296 295 295 294 294 286 285 285 289 289 289 287 287 287 287 286 284 283 282 282 280 279 279 279 279 279 281 282 283 282 281 280 288 286 286 290 290 291 293 291 291 290
296 295 295 294 294 294 285 283 282 287 288 288 287 286 285 285 284 284 283 283 283 283 283 282 280 280 280 281 281 281 281 281 281 284 285 283 288 287 290 291 290 291 290
295 294 293 294 293 289 284 282 282 286 288 287 286 285 284 284 283 281 280 280 281 282 282 282 282 281 281 281 281 281 281 281 283 284 285 281 286 286 289 291 289 289 290
294 294 293 292 292 289 283 281 281 287 287 285 285 285 283 282 280 279 279 279 279 280 283 283 282 282 282 282 282 282 280 279 279 280 285 284 284 286 287 289 291 289 290
293 293 292 292 285 290 282 281 281 286 285 285 285 285 281 280 279 279 278 278 277 279 278 279 280 281 283 283 284 283 282 279 279 279 284 283 284 284 282 288 290 291 290

GFSMA_sfc_thetae_018.txt.gz
Theta_e
329 327 325 325 326 322 320 318 317 316 315 315 317 315 313 312 313 311 313 320 321 318 318 318 318 318 318 317 317 317 318 318 320 321 322 324 327 329 330 330 330 330 330
328 324 324 321 320 320 317 316 315 314 313 313 312 314 313 311 311 312 309 313 318 317 315 315 315 314 314 313 313 314 315 315 316 317 318 319 320 322 325 328 330 330 330
324 322 319 318 316 317 316 315 313 312 310 310 308 309 309 308 307 309 309 307 313 315 313 311 310 310 310 310 310 311 311 312 313 314 315 316 317 318 319 322 324 329 330
320 318 316 318 316 315 314 312 310 309 308 307 306 306 306 306 305 306 307 306 309 309 312 312 310 309 307 308 308 309 309 310 311 311 312 313 313 314 315 317 318 322 326
318 317 315 315 313 313 312 311 309 308 306 305 304 302 303 302 304 305 303 304 307 306 306 311 312 310 307 306 306 308 309 310 310 310 310 310 311 311 311 312 315 317 320
316 315 315 312 312 311 309 309 308 307 305 302 303 301 301 302 301 302 303 305 306 307 305 303 302 301 307 304 304 305 307 308 308 309 308 307 308 308 309 309 311 313 317
314 312 312 312 311 308 308 307 304 302 301 302 298 298 298 299 299 298 299 299 300 302 304 303 300 298 297 302 302 303 304 306 306 305 305 305 305 306 307 308 309 311 313
312 311 311 309 309 307 306 305 302 301 300 300 296 295 291 293 296 297 296 297 296 300 299 297 297 297 295 294 296 300 301 302 302 302 302 302 303 304 305 307 308 309 311
311 310 310 308 307 305 303 302 301 300 297 297 298 293 290 287 291 294 294 295 294 294 295 296 295 295 294 293 294 296 299 296 297 299 300 300 301 302 303 305 307 308 309
309 305 304 303 303 304 302 302 302 299 298 294 295 298 294 292 286 286 290 290 291 292 292 293 292 293 293 292 296 299 298 297 296 297 298 299 300 301 302 304 306 307 308
303 302 301 301 300 300 301 302 301 299 297 296 294 293 291 290 290 285 283 285 289 290 291 292 292 291 292 292 292 294 299 297 295 296 297 298 299 300 301 302 305 306 307
300 301 301 300 301 300 300 301 300 299 297 296 295 293 290 288 286 285 283 284 284 287 289 290 290 290 291 291 294 298 297 296 295 294 295 296 297 299 299 300 303 305 307
297 298 298 299 299 300 301 300 298 297 297 295 293 291 292 290 289 288 286 285 284 286 286 288 289 289 291 289 290 296 295 295 295 294 294 295 295 297 297 298 301 303 304
297 298 298 298 299 301 300 298 297 297 296 295 293 293 290 290 291 288 286 284 282 283 285 285 288 288 288 288 291 296 290 294 294 294 294 293 294 294 295 297 298 301 302
297 297 297 297 298 299 299 298 296 296 296 295 293 293 290 290 289 289 288 286 283 280 281 284 285 287 288 287 289 288 288 291 293 293 293 294 295 294 294 296 297 299 299
297 297 297 296 296 297 299 298 296 296 294 293 292 292 290 290 290 289 288 287 286 284 281 284 285 285 286 287 289 287 287 291 291 291 292 293 294 295 294 294 295 296 297
297 296 296 296 296 295 295 294 294 293 293 292 293 290 290 290 290 287 287 286 285 284 281 283 285 285 284 284 285 286 287 286 287 291 292 292 293 293 293 293 293 294 296
297 296 296 296 296 295 295 294 293 293 292 291 291 290 289 291 287 286 286 283 283 283 281 279 282 282 282 283 284 284 286 287 286 290 291 292 293 293 293 293 293 294 295
296 295 295 295 294 294 293 293 293 293 291 290 289 288 288 287 284 283 282 281 281 283 281 279 279 281 281 282 282 283 284 285 287 290 290 291 291 292 293 293 293 294 294
295 295 295 295 294 293 293 292 291 290 289 289 289 288 287 285 282 280 280 279 279 278 278 278 278 278 279 281 281 280 280 282 283 286 289 289 291 292 292 292 293 293 292
295 295 294 294 294 293 292 289 288 287 287 287 287 287 285 285 284 281 280 278 278 277 277 276 277 277 278 277 277 280 279 280 282 283 284 285 287 289 289 291 292 292 291
295 294 293 294 293 294 287 286 285 283 286 285 284 284 284 286 285 284 285 284 281 277 276 276 276 276 277 278 279 279 278 278 277 282 282 281 286 286 287 290 290 291 290
294 294 293 293 292 288 286 285 283 282 284 284 283 282 282 284 283 280 281 281 281 282 283 279 278 278 279 278 278 276 276 276 276 279 279 278 283 283 286 290 289 291 289
293 292 292 292 291 287 286 284 282 281 283 283 282 282 281 280 278 278 277 277 278 278 279 280 277 277 278 279 278 279 278 278 278 279 280 276 281 281 285 286 290 290 289
292 292 292 291 290 284 285 283 281 281 283 282 283 283 281 279 280 280 277 276 276 277 281 281 280 281 282 283 283 280 277 276 274 277 279 280 280 281 281 281 283 290 290
292 292 290 290 287 284 284 283 281 280 281 281 281 281 281 279 279 279 276 275 274 275 275 276 277 279 281 281 284 283 280 276 277 275 279 280 281 281 276 278 280 280 281

GFSMA_sfc_thetae_021.txt.gz
Theta_e
322 321 320 319 316 316 312 311 312 311 310 309 309 309 309 308 308 308 311 320 321 320 319 319 318 316 315 314 313 314 314 315 316 317 317 318 319 320 321 322 323 326 329
320 318 316 313 313 312 312 310 308 308 306 306 306 307 306 306 304 304 308 311 319 319 317 315 314 313 312 311 311 311 311 312 312 314 314 315 315 315 316 317 320 321 323
317 316 312 312 311 310 308 307 307 306 306 307 305 305 304 304 303 302 303 306 313 316 315 312 310 310 309 309 309 309 309 309 311 312 312 312 312 312 313 313 314 317 320
315 312 312 309 308 309 308 307 306 305 304 303 300 300 302 301 302 301 301 301 307 308 313 313 310 309 308 308 308 309 308 309 310 310 311 310 310 310 310 311 311 313 315
313 311 310 308 308 307 307 306 304 304 301 300 299 297 297 298 298 301 299 300 303 304 304 313 312 307 305 306 306 307 308 308 308 309 309 308 307 307 307 308 309 310 312
310 310 309 308 307 305 304 303 301 300 300 298 301 298 296 297 297 296 296 298 299 301 303 299 296 299 305 303 303 304 305 306 306 307 307 306 305 305 305 306 307 309 310
309 307 306 306 305 303 302 302 299 298 297 297 294 294 294 295 295 294 294 295 295 297 299 299 296 294 296 301 299 299 302 303 302 303 302 303 303 303 303 304 305 307 308
307 307 305 304 303 302 300 299 298 296 297 295 292 291 288 290 292 294 292 294 291 293 296 297 295 295 294 293 294 297 298 299 299 300 300 300 301 302 302 303 304 305 307
307 304 301 299 299 300 298 297 297 296 293 294 294 291 287 284 287 290 290 290 289 289 289 291 292 292 292 290 293 294 299 298 297 298 299 299 300 300 301 302 303 304 305
299 299 299 298 296 296 295 297 299 296 294 291 293 295 290 289 283 282 286 287 288 289 288 289 289 290 291 290 294 298 300 297 295 296 297 298 299 299 300 301 302 302 304
298 297 298 296 295 296 296 296 296 295 294 293 291 290 288 287 286 283 280 283 286 287 288 288 288 289 290 290 288 291 298 296 295 295 296 297 298 298 299 299 301 301 302
296 296 296 295 295 296 296 296 295 294 294 293 292 290 288 286 285 283 281 281 282 284 286 287 287 287 288 288 293 297 298 297 296 294 295 296 296 297 298 299 300 301 301
293 292 294 294 294 296 297 296 294 294 293 292 291 290 289 288 288 286 284 282 281 283 284 285 286 287 289 287 288 294 293 294 294 293 293 294 295 295 296 297 298 299 299
292 293 293 293 294 295 296 295 294 294 294 292 291 290 289 288 288 287 284 282 279 280 281 282 285 286 287 286 288 292 287 291 292 293 292 292 292 293 294 295 296 296 298
294 293 293 293 293 293 295 295 294 293 293 292 291 289 289 289 288 287 286 284 282 276 279 282 281 285 285 285 287 286 285 289 291 291 291 291 292 293 293 294 295 295 296
293 293 292 293 292 292 292 295 294 294 291 290 292 289 290 290 289 287 285 285 284 280 276 281 281 282 283 285 287 285 285 289 289 290 291 292 292 292 292 293 294 295 295
294 293 293 292 292 292 292 291 290 291 290 290 291 289 288 289 286 285 284 283 281 280 276 279 280 281 280 281 283 283 285 284 285 289 291 291 291 292 292 293 293 294 294
293 293 293 293 293 292 290 290 290 291 291 289 289 288 287 289 285 283 281 279 278 278 277 276 278 279 279 280 281 280 283 285 285 288 290 290 291 291 292 292 292 293 293
292 293 293 293 293 291 290 291 290 290 288 289 288 287 287 285 281 279 279 278 277 280 277 275 276 278 278 279 279 281 281 282 284 287 287 289 289 290 290 291 292 292 293
293 292 293 293 293 292 292 291 289 287 287 287 287 286 285 282 280 278 278 277 278 276 276 275 276 276 277 279 279 277 278 280 280 284 285 287 287 289 289 290 291 292 293
293 293 292 292 293 292 291 288 287 286 284 284 284 284 283 283 285 281 279 277 276 276 275 275 275 276 276 276 276 279 277 277 278 280 281 281 282 283 286 288 290 291 291
293 293 292 292 291 292 288 288 286 283 284 283 282 282 281 283 284 284 283 282 280 276 275 274 275 275 276 277 279 276 275 274 273 278 278 278 280 280 284 286 289 290 290
291 292 291 291 290 288 288 287 285 281 282 282 281 280 281 282 280 278 279 280 279 281 280 277 275 274 274 275 276 275 275 275 274 277 277 276 278 278 283 286 289 290 290
291 290 290 290 289 287 287 286 284 280 281 281 280 280 279 277 278 278 277 276 276 277 277 278 275 274 275 277 277 278 277 277 277 278 278 274 278 278 282 284 287 290 291
290 290 291 289 287 285 286 285 282 280 281 281 282 281 281 278 280 280 277 276 275 276 279 280 280 281 281 282 282 281 278 277 274 276 278 276 277 278 280 281 283 287 290
289 289 289 288 287 283 286 285 282 278 279 279 280 280 282 278 280 280 276 274 273 274 275 276 276 277 279 280 283 280 280 277 277 276 278 277 278 278 276 277 278 279 280

GFSMA_sfc_thetae_024.txt.gz
Theta_e
318 318 315 313 313 311 309 309 308 307 306 305 305 305 304 304 302 305 309 318 321 321 319 319 318 316 315 313 314 313 313 313 313 314 314 314 314 314 314 314 315 316 319
316 314 312 311 310 310 308 306 305 304 304 304 303 302 303 301 301 300 303 306 318 320 319 316 314 313 312 312 311 310 310 311 312 312 312 312 311 311 311 312 313 314 315
315 311 311 309 307 307 306 305 305 304 303 303 301 300 302 300 301 299 299 303 312 317 317 313 311 310 309 310 309 309 310 311 309 310 311 310 309 309 309 309 310 311 312
313 311 307 306 306 306 305 304 303 302 301 299 297 296 297 299 298 298 297 301 305 307 312 313 311 309 308 307 307 307 308 308 307 308 309 309 308 307 307 307 308 309 310
312 309 306 305 305 304 303 303 301 300 299 297 298 296 295 296 296 298 296 297 301 303 302 308 309 307 305 304 304 305 306 306 306 307 307 306 305 305 305 305 305 306 308
310 307 305 304 304 302 301 300 297 297 297 296 299 296 294 294 294 293 293 295 295 296 296 296 296 300 305 301 301 301 303 304 304 303 304 303 303 303 303 303 304 305 306
306 305 304 303 302 301 299 299 297 295 295 295 292 292 292 292 292 292 292 291 292 293 293 294 294 292 293 300 299 299 300 301 301 301 301 301 301 302 302 302 303 303 304
305 305 303 302 301 299 298 297 296 294 294 293 291 289 286 289 290 291 290 290 288 290 291 292 292 292 292 291 294 300 300 299 300 300 300 300 300 301 301 301 302 302 303
302 300 298 297 296 296 295 295 295 294 292 292 291 290 285 283 285 288 287 287 287 287 287 289 290 290 289 289 292 294 299 297 296 297 298 299 299 300 300 301 301 301 302
298 298 297 295 295 294 294 294 297 294 292 290 291 293 289 288 282 281 285 285 287 287 286 287 287 289 289 288 292 296 298 297 295 295 297 298 299 299 299 300 300 300 301
296 296 295 294 294 295 294 295 294 293 293 291 290 289 287 286 284 282 279 282 284 286 286 286 286 286 288 288 287 290 298 297 295 295 296 296 297 298 298 298 299 300 300
294 294 295 293 293 294 295 294 293 293 292 291 291 289 287 285 284 282 280 280 281 283 285 285 285 286 287 287 291 294 294 293 292 293 294 295 296 297 297 297 298 299 299
294 292 292 292 292 294 296 294 293 293 292 290 290 289 288 287 286 285 282 280 280 282 282 284 285 285 288 285 286 292 292 291 291 291 292 293 293 294 295 295 296 297 298
293 294 294 293 292 292 294 294 293 292 292 290 290 289 288 288 287 286 284 281 278 279 280 281 283 284 284 284 287 291 285 289 290 290 291 290 291 292 293 294 295 296 297
295 292 292 292 292 292 291 292 292 292 291 291 290 289 288 287 287 286 286 284 282 274 277 279 280 282 283 283 285 285 283 288 289 289 289 290 291 291 292 292 293 294 295
295 293 293 292 291 291 291 292 292 292 291 289 290 289 288 290 288 287 285 285 283 281 277 278 279 280 281 283 284 283 283 287 287 288 289 289 290 291 291 291 292 293 294
294 294 293 291 292 292 291 290 289 289 289 289 289 288 289 288 286 285 283 283 281 280 277 277 278 279 278 278 281 281 283 282 283 287 287 288 289 289 290 290 291 292 293
294 293 292 291 292 292 290 289 289 289 289 287 287 287 287 289 284 283 280 278 278 277 276 275 276 276 277 278 279 278 282 284 282 286 287 287 287 288 289 290 290 290 292
292 291 291 292 292 291 290 290 290 289 289 288 288 287 287 285 281 279 279 277 277 279 276 275 275 276 276 277 278 279 279 279 283 285 284 285 286 287 287 287 289 290 291
291 290 292 292 292 292 291 291 289 287 286 286 286 285 284 282 280 279 278 277 277 276 276 275 275 276 276 278 277 276 277 279 278 281 282 283 284 285 286 286 288 288 291
292 292 291 291 292 291 292 290 288 286 284 283 283 283 282 283 285 281 278 277 276 275 275 275 275 275 275 275 275 277 277 277 277 278 278 279 279 280 281 284 286 287 289
293 292 292 291 290 291 290 290 287 284 284 283 282 281 281 283 284 284 283 282 279 275 274 273 274 273 273 274 275 275 275 274 273 277 276 277 279 278 280 281 286 288 288
291 291 290 290 289 290 289 289 287 282 282 281 281 280 280 282 281 279 280 279 278 279 279 275 273 273 273 274 274 274 275 275 275 278 277 275 277 276 280 283 286 287 288
290 288 289 290 289 289 288 288 286 281 281 281 280 280 279 278 278 278 277 276 276 276 277 277 275 275 275 277 278 279 278 278 278 278 277 274 276 276 279 281 285 287 288
289 288 289 288 288 286 288 287 283 279 280 281 281 281 280 278 280 282 277 276 275 276 279 280 280 281 281 281 281 280 277 276 274 276 279 277 276 276 278 279 280 287 287
288 288 287 287 288 285 287 286 283 279 279 279 280 280 282 279 281 281 277 275 273 275 275 276 276 277 278 278 281 278 278 275 275 275 278 278 276 275 274 278 279 277 282

GFSMA_sfc_thetae_027.txt.gz
Theta_e
316 315 312 311 310 308 307 306 305 304 304 303 302 302 302 300 300 301 302 314 319 320 317 320 318 316 315 314 313 312 313 314 314 313 313 312 312 311 311 311 312 312 314
313 311 309 309 308 306 305 304 303 303 302 301 300 301 299 299 298 298 299 301 316 320 319 317 315 313 312 311 311 311 312 312 311 311 312 310 309 309 309 309 309 310 311
312 310 307 306 306 305 304 303 303 302 301 300 298 298 298 298 297 296 297 300 308 315 317 313 312 310 310 310 309 309 309 309 308 309 309 309 309 308 307 307 307 308 309
311 307 305 305 304 304 303 302 301 300 298 297 295 294 296 296 296 295 295 301 304 304 307 312 310 309 308 307 307 307 307 307 307 307 308 307 306 306 305 305 305 306 306
309 305 304 304 303 302 301 301 298 298 296 295 297 294 293 293 293 295 294 295 296 299 299 305 307 306 303 302 302 303 304 305 305 306 305 304 304 304 304 304 304 304 305
307 305 303 303 302 300 299 297 296 295 295 294 297 294 292 292 291 291 290 293 292 292 293 294 293 293 302 302 302 302 303 304 304 303 303 302 302 302 303 303 303 303 303
305 303 302 301 301 299 297 297 295 294 294 292 291 291 290 290 290 289 289 288 290 290 291 291 291 290 291 299 300 302 302 302 302 302 302 302 301 301 301 302 302 302 303
303 303 301 299 298 297 296 295 295 293 293 292 290 288 286 288 289 289 287 288 286 288 289 290 289 289 289 288 294 298 300 300 301 301 300 300 300 300 301 301 301 301 302
301 298 297 295 295 294 293 293 294 293 291 291 290 289 284 283 284 287 286 286 285 286 286 288 288 289 288 287 290 293 297 296 297 298 298 299 299 300 300 300 300 300 301
296 296 295 295 295 294 293 293 296 293 291 289 290 292 288 287 283 281 284 285 286 287 285 286 286 287 288 287 291 293 296 298 297 296 297 298 298 299 299 299 299 300 300
296 295 295 294 294 294 294 294 293 292 292 291 290 289 287 285 283 281 279 282 284 285 285 285 285 286 286 287 286 289 296 294 294 295 296 297 297 298 298 298 299 299 299
293 294 294 294 296 297 294 293 292 292 291 290 290 288 286 285 283 281 279 280 280 283 284 285 285 285 285 285 290 293 293 292 292 292 294 295 296 297 297 297 297 298 298
292 293 295 295 295 297 295 294 294 291 291 289 289 288 288 287 286 284 282 280 280 281 282 284 285 284 286 283 285 290 291 290 290 291 292 292 293 293 294 295 296 297 298
294 295 294 295 293 292 293 294 293 291 290 289 289 288 289 287 286 285 283 281 278 279 280 282 283 283 282 282 286 289 284 288 288 289 290 290 291 291 292 293 294 295 296
295 295 294 294 292 291 290 291 291 291 291 290 289 288 287 287 286 286 285 284 282 276 277 279 280 281 281 281 282 283 282 286 287 287 288 288 289 290 291 292 292 293 294
296 294 294 293 291 290 291 291 291 292 290 288 288 288 287 286 287 286 284 283 282 281 278 279 278 279 280 281 282 281 281 286 286 287 286 287 288 289 290 290 291 291 292
294 294 294 292 290 290 291 290 289 288 288 288 288 287 287 287 286 284 284 282 280 279 276 277 278 278 277 277 279 279 281 280 281 285 286 287 287 287 287 289 290 290 290
294 292 292 291 290 291 291 289 287 288 287 287 286 286 286 288 284 283 281 279 278 277 276 275 275 276 276 277 277 277 280 282 280 284 285 285 285 285 286 288 288 288 288
291 291 290 290 291 291 290 288 288 288 288 287 287 286 286 285 282 280 279 278 277 279 276 275 275 276 276 276 277 278 279 279 281 284 283 283 284 284 285 286 286 287 287
290 289 290 291 292 290 290 290 288 287 286 286 286 285 285 283 281 279 278 277 277 275 275 275 275 275 275 277 276 275 276 278 277 280 281 282 283 284 284 284 285 286 287
291 290 291 292 290 290 290 289 288 286 284 284 284 283 282 283 285 281 278 276 276 275 274 274 273 274 274 274 273 274 274 275 276 278 278 278 279 280 280 282 284 285 286
292 291 291 290 289 290 290 291 287 284 284 283 282 282 281 285 285 286 285 283 279 275 273 272 273 272 272 273 273 273 273 274 273 278 277 277 279 278 279 280 283 285 286
291 291 290 290 289 288 290 290 289 283 282 282 281 281 280 281 282 281 283 282 280 280 279 274 272 272 272 274 274 274 275 276 275 278 277 276 277 276 279 281 284 286 287
291 290 289 289 288 288 289 289 288 282 281 281 281 280 279 279 279 278 277 277 276 277 277 277 275 274 275 276 276 278 278 278 278 278 278 274 276 276 279 280 285 287 287
289 288 288 287 286 286 288 288 285 280 280 280 281 281 280 279 281 283 278 277 276 276 279 280 280 281 281 281 280 277 274 274 273 275 277 276 275 276 278 279 281 285 286
288 287 285 285 286 284 287 288 285 279 279 280 280 280 284 281 282 283 277 275 274 276 275 276 276 277 278 277 280 277 276 274 274 273 276 275 277 278 275 276 277 279 278

GFSMA_sfc_thetae_030.txt.gz
Theta_e
315 312 310 309 307 307 305 304 303 303 302 301 301 300 300 299 299 299 300 310 318 320 318 320 318 317 316 314 313 313 315 313 312 314 313 311 311 311 310 310 310 310 310
312 309 308 307 306 305 304 303 302 301 299 299 299 299 298 297 297 298 300 302 317 320 319 318 316 314 313 311 311 311 311 310 310 312 310 310 309 308 308 308 308 308 309
310 307 306 305 304 304 303 302 302 300 298 299 296 297 297 296 296 296 301 306 307 314 316 314 313 311 311 310 309 310 309 308 308 308 310 308 307 306 306 306 306 307 307
309 306 305 304 303 303 302 301 299 298 297 296 294 294 294 295 295 295 296 301 303 302 306 312 310 309 306 306 305 306 307 307 306 306 308 306 305 305 305 305 305 305 305
307 305 304 303 302 301 300 299 297 297 295 295 295 293 293 292 292 294 293 294 296 296 296 303 304 305 305 304 304 303 304 305 305 305 305 304 304 303 303 303 304 304 304
306 304 302 301 300 299 297 296 295 295 295 294 296 293 291 291 291 290 290 292 291 292 293 294 293 296 301 301 302 303 303 304 304 304 304 304 303 302 302 302 302 303 303
304 302 301 300 299 297 296 296 295 294 293 292 292 291 291 290 289 289 289 289 290 291 292 292 291 291 291 299 300 300 301 302 302 303 303 303 301 301 301 301 302 302 303
302 302 300 298 297 296 295 295 294 293 292 291 290 288 286 289 289 289 288 288 288 289 290 291 291 291 290 290 296 297 298 298 300 300 300 300 300 300 301 301 301 301 301
301 298 296 294 294 293 293 293 294 293 291 290 290 289 286 284 285 288 287 287 287 287 288 289 290 291 290 289 291 292 296 297 297 298 299 299 299 300 300 300 300 301 301
296 295 295 295 294 294 293 295 295 294 291 290 291 291 288 288 285 284 286 286 287 287 288 288 288 289 289 289 291 292 295 296 296 297 298 298 299 299 299 300 300 300 300
294 295 295 295 294 295 296 296 294 292 292 291 290 289 287 286 284 283 281 283 285 286 287 287 287 287 288 288 288 292 294 293 293 295 296 297 297 298 298 298 299 299 299
293 293 294 293 295 297 295 294 293 292 291 290 291 289 288 286 284 282 281 281 281 284 285 286 286 286 287 286 289 292 292 292 292 292 293 294 295 296 297 297 297 297 298
293 292 293 294 295 297 296 294 292 292 291 290 289 289 288 287 287 285 283 282 281 282 283 285 286 286 286 285 286 289 290 289 289 290 291 291 292 293 294 294 295 296 297
294 294 295 293 295 296 294 294 293 291 291 290 289 288 288 288 287 285 284 282 280 281 282 283 285 284 284 284 285 287 283 287 287 288 288 289 290 291 291 293 293 294 295
295 295 295 295 294 292 293 293 293 292 291 289 289 288 287 288 287 286 285 284 282 281 279 282 282 283 282 282 283 284 282 285 286 287 287 288 288 289 289 291 292 292 293
295 295 295 294 293 292 292 292 291 291 290 289 289 287 287 287 286 286 285 285 284 282 280 282 281 281 281 282 282 283 281 285 285 286 286 287 287 288 288 288 289 290 291
296 295 294 293 292 292 292 291 291 290 288 287 287 287 287 287 286 285 284 284 282 281 279 279 279 280 279 279 280 280 281 281 282 285 285 286 286 286 286 286 287 288 290
295 294 294 292 292 292 291 290 288 288 287 287 287 286 286 288 285 284 283 281 280 279 278 276 277 278 278 279 278 279 280 281 282 283 285 285 285 285 285 285 286 286 288
293 292 292 291 291 291 290 289 288 288 287 287 286 286 286 285 283 282 281 279 278 279 278 276 276 278 278 278 278 279 279 280 281 283 283 283 284 285 285 285 286 286 286
292 292 292 292 292 292 291 290 288 287 286 286 286 285 285 284 283 281 280 279 278 277 276 276 276 276 276 278 278 276 275 278 278 280 281 282 283 284 284 285 285 285 286
292 292 292 292 292 292 290 289 288 286 285 284 285 284 284 285 286 282 279 278 277 276 276 275 274 275 274 274 274 275 274 276 277 279 279 280 281 282 282 283 284 284 285
292 292 291 291 291 291 290 290 289 285 284 283 283 282 282 286 286 288 287 283 279 276 275 274 274 273 273 274 275 274 274 274 274 280 278 278 281 280 281 282 283 285 286
291 291 292 291 290 290 290 290 290 285 283 283 282 282 281 281 283 281 285 285 283 282 280 276 274 274 273 275 275 275 275 275 276 279 279 277 280 279 281 282 284 285 287
292 292 291 290 289 288 289 289 289 285 283 282 281 281 280 280 280 280 279 278 278 278 278 278 276 275 276 277 277 277 277 277 278 278 279 274 279 278 281 282 283 285 286
291 290 290 289 287 285 288 288 287 283 281 281 281 281 281 280 282 284 279 277 277 277 280 282 281 281 281 281 281 278 275 274 273 275 278 276 278 278 280 281 282 284 285
290 289 287 286 285 283 286 287 287 280 280 280 280 281 285 281 283 284 280 277 275 277 277 276 277 278 280 278 280 278 276 273 273 273 278 275 277 278 277 280 281 283 283

GFSMA_sfc_thetae_033.txt.gz
Theta_e
325 321 318 317 316 316 315 314 313 312 311 310 309 309 308 309 310 311 311 317 319 320 318 322 320 318 315 314 314 314 312 312 313 313 312 311 310 309 309 309 309 309 309
321 318 317 316 315 316 315 314 312 310 309 309 308 307 306 307 309 311 311 316 317 321 319 320 318 316 314 312 310 310 309 309 309 309 310 309 308 307 307 307 307 307 308
321 319 316 314 314 314 314 312 310 310 308 306 306 306 305 305 307 310 313 315 315 315 318 316 313 312 312 310 309 309 308 307 308 307 307 307 306 306 305 305 305 305 306
319 318 315 314 314 313 312 310 309 307 307 307 306 304 304 304 304 307 311 312 311 311 312 311 311 309 306 306 306 306 306 306 306 306 306 306 306 304 304 304 303 304 304
316 316 314 313 313 311 310 308 307 307 306 306 304 304 303 302 302 302 306 307 306 306 306 304 305 305 305 304 304 304 304 304 305 305 305 305 305 303 303 303 302 303 303
315 314 312 312 310 308 307 307 307 306 306 306 302 302 301 301 301 301 300 300 301 302 303 302 303 302 301 300 300 301 302 303 304 304 304 305 305 304 303 302 302 303 303
313 312 310 310 309 309 307 307 305 304 304 305 303 302 300 300 300 300 301 300 299 299 301 301 302 301 300 298 299 299 300 301 301 301 301 301 302 302 301 302 302 302 303
312 311 310 309 308 306 306 306 305 303 304 304 301 300 297 297 299 298 299 298 299 299 299 298 299 299 299 299 298 297 298 298 299 300 300 300 300 301 301 301 302 302 302
311 310 309 307 305 304 303 304 305 303 300 301 301 300 295 294 297 298 297 298 298 298 299 298 298 298 298 298 296 295 295 297 298 299 299 299 300 300 301 301 301 301 301
308 307 305 304 304 304 303 303 303 301 302 299 301 300 301 299 294 292 297 298 297 296 297 298 297 297 297 297 294 293 295 295 295 297 297 298 299 299 299 300 300 300 301
305 303 304 304 304 303 304 304 303 301 302 301 300 300 300 298 297 293 290 293 296 297 297 297 297 296 296 295 296 295 293 293 293 294 295 296 297 298 298 298 299 299 300
302 303 302 303 304 304 303 302 299 300 301 301 300 300 298 296 294 293 291 291 291 294 295 296 296 295 296 296 291 290 291 290 290 291 292 293 294 295 296 296 297 298 298
300 301 302 302 302 302 301 298 299 302 301 300 299 299 299 297 297 295 293 291 290 293 293 295 296 296 293 294 292 289 290 288 288 289 289 290 291 292 293 294 295 296 297
301 301 301 302 302 301 300 302 302 301 301 301 300 299 298 298 298 296 294 292 289 290 291 292 295 294 293 292 290 288 289 287 287 287 288 289 289 290 291 291 292 293 295
300 300 301 298 300 300 298 299 300 300 301 301 300 300 298 298 297 296 295 294 291 287 287 290 290 293 293 292 289 289 289 287 286 287 287 287 288 289 289 290 291 291 292
300 300 300 300 299 296 299 298 299 299 300 300 300 298 297 297 297 296 295 294 293 291 286 290 291 291 291 288 288 288 287 286 286 285 286 286 287 287 288 288 289 289 290
301 299 298 299 295 296 297 297 297 298 298 299 298 296 296 296 295 295 295 294 292 291 287 289 289 289 287 287 287 287 286 286 286 285 285 285 286 286 286 286 287 287 288
300 298 297 295 296 295 296 295 295 296 297 296 295 295 295 294 295 295 294 293 292 291 288 285 287 286 285 287 286 284 284 284 285 284 284 285 285 285 285 286 286 287 287
298 297 296 295 294 296 295 295 295 295 295 295 295 295 295 295 294 294 293 291 291 288 288 285 284 286 285 285 284 284 283 284 284 284 284 284 284 285 285 286 286 286 287
295 295 296 297 297 296 295 294 296 294 294 294 294 294 294 294 293 293 292 291 289 287 286 284 284 283 283 284 283 281 281 283 282 283 284 284 284 285 285 285 286 286 286
296 295 296 295 295 295 295 296 296 295 294 294 294 293 294 294 292 292 290 290 287 286 285 284 283 282 282 281 279 281 280 281 282 284 283 284 285 285 286 286 286 286 286
294 295 295 295 294 295 292 291 291 294 294 293 293 293 293 290 290 288 287 286 287 286 284 283 282 281 281 281 281 280 279 279 277 284 282 282 284 284 285 287 285 285 285
294 295 295 295 294 295 291 290 290 293 294 294 293 293 291 289 288 289 287 287 285 283 283 285 282 282 281 281 281 279 280 279 279 281 281 279 283 283 286 286 286 285 285
295 295 296 295 294 293 290 289 288 292 293 293 293 292 291 291 289 288 287 286 287 286 285 283 284 283 283 282 282 281 280 280 281 282 282 277 282 282 285 286 286 286 285
295 295 294 292 291 293 290 288 288 291 291 291 291 291 290 290 288 285 285 284 285 284 283 283 283 283 281 281 282 282 280 279 277 279 282 280 281 281 283 285 287 285 285
294 292 290 292 292 290 289 287 288 291 289 289 290 289 286 288 286 285 286 285 283 284 284 283 283 282 282 283 282 283 281 278 278 277 282 278 279 280 279 284 285 287 288

GFSMA_sfc_thetae_036.txt.gz
Theta_e
331 330 327 326 325 324 323 322 320 319 318 317 316 314 313 312 312 312 313 319 320 321 320 323 321 318 316 315 315 311 311 310 309 310 311 309 308 308 308 308 308 308 308
330 327 326 324 323 323 323 321 320 318 317 316 314 311 310 310 311 312 313 316 318 321 319 321 320 317 315 312 310 310 310 309 308 308 308 308 307 307 306 306 306 306 306
330 328 325 324 323 322 321 319 318 318 316 313 310 310 310 310 310 310 312 313 315 315 319 317 315 313 312 310 309 308 308 307 307 307 307 307 307 307 305 305 304 304 304
329 327 324 323 322 321 319 318 317 315 314 312 311 310 311 310 309 310 313 313 313 313 312 311 311 309 307 306 306 307 307 306 306 307 307 306 306 306 304 304 304 303 304
326 326 324 322 322 319 318 316 314 314 311 311 309 311 310 310 308 308 310 311 312 312 313 305 306 306 305 304 304 304 305 305 306 306 306 306 306 306 305 305 304 303 304
325 325 323 321 319 317 315 314 312 311 310 310 305 306 308 307 307 307 306 306 308 309 308 307 306 304 301 301 300 301 302 303 303 303 303 303 303 303 303 303 303 303 304
324 323 320 319 318 316 315 314 311 307 308 310 307 307 306 306 305 305 306 306 304 304 306 304 304 303 303 299 298 299 300 301 301 301 301 301 302 302 302 303 303 303 303
323 321 319 317 317 315 314 312 309 308 310 309 305 304 302 303 304 304 304 303 304 303 302 302 302 302 302 301 299 295 296 298 299 300 301 300 301 301 302 302 302 302 303
320 319 319 317 316 314 311 310 308 308 307 307 307 302 299 299 302 303 302 302 302 302 302 301 301 301 301 301 298 298 295 296 297 298 299 300 300 300 301 301 301 302 302
319 317 317 315 314 312 310 308 309 310 308 305 306 304 304 302 296 296 301 302 302 301 302 301 301 301 301 300 297 294 295 294 294 296 297 298 299 299 299 300 300 300 301
317 316 314 311 310 310 309 310 309 307 308 302 303 304 303 302 301 297 294 297 300 300 301 300 301 301 300 300 299 297 292 292 292 293 294 295 296 296 297 297 298 298 299
314 311 308 309 311 309 309 310 307 308 304 305 304 303 300 299 298 297 295 296 296 298 299 299 300 300 300 299 296 290 291 291 290 291 291 292 293 294 295 296 296 297 297
306 306 308 309 308 309 309 308 308 304 305 304 303 302 302 300 300 298 296 295 294 297 297 298 299 299 298 299 298 290 292 292 289 289 290 290 291 292 293 294 295 295 296
305 308 308 309 308 305 306 306 304 303 304 304 303 303 301 301 300 299 297 295 292 294 295 296 298 298 298 297 296 290 293 293 290 289 288 289 289 290 291 291 292 293 294
309 309 308 306 306 305 305 305 302 303 304 305 304 303 301 300 300 300 298 297 294 290 291 294 294 297 297 297 296 294 293 292 289 288 287 287 288 289 289 290 290 291 292
312 308 307 305 303 302 303 303 300 303 304 304 302 301 300 300 299 299 298 297 296 293 290 294 294 295 296 294 294 292 292 290 289 289 287 287 287 287 288 288 289 289 289
311 305 306 304 301 302 301 300 301 302 300 300 301 300 299 299 298 298 298 297 295 295 291 293 294 295 293 292 292 292 291 290 289 289 287 286 286 286 286 287 287 287 288
309 307 306 303 299 300 300 299 299 297 298 298 299 299 298 297 298 298 297 296 295 295 292 290 292 292 292 292 291 290 289 288 288 289 287 286 285 285 285 286 286 287 287
309 308 306 301 298 299 299 300 297 296 297 298 298 298 298 298 297 297 297 295 295 294 294 291 290 291 291 290 289 289 288 288 288 288 288 287 286 286 286 286 286 287 287
308 305 299 298 298 299 298 297 298 298 299 297 297 298 297 297 297 297 296 296 295 293 292 290 289 289 289 289 288 286 285 287 286 287 288 287 286 287 286 287 287 287 287
302 298 296 297 296 297 297 298 298 296 297 296 297 298 298 297 295 295 295 296 295 293 291 289 288 288 287 286 285 286 284 285 286 287 286 287 287 287 288 288 288 288 287
295 295 295 297 297 296 292 292 293 294 297 296 296 297 298 296 294 291 290 290 291 293 290 289 288 286 286 286 287 285 283 282 281 287 285 284 287 286 287 289 288 287 287
296 296 296 297 297 298 293 292 291 292 294 296 296 296 296 295 294 295 290 288 287 286 286 289 288 287 286 287 286 284 283 283 282 285 284 282 286 285 287 288 288 288 288
296 296 296 298 298 297 292 291 290 295 295 295 295 295 295 295 296 295 294 293 292 292 289 287 288 288 288 288 286 285 284 284 284 285 286 281 285 284 286 288 288 288 287
299 299 297 297 296 294 291 291 290 294 293 293 294 294 294 295 292 291 292 291 291 291 289 288 287 286 284 283 283 284 283 282 281 282 285 283 283 283 284 286 288 288 288
297 295 293 292 292 296 292 290 290 293 292 293 293 294 290 291 289 288 291 290 289 290 290 289 286 285 284 285 283 284 284 281 281 280 284 282 282 282 280 285 286 287 289

GFSMA_sfc_thetae_039.txt.gz
Theta_e
333 330 330 328 328 327 326 324 323 321 320 319 318 315 312 312 312 312 315 320 320 320 321 323 322 319 317 318 314 312 311 310 310 311 310 309 308 308 307 307 307 307 307
335 329 329 327 327 327 326 325 322 320 318 318 315 312 311 311 312 313 313 316 320 321 320 323 322 319 316 314 311 310 311 308 308 308 308 308 307 308 307 306 306 305 306
334 332 329 328 327 327 326 323 321 319 316 314 311 311 311 311 311 311 312 313 316 317 318 318 319 315 314 312 310 308 308 307 307 307 308 307 308 308 307 305 305 305 304
333 332 328 327 327 326 324 322 318 316 315 313 312 311 311 310 310 310 312 312 311 313 313 312 312 310 309 307 306 306 305 306 306 306 307 307 308 308 307 306 307 306 305
332 332 328 327 326 324 322 320 317 316 312 311 310 311 312 310 309 308 310 311 311 310 312 309 308 307 305 303 302 302 303 304 304 305 305 305 304 304 305 305 305 305 304
330 330 328 327 325 322 320 318 316 314 312 312 309 308 311 310 309 308 307 307 308 309 308 309 308 306 304 302 299 299 301 302 302 303 302 302 303 303 303 303 304 304 304
330 330 328 325 324 321 319 318 315 312 310 313 310 312 310 309 308 307 307 306 305 305 305 305 305 304 303 302 300 299 299 300 300 300 301 302 302 302 302 303 303 303 304
329 329 327 324 322 319 318 316 314 311 313 313 309 309 306 306 307 307 307 305 306 305 304 304 304 303 303 302 302 299 297 296 298 300 300 301 301 301 302 302 302 302 303
328 326 325 323 321 320 316 316 313 313 311 312 311 307 303 301 304 307 305 305 305 304 304 304 303 303 302 302 301 301 297 297 296 298 299 300 300 300 301 301 301 301 301
325 323 321 322 321 319 316 315 312 314 312 309 311 309 308 305 299 298 304 305 305 303 304 303 303 302 302 302 302 298 297 295 293 295 297 298 298 298 298 298 299 299 299
322 321 321 321 319 316 317 315 313 313 310 309 308 307 306 305 304 299 297 300 303 303 302 302 302 302 302 301 301 298 295 292 292 293 295 295 296 296 296 297 297 298 298
321 321 319 319 316 313 314 312 313 311 311 309 306 306 304 301 301 301 298 298 298 300 302 302 301 301 301 300 300 296 293 291 292 293 293 293 294 294 295 296 296 297 297
320 319 314 310 311 310 312 313 312 307 308 306 307 304 304 304 303 300 298 296 296 298 299 301 301 300 299 300 300 293 295 294 294 292 292 292 292 292 293 293 294 295 296
318 311 308 308 309 312 312 310 306 309 308 307 305 305 304 304 302 301 298 296 293 294 296 297 300 300 300 299 297 294 296 296 294 292 290 290 290 290 291 291 292 293 294
309 307 308 307 310 311 307 307 307 303 305 306 305 306 304 303 302 301 300 298 295 290 291 295 295 300 299 299 298 297 296 295 294 292 291 290 289 289 290 290 290 291 292
311 310 309 309 309 307 307 307 303 305 304 305 306 304 303 302 301 300 298 298 297 294 291 294 295 298 298 296 297 295 294 295 293 293 292 290 288 288 288 288 289 289 290
312 311 311 309 306 306 306 304 302 301 302 304 302 301 301 302 300 299 299 299 297 296 292 294 296 297 296 295 295 295 294 293 293 292 291 290 289 287 287 287 287 288 288
315 313 310 306 305 306 304 300 298 301 300 298 298 299 299 299 299 299 299 298 297 297 294 293 295 294 295 295 295 294 291 291 291 291 292 289 289 288 287 287 287 287 287
313 310 307 305 305 302 300 299 300 299 299 299 299 300 299 299 298 298 299 298 297 296 296 294 293 295 294 294 293 293 291 291 290 291 291 290 290 289 288 288 288 287 288
310 309 307 304 301 299 298 298 299 298 299 298 299 299 299 299 297 298 298 298 297 296 296 294 293 292 292 293 292 289 288 290 288 288 290 289 290 289 290 290 289 288 288
308 302 301 298 299 298 298 297 298 299 299 296 297 299 300 298 296 296 297 298 297 295 294 293 291 291 291 290 288 289 287 287 288 289 288 288 288 288 289 290 290 291 290
301 298 297 296 297 296 293 293 294 299 297 295 295 298 299 297 297 293 293 292 293 295 294 293 291 290 290 290 290 288 287 284 282 289 286 286 288 287 288 289 289 288 288
299 297 298 296 296 296 293 292 292 297 294 293 293 295 297 297 294 297 294 291 290 289 289 292 291 292 290 291 290 287 286 285 283 286 286 284 287 286 288 288 289 289 289
298 296 296 296 298 298 292 292 290 292 294 296 297 296 296 296 296 295 296 295 296 296 294 291 290 292 293 293 290 288 287 285 285 286 287 282 286 285 287 288 288 289 289
299 299 300 298 297 297 292 291 291 296 294 294 294 295 294 294 293 292 293 293 294 294 293 291 291 290 285 284 284 287 284 282 282 282 287 284 284 284 286 286 288 288 287
298 298 297 296 294 297 292 291 291 293 291 292 293 294 291 292 290 289 292 291 290 292 293 293 291 288 286 287 284 285 284 282 282 282 285 283 282 283 280 285 286 287 288

GFSMA_sfc_thetae_042.txt.gz
Theta_e
329 326 325 325 323 325 323 321 319 318 315 315 313 309 308 308 307 309 310 320 321 321 324 324 323 321 319 318 314 313 312 311 311 310 309 309 308 308 308 307 307 307 307
329 328 328 327 325 324 323 321 319 316 314 313 309 307 306 307 307 307 310 313 320 323 322 324 323 321 319 317 313 311 311 308 308 307 308 308 308 309 309 307 306 307 306
330 329 326 325 325 324 323 320 317 314 312 310 307 306 307 306 307 306 307 311 315 318 320 324 322 319 317 314 312 311 308 307 306 307 307 307 308 309 308 307 307 308 307
331 328 327 325 324 322 320 318 316 313 311 308 306 305 305 305 304 305 307 307 310 311 314 317 316 314 312 310 308 307 306 305 305 306 306 306 305 306 306 306 306 306 306
330 329 327 326 324 322 320 318 314 312 308 306 307 305 305 304 304 305 305 306 305 307 309 313 313 312 310 308 306 302 302 303 303 304 304 303 304 304 304 304 304 304 305
331 329 328 325 322 320 318 316 311 309 308 307 308 305 306 305 303 302 303 305 303 304 304 306 305 305 309 305 303 301 301 301 302 302 302 302 302 303 303 303 303 304 304
329 327 326 324 322 319 317 316 312 307 305 307 305 307 305 305 303 302 303 302 301 302 300 300 300 300 301 305 303 301 301 300 299 300 301 301 302 302 302 302 303 303 303
328 327 325 322 321 318 317 313 311 307 308 308 304 303 300 300 302 303 302 302 299 301 301 301 300 299 298 297 298 302 302 299 297 298 299 300 300 301 302 302 302 302 302
328 326 326 322 320 319 314 313 311 308 305 306 306 302 297 295 297 301 301 300 300 299 299 300 300 299 299 297 299 299 299 298 298 297 297 299 300 300 300 300 300 300 300
327 324 323 321 320 318 314 313 313 310 308 305 306 308 305 300 294 292 298 299 300 300 299 298 298 299 299 298 302 299 300 298 296 295 296 297 298 298 298 298 298 299 299
324 324 320 318 318 317 317 312 310 310 310 304 306 305 303 300 299 295 291 295 298 298 299 299 298 298 299 297 296 298 298 296 295 294 295 296 296 297 297 297 297 298 298
320 320 319 318 318 317 313 311 310 310 306 304 303 302 302 299 296 295 293 294 293 295 298 298 297 296 296 296 300 299 297 295 294 294 294 294 295 295 296 296 296 297 297
318 318 318 317 314 312 311 309 310 308 306 302 302 303 301 301 301 299 294 292 291 294 295 297 296 296 298 296 296 297 296 295 295 295 294 293 293 294 294 294 294 295 296
319 319 318 312 310 309 309 309 309 307 305 303 304 301 300 301 301 298 294 292 289 290 292 293 297 297 296 295 296 299 294 296 296 295 293 292 293 293 292 292 292 293 293
318 313 311 309 308 309 308 306 304 304 303 302 302 301 301 302 300 298 297 295 291 286 287 292 292 295 295 295 295 292 292 297 295 294 293 293 293 292 291 291 291 291 291
312 310 309 307 307 307 306 304 304 303 302 301 301 301 300 301 300 298 296 296 295 292 286 291 290 292 294 294 295 291 291 296 295 294 294 294 294 291 290 290 290 290 290
312 310 308 307 306 305 305 303 302 301 300 300 300 299 299 301 299 297 296 296 294 292 287 288 290 291 291 290 291 291 292 289 289 294 294 293 293 291 290 289 289 289 289
312 311 309 307 306 305 304 302 301 298 299 297 298 299 299 300 298 296 295 293 292 291 289 286 289 289 289 290 289 288 291 291 287 293 293 293 292 291 290 290 290 289 289
312 311 309 306 304 304 302 299 298 299 298 298 298 298 298 297 296 294 294 293 293 295 291 288 288 289 289 288 287 288 287 287 290 293 293 292 292 292 291 291 290 290 290
309 307 305 304 302 300 299 298 298 297 296 297 298 297 298 297 295 294 294 292 294 293 292 290 289 288 287 288 287 284 283 285 284 288 289 289 290 291 292 292 291 291 291
308 304 301 299 298 297 298 298 297 296 296 296 297 297 297 296 296 295 295 293 291 291 290 288 288 287 287 285 284 284 282 282 283 283 282 282 283 283 284 288 290 292 291
300 298 297 297 296 296 293 295 296 296 296 296 294 295 296 295 295 293 293 293 292 291 289 289 289 288 286 286 286 284 281 280 278 283 281 280 282 281 284 284 289 289 288
297 296 296 296 295 296 293 293 292 294 294 293 291 293 293 296 294 293 292 291 289 290 290 291 288 288 288 288 285 284 282 280 279 280 280 278 280 281 283 286 289 289 289
296 296 295 296 295 296 292 292 291 292 293 293 293 293 291 290 291 291 290 288 289 290 291 290 289 289 289 289 287 288 285 282 280 280 281 278 280 280 281 282 288 289 289
296 295 296 297 297 294 292 291 291 291 291 289 292 291 290 289 290 290 287 286 287 288 291 291 291 291 290 290 289 286 281 278 274 278 281 280 280 278 279 279 281 288 287
298 297 296 296 294 295 292 291 290 286 285 283 286 287 288 287 288 286 282 281 281 284 286 287 288 288 288 286 287 286 283 280 277 275 281 280 278 277 274 279 279 280 280

GFSMA_sfc_thetae_045.txt.gz
Theta_e
321 321 321 320 320 319 314 317 315 314 311 310 307 305 304 304 307 307 310 322 323 324 325 325 324 322 321 318 315 314 313 312 311 309 309 309 308 309 309 307 307 307 307
323 322 323 321 319 320 319 316 315 313 311 308 304 304 303 304 304 307 307 312 320 322 324 324 324 321 322 317 313 313 311 309 308 308 308 308 309 310 309 308 308 308 307
325 324 324 323 321 319 319 316 314 311 307 307 303 303 304 304 303 303 307 311 313 320 322 326 323 320 320 317 314 313 309 308 306 306 307 308 307 307 307 306 307 307 307
326 325 322 321 322 318 316 314 311 309 307 304 302 301 302 302 302 303 307 309 310 310 317 322 322 320 318 316 313 310 308 306 305 305 305 305 304 304 304 304 304 305 305
328 324 323 322 319 317 316 315 312 309 304 303 302 302 302 302 301 304 303 304 307 307 308 316 315 315 314 312 311 309 306 304 303 303 303 303 303 303 303 303 304 304 304
326 325 324 322 319 317 315 313 309 306 304 303 307 303 301 302 300 300 301 304 303 307 305 306 306 307 313 311 309 305 303 303 302 302 301 302 302 302 303 303 303 303 303
326 325 323 320 318 316 314 312 308 304 301 303 301 302 302 301 300 299 300 299 300 300 303 303 301 300 304 309 306 304 304 303 301 300 300 300 300 301 302 302 302 302 302
325 324 321 319 317 316 313 310 307 304 302 303 301 300 297 298 299 299 298 299 297 298 298 299 298 298 297 297 298 304 305 303 301 300 299 298 299 300 301 301 301 301 301
326 325 322 320 318 316 312 309 308 305 301 303 303 300 295 293 295 298 298 297 296 296 297 298 298 297 296 295 300 303 305 302 301 301 299 298 299 300 300 299 299 300 300
325 324 321 319 319 318 313 311 311 308 308 305 304 305 301 298 293 291 296 297 297 297 296 296 297 297 296 295 299 300 302 302 301 300 300 299 298 299 299 298 298 298 299
323 322 320 318 316 315 313 312 311 310 309 306 304 303 302 300 297 296 290 293 296 296 297 296 296 296 296 296 294 299 301 300 300 299 299 298 298 298 297 298 298 298 298
318 321 319 316 315 314 313 312 310 309 307 307 304 302 301 299 299 296 291 292 291 293 296 296 296 295 295 295 298 301 301 299 298 298 298 298 297 296 297 297 296 296 297
317 317 317 315 315 313 312 309 309 308 307 304 303 302 301 300 300 299 295 291 291 291 294 296 295 294 296 294 295 301 301 298 298 297 297 297 296 296 295 295 295 294 295
319 317 316 314 315 313 310 308 309 307 307 305 302 302 300 301 300 298 295 292 288 288 289 292 296 297 294 292 295 301 297 297 296 297 297 296 295 294 294 294 293 293 293
316 315 314 311 310 310 308 307 307 306 305 303 302 300 300 301 299 298 297 295 291 284 285 289 290 294 292 293 294 295 291 297 296 296 296 296 294 295 294 293 292 292 292
312 312 311 309 307 307 307 306 304 304 303 302 301 300 300 299 300 300 299 296 294 289 285 288 289 290 291 293 293 292 290 296 297 296 295 294 295 295 294 292 292 291 291
310 310 309 306 307 306 305 304 304 302 301 300 300 299 299 300 299 299 298 296 293 292 289 288 288 289 288 289 290 290 291 291 290 295 295 295 294 294 294 293 292 291 291
311 309 308 307 306 305 304 303 302 301 300 298 298 298 298 300 298 296 295 294 291 291 290 288 286 287 288 288 288 287 290 291 289 293 295 294 294 293 293 292 291 291 291
311 310 308 307 305 304 303 302 299 298 298 298 298 298 297 297 294 293 292 291 290 294 293 290 290 287 289 287 287 287 286 286 288 292 293 293 293 293 293 292 292 291 292
309 308 307 305 304 302 300 299 298 297 297 297 298 298 298 297 295 292 292 291 292 292 292 290 291 291 288 289 288 288 286 284 286 288 290 288 289 291 292 293 292 292 292
308 305 303 301 300 298 298 298 297 296 296 295 296 297 297 296 295 294 294 292 289 288 288 288 288 287 285 284 284 287 284 286 283 284 281 281 282 282 282 287 288 290 290
302 300 298 298 296 297 293 294 295 295 295 295 295 294 295 294 293 292 292 292 291 290 288 287 287 286 287 285 287 285 284 283 281 282 280 279 282 280 281 282 287 289 290
297 296 296 296 295 295 293 293 293 295 294 293 293 293 293 294 292 290 288 288 287 289 288 286 285 286 287 288 286 285 285 285 284 284 283 281 280 278 281 285 288 290 289
294 291 292 293 294 295 292 292 290 292 292 293 293 292 288 286 287 286 284 283 283 285 286 287 286 286 287 288 288 288 287 288 287 284 282 280 278 278 280 281 286 289 288
293 292 293 292 291 291 291 291 292 292 291 286 287 286 285 284 287 286 282 280 279 279 283 285 285 286 287 288 288 287 285 284 283 281 281 279 277 277 278 278 280 286 287
293 294 294 295 293 293 290 290 289 283 281 280 281 283 285 284 285 285 280 279 277 278 279 280 281 282 284 284 287 287 286 284 283 279 281 279 278 277 274 277 278 279 278

GFSMA_sfc_thetae_048.txt.gz
Theta_e
319 318 316 316 316 315 313 315 313 311 308 306 304 304 304 308 309 311 313 324 326 327 325 325 324 323 321 317 317 315 313 312 311 310 310 308 309 310 309 308 308 308 308
319 319 317 316 317 316 314 315 312 310 308 304 303 303 303 305 306 306 307 311 320 324 326 324 324 324 322 317 315 314 312 310 308 309 308 308 309 308 308 307 307 307 307
320 321 319 318 317 318 316 314 313 310 308 305 302 302 302 302 304 305 306 310 313 319 321 326 324 322 322 318 314 314 310 309 307 307 307 308 306 306 305 305 305 305 305
324 321 320 320 320 317 317 314 311 307 305 302 300 299 301 301 301 303 307 309 309 311 320 324 324 322 321 319 316 315 310 308 306 305 306 305 304 304 304 304 304 304 304
325 323 321 320 319 317 314 313 310 308 304 302 301 300 300 300 300 303 305 307 307 307 310 319 320 320 320 318 316 313 311 307 305 305 304 302 302 303 303 303 303 303 303
323 322 321 321 317 315 313 311 309 306 303 302 304 302 298 299 299 300 302 304 305 306 306 307 308 309 315 315 314 312 309 306 305 305 302 301 301 301 301 302 302 303 303
324 322 321 320 317 315 314 312 307 303 301 302 301 300 301 300 298 298 299 299 302 305 304 304 303 302 307 315 312 310 308 306 305 304 302 302 300 299 300 301 302 301 301
321 324 322 320 317 314 312 310 306 302 301 302 299 299 297 298 299 298 297 298 297 300 302 303 301 301 300 301 301 309 308 307 306 305 303 302 300 299 300 300 300 300 300
319 323 322 320 317 316 313 311 306 304 303 305 304 301 296 296 294 296 297 297 296 295 296 298 299 298 298 297 302 305 308 308 306 305 304 303 301 300 300 299 300 300 300
322 323 322 319 318 316 313 312 309 305 305 304 304 305 302 299 295 292 296 296 296 295 295 295 296 296 297 295 299 301 305 305 305 305 305 303 303 301 300 299 299 299 299
322 322 321 318 317 319 315 310 308 308 308 307 305 304 302 300 299 295 292 293 295 296 295 295 295 295 295 294 294 298 304 303 303 304 304 304 303 302 300 299 299 299 298
322 321 320 320 319 318 315 311 310 308 308 305 305 304 303 301 298 295 293 294 294 294 296 295 295 295 295 294 297 300 303 301 302 303 303 303 302 301 300 300 299 298 297
317 319 319 318 316 315 312 312 310 308 307 306 305 303 304 302 300 299 297 294 292 293 294 294 294 294 296 294 294 301 303 300 300 302 302 301 300 300 299 298 298 297 296
318 320 319 316 314 315 311 309 309 308 307 306 305 304 303 301 300 299 296 294 289 290 291 293 293 293 293 293 293 301 298 300 299 299 300 300 299 299 298 297 296 295 294
316 315 316 314 313 313 310 307 308 307 306 305 304 302 300 301 300 298 297 295 291 289 288 288 289 292 292 291 293 295 295 299 299 298 297 298 299 298 297 296 296 294 294
316 314 313 313 310 309 309 307 306 306 305 303 302 300 299 300 300 300 299 299 296 292 288 288 288 290 291 292 292 293 293 297 298 296 296 297 297 298 297 296 295 294 293
315 314 313 310 309 308 308 306 305 304 303 300 300 300 299 300 299 299 299 298 295 294 292 293 288 288 287 288 290 291 292 291 292 297 296 296 295 295 295 296 295 294 293
314 313 311 308 308 307 306 304 303 303 301 298 299 299 298 301 298 298 297 295 294 292 291 288 287 286 287 288 288 287 290 292 291 293 297 296 295 294 294 294 294 293 293
312 311 310 308 307 306 304 304 303 301 300 299 299 298 298 298 296 295 293 292 290 292 290 288 289 288 287 288 288 288 289 289 291 294 294 295 295 295 294 293 293 293 293
311 309 309 308 306 305 303 301 299 298 298 298 299 298 297 297 296 294 293 290 291 288 288 288 289 289 287 289 286 288 288 285 287 290 292 292 293 294 294 294 293 293 293
310 308 306 305 303 301 300 298 298 298 297 297 297 297 297 297 295 293 291 290 288 287 286 286 286 286 284 283 282 285 285 288 288 285 286 287 288 288 287 292 290 293 292
306 304 303 300 298 298 293 294 296 296 296 295 294 295 295 295 294 291 289 289 287 283 281 281 282 282 284 283 285 284 285 284 284 285 282 283 285 282 284 284 287 289 289
302 299 298 297 296 296 293 293 293 295 294 294 293 293 294 292 288 286 286 285 285 286 286 282 280 280 282 282 284 285 285 285 284 287 282 284 281 284 285 286 288 289 289
299 297 296 296 296 295 292 292 291 292 292 292 292 288 287 284 285 284 282 280 280 280 280 280 278 279 280 281 281 282 282 282 284 287 285 283 285 283 286 283 287 289 289
294 294 294 294 293 292 291 290 292 291 289 287 286 285 284 282 284 285 280 279 278 279 283 284 285 285 285 286 285 283 281 280 278 281 282 285 284 281 280 280 281 287 288
292 292 290 290 290 290 290 291 289 286 282 280 281 281 283 282 283 282 279 277 277 278 279 279 280 282 283 283 285 283 282 280 280 280 281 281 279 280 279 279 279 279 278

GFSMA_sfc_thetae_054.txt.gz
Theta_e
320 319 318 315 314 313 311 308 306 306 306 308 311 313 314 315 316 317 319 325 326 326 326 326 325 323 321 319 317 317 315 314 312 312 311 311 310 309 308 308 307 307 307
318 318 316 314 312 312 311 308 306 303 302 303 306 308 310 312 312 314 315 319 323 325 326 326 325 324 323 320 317 315 314 312 311 311 310 310 308 307 306 306 306 306 306
316 316 314 313 312 311 311 308 306 302 300 301 302 305 306 305 306 307 310 312 315 320 324 327 326 325 323 320 318 316 313 312 310 310 311 308 306 305 305 304 304 304 304
317 315 313 313 313 312 312 309 307 304 300 300 299 300 302 303 304 304 306 308 310 311 318 323 326 326 324 321 318 317 314 312 310 309 310 308 305 304 304 303 302 302 303
318 316 315 314 315 313 312 310 307 306 301 299 299 299 300 300 301 305 304 307 307 310 311 318 323 323 325 323 320 318 317 314 311 310 309 307 305 304 303 301 301 301 302
320 318 317 316 315 314 311 309 306 305 304 301 301 299 298 299 299 300 304 307 306 308 310 314 318 318 321 324 322 320 318 317 313 311 310 308 305 304 302 300 300 301 301
323 320 319 318 316 313 313 310 307 304 302 302 300 300 300 299 299 298 300 304 305 306 307 310 311 311 314 321 321 319 317 316 315 313 310 309 306 305 302 301 300 300 300
321 321 319 317 315 313 311 309 306 303 303 301 299 298 297 299 300 300 298 300 301 303 305 306 307 307 307 309 312 318 315 315 315 313 311 310 307 306 304 303 302 301 300
317 319 319 317 315 313 311 309 307 304 302 301 302 302 296 296 297 298 298 297 298 299 302 304 304 304 304 304 308 312 315 314 314 312 311 310 308 307 306 305 304 302 301
317 317 318 318 316 314 312 311 310 306 305 303 304 304 302 300 297 296 297 300 299 299 298 301 303 304 303 302 303 305 306 309 311 312 311 311 310 309 308 306 305 304 303
316 317 315 315 316 315 314 313 311 308 308 307 305 303 302 300 298 298 297 297 297 299 298 298 300 300 300 300 299 300 304 305 307 310 311 310 310 310 309 308 307 306 304
311 314 315 315 315 315 313 312 311 310 309 309 308 307 303 301 299 298 297 297 296 298 299 299 298 298 298 297 299 301 302 302 304 307 309 310 310 309 309 309 308 307 306
310 312 312 313 313 314 314 314 313 313 311 310 309 308 307 305 304 301 299 297 296 296 295 296 297 299 299 298 298 301 302 301 301 303 305 307 309 309 309 308 308 307 306
311 312 314 315 314 315 315 316 316 314 313 311 310 309 307 305 303 301 299 297 292 292 292 294 295 297 297 296 297 299 298 299 300 301 302 304 305 306 307 307 307 306 306
313 312 314 316 317 318 317 317 317 315 312 311 310 307 306 305 303 301 298 298 296 291 291 294 295 295 295 295 294 296 294 296 298 299 299 301 303 304 304 305 305 305 305
312 312 312 314 316 318 318 318 316 313 309 307 308 306 304 302 301 298 298 298 298 295 293 296 294 294 294 293 294 295 293 296 297 297 297 298 300 301 302 303 303 304 304
313 314 313 314 315 315 315 313 314 311 309 307 306 305 303 300 299 299 299 298 297 296 293 295 294 294 292 292 292 292 292 291 292 295 296 297 297 298 298 299 299 301 301
317 317 317 316 316 314 312 311 310 308 307 304 303 302 300 300 299 299 298 297 296 295 293 289 291 290 290 291 290 289 291 293 292 293 295 295 296 296 296 296 296 297 298
317 317 318 316 316 314 312 311 311 309 307 305 302 301 300 300 298 297 296 294 293 293 292 289 289 290 289 288 288 289 289 290 291 294 294 294 294 295 295 295 296 296 296
317 318 316 317 316 314 312 311 309 307 305 303 303 302 300 300 298 296 294 293 292 291 290 289 288 288 286 287 285 284 284 286 285 287 290 291 291 293 293 293 294 295 295
318 318 318 317 314 312 309 308 307 305 303 301 300 300 300 299 296 295 294 291 290 288 287 286 284 282 281 281 281 282 281 281 282 284 284 286 287 287 287 289 290 292 292
318 319 316 314 310 308 300 298 303 302 301 300 297 297 297 295 293 292 291 289 288 285 283 281 280 279 278 279 280 279 279 278 277 283 282 282 284 284 285 286 288 289 290
317 312 310 309 308 308 298 295 295 299 298 297 296 295 294 291 289 287 286 286 284 285 284 280 277 278 278 279 278 278 278 278 278 281 282 280 283 282 284 285 287 289 290
309 307 303 304 301 297 294 293 293 296 295 295 294 292 288 286 285 284 283 281 280 280 280 280 279 279 280 280 280 281 281 281 281 282 283 278 282 281 284 285 287 288 290
301 300 299 298 297 293 292 292 293 292 289 287 287 287 285 284 285 285 281 280 279 280 283 282 281 281 281 281 281 280 278 277 275 277 280 279 280 281 283 284 286 286 288
296 295 293 295 292 291 291 291 290 288 284 283 283 283 284 283 283 282 280 279 279 278 278 278 278 278 278 279 279 278 277 274 273 274 280 277 278 279 279 283 281 283 284

GFSMA_sfc_thetae_057.txt.gz
Theta_e
324 324 323 321 320 321 322 321 322 323 322 323 323 323 323 324 325 324 325 325 326 327 327 327 325 322 320 319 318 317 316 315 314 313 313 311 310 309 309 308 308 308 308
325 322 321 320 320 318 318 319 320 321 321 321 322 322 322 323 325 325 325 325 324 327 327 326 326 325 323 320 319 317 315 314 313 312 312 310 309 308 307 307 306 305 306
325 324 320 319 320 319 318 315 316 317 317 318 319 319 320 321 322 324 324 324 324 323 325 328 327 325 324 322 319 317 315 313 312 311 312 309 308 306 305 305 304 303 304
325 324 320 320 321 319 317 314 312 311 311 312 313 314 316 316 317 318 320 322 323 323 321 324 326 327 324 322 320 318 315 314 311 310 311 309 306 305 305 303 302 302 302
323 323 322 322 321 320 318 316 313 312 309 309 310 312 312 312 312 311 313 314 317 319 321 321 323 324 325 323 321 320 319 316 313 311 310 309 307 306 304 302 301 301 302
323 324 323 322 321 320 318 317 315 314 311 309 305 306 308 309 309 310 312 312 314 316 316 318 323 323 322 325 323 321 320 319 316 313 312 311 308 307 306 303 302 302 301
323 323 323 322 321 320 320 319 317 314 311 310 307 307 307 308 309 309 310 312 313 314 315 316 318 321 322 323 324 322 320 318 318 317 314 312 310 308 307 305 304 303 302
323 324 323 323 322 321 321 320 318 315 314 310 309 309 307 308 309 309 309 308 312 311 311 314 317 319 320 319 320 322 320 318 317 316 316 314 312 311 309 307 305 304 304
325 325 325 325 323 323 322 321 319 317 313 311 312 313 307 307 309 310 309 307 306 308 309 310 313 312 316 318 318 318 316 316 316 314 315 314 313 312 310 309 308 306 305
321 324 323 323 322 322 321 321 320 318 317 314 310 310 312 311 307 306 303 309 308 304 310 309 311 312 311 315 314 311 308 308 312 315 314 313 313 313 312 311 310 308 307
320 319 320 321 323 323 324 322 320 317 318 316 314 312 310 305 306 308 306 304 305 303 309 309 308 309 310 309 310 307 306 305 307 310 312 313 312 312 312 312 311 310 309
316 317 317 317 322 324 324 324 323 321 319 318 317 312 307 304 304 304 305 307 307 307 309 309 308 306 303 303 304 304 303 302 303 305 307 309 310 312 311 311 311 311 311
314 316 319 319 322 323 323 324 323 322 321 320 319 315 309 308 309 306 305 304 307 306 306 305 306 304 301 303 301 302 303 301 302 303 304 305 306 308 309 309 310 310 310
316 320 319 320 321 322 322 323 324 323 322 321 320 315 312 312 314 310 309 302 297 298 302 299 299 304 303 305 304 300 301 300 300 300 301 303 303 304 306 307 308 309 309
318 318 319 320 321 321 322 322 323 322 321 320 317 316 314 314 313 309 310 308 307 300 294 298 301 302 303 303 301 300 302 301 297 298 298 299 301 302 303 304 305 306 307
319 319 319 320 321 321 322 322 323 322 319 318 317 315 314 313 310 308 307 308 306 305 302 302 299 298 299 298 301 303 303 296 298 296 296 297 298 299 300 301 302 302 303
319 318 318 318 319 320 322 323 322 320 317 316 318 316 318 315 309 305 305 305 301 303 301 296 297 297 300 298 300 301 300 300 300 296 295 296 296 297 297 297 298 299 299
320 319 320 319 320 321 320 321 319 318 316 314 314 312 313 309 309 306 301 301 301 303 296 296 297 294 295 296 296 298 298 297 298 296 295 295 295 295 295 295 295 295 296
317 320 321 321 319 319 317 315 317 316 314 313 312 310 310 307 304 304 301 302 300 296 296 292 292 293 293 293 295 296 295 295 293 292 291 291 292 293 292 292 293 293 294
316 318 319 320 321 321 318 316 314 314 313 311 310 310 308 304 303 301 300 297 294 296 292 294 291 290 292 295 294 291 289 290 288 288 289 289 289 290 291 292 291 291 291
316 318 319 318 320 320 319 319 315 313 311 308 307 306 306 303 299 299 297 295 293 292 290 290 288 288 290 290 288 288 285 286 287 288 288 289 289 289 289 289 290 290 290
319 319 320 318 318 318 305 301 308 312 310 308 303 302 300 298 295 293 293 292 294 291 288 287 287 288 288 287 286 285 284 283 282 289 286 286 287 286 288 289 288 288 289
320 320 319 319 318 319 300 299 299 309 306 303 299 298 296 294 291 289 288 287 286 285 286 286 286 284 285 285 285 283 283 283 283 286 285 283 286 285 287 287 288 288 288
319 318 317 316 315 311 298 298 295 301 299 298 297 295 292 289 288 286 284 282 282 282 282 282 284 285 286 286 284 284 283 284 284 284 284 280 285 284 287 288 288 288 289
308 304 303 302 301 296 295 293 295 295 292 290 291 290 288 286 286 287 284 281 281 281 283 282 281 281 280 280 281 282 281 279 279 280 282 281 283 283 284 285 289 288 287
298 297 295 295 293 293 291 292 292 289 286 285 285 285 286 285 285 284 283 281 280 281 281 280 281 280 280 280 279 281 280 277 278 278 283 280 280 281 280 285 288 289 290

GFSMA_sfc_thetae_060.txt.gz
Theta_e
328 327 329 331 331 331 331 329 329 328 326 324 324 324 325 326 327 326 326 326 327 327 326 325 323 322 321 320 318 317 316 315 315 315 313 311 310 310 309 309 309 308 308
327 325 326 325 327 329 330 328 326 325 324 324 323 324 324 325 326 327 325 326 326 327 328 327 325 324 323 321 319 317 316 316 314 315 312 310 309 308 308 307 306 306 306
328 327 324 324 324 326 326 326 325 325 323 322 322 323 323 324 325 326 326 326 325 324 326 328 327 325 324 323 321 318 316 315 314 313 313 310 308 307 306 305 304 304 304
325 325 323 323 323 323 323 323 323 322 321 320 320 320 321 322 323 324 324 324 324 323 323 326 327 327 325 323 321 319 317 315 314 313 314 311 308 307 306 304 303 302 302
325 324 323 325 325 322 322 321 320 319 317 317 317 318 319 318 320 318 319 322 323 323 323 323 325 325 326 325 323 321 320 317 315 314 314 312 310 308 307 304 303 302 302
326 325 323 325 325 323 322 322 320 319 317 316 312 314 316 316 317 316 316 316 318 320 321 322 324 323 323 325 324 323 322 321 318 316 314 314 311 309 308 306 304 304 303
326 326 325 326 326 324 324 324 322 320 317 317 312 312 312 315 315 314 316 316 317 318 319 319 319 321 324 324 325 324 323 323 322 319 316 314 313 311 310 309 307 305 305
326 326 325 325 325 325 325 325 323 320 319 317 315 316 311 312 313 314 315 315 317 317 317 318 317 318 320 322 322 324 323 322 320 320 320 317 315 313 312 310 309 308 306
328 325 325 326 326 325 324 325 324 322 319 319 320 318 314 312 317 317 315 315 315 316 317 317 315 318 319 320 319 320 320 320 321 318 317 319 318 316 314 313 311 310 309
327 326 324 327 327 327 325 326 326 324 324 320 319 319 321 319 314 312 315 314 315 309 314 313 315 317 317 318 317 314 313 313 315 317 316 314 314 314 316 314 314 312 312
325 325 325 328 328 328 328 327 326 324 324 323 321 320 318 318 315 311 308 312 311 312 313 314 315 316 317 317 317 315 309 307 308 310 313 314 314 314 313 314 314 314 313
324 325 325 328 328 326 323 320 324 326 326 324 324 323 320 316 314 312 306 307 309 312 311 315 317 317 316 315 314 309 306 304 304 306 308 308 309 310 311 312 313 313 313
321 322 324 326 324 323 322 321 324 327 328 325 325 323 322 321 321 316 308 306 309 309 314 316 314 314 314 315 311 306 305 302 302 303 304 305 306 306 307 308 309 311 311
320 320 319 323 323 321 322 326 325 324 326 326 326 325 324 324 323 318 313 306 303 307 312 312 314 313 314 312 310 303 308 301 300 300 301 302 303 303 304 304 305 306 306
318 318 318 320 323 324 324 324 325 324 326 326 325 326 325 325 323 320 314 312 307 304 307 312 309 311 308 311 307 306 308 303 300 298 298 299 300 301 301 302 303 303 304
324 322 321 321 322 323 323 323 324 325 325 326 325 324 325 324 324 320 316 311 310 309 305 314 309 307 307 304 299 303 309 299 299 298 297 297 298 299 299 299 299 299 300
325 324 323 322 321 322 323 324 324 323 323 325 326 326 323 319 317 315 313 312 309 309 306 310 305 307 299 300 302 303 306 305 306 298 296 296 296 296 296 297 296 297 296
326 325 324 324 323 323 325 324 324 322 323 324 324 323 320 316 316 314 310 307 308 310 307 304 298 304 302 299 300 303 303 301 303 299 295 295 294 294 294 294 295 295 294
324 323 323 324 324 324 324 324 323 323 324 321 319 319 317 314 311 310 307 307 307 303 305 299 301 295 297 299 296 299 299 303 300 297 292 292 292 292 293 292 292 293 293
321 321 323 323 322 323 322 323 322 323 321 318 316 316 316 313 312 310 307 306 302 298 300 296 294 294 293 296 296 295 298 299 295 293 292 290 291 291 291 292 292 292 291
321 321 321 322 323 321 321 323 321 321 318 316 318 315 314 311 306 308 304 302 300 296 295 293 291 291 290 291 291 294 294 293 292 293 292 293 293 292 292 292 292 291 291
320 320 320 320 321 321 308 302 312 323 319 317 315 313 313 303 302 296 296 296 297 296 293 290 289 289 290 291 293 291 290 288 286 293 290 290 291 290 291 292 291 289 289
321 320 321 321 322 324 303 300 300 320 317 316 314 310 303 301 298 295 290 288 287 289 291 291 288 289 289 289 290 289 288 287 287 289 289 287 290 289 292 290 290 290 289
321 321 322 322 320 319 302 299 298 312 314 311 308 303 299 295 294 290 289 285 285 285 285 285 288 287 288 288 288 288 288 287 287 287 288 283 288 287 290 290 289 289 289
321 321 321 322 321 318 298 298 298 300 296 293 294 294 293 289 289 289 284 283 282 282 284 284 283 282 282 281 283 286 284 283 282 284 286 284 286 286 286 287 290 290 289
318 305 297 298 294 297 292 294 297 294 289 287 287 288 288 288 286 286 285 284 281 280 281 280 280 280 281 282 280 283 283 281 281 281 286 283 284 283 282 286 288 288 290

GFSMA_sfc_thetae_063.txt.gz
Theta_e
333 333 334 333 329 330 329 327 327 325 324 325 326 327 326 327 327 325 326 326 327 327 325 325 324 323 321 319 318 317 316 316 316 315 313 312 311 311 310 309 309 308 307
330 331 332 332 330 331 330 328 327 325 323 324 324 325 326 327 327 327 325 326 326 327 327 325 325 324 323 321 319 318 317 316 316 314 313 311 310 310 309 308 307 306 306
330 331 331 332 331 331 331 329 327 326 322 322 323 324 325 326 326 327 325 325 325 325 327 327 326 325 324 322 320 319 318 317 315 316 313 311 310 309 307 306 305 305 305
328 329 327 328 328 330 328 325 324 323 322 321 322 322 323 324 326 326 326 325 324 324 325 326 327 327 326 324 323 321 318 317 316 315 315 312 310 309 307 306 304 303 303
327 327 326 327 329 327 327 325 325 324 321 320 320 321 322 322 323 323 324 325 326 324 324 324 325 325 326 326 324 323 321 318 317 316 316 314 312 310 309 307 305 304 303
325 325 325 327 324 323 322 324 324 323 321 319 317 317 320 320 321 320 320 321 323 323 324 326 325 324 323 325 325 324 323 321 319 318 316 316 314 312 310 309 307 306 305
324 325 325 326 326 322 322 326 322 321 318 319 314 315 316 318 318 318 318 318 318 319 321 321 324 322 324 324 326 325 325 324 323 321 318 317 316 314 312 311 310 308 307
326 327 326 325 325 325 327 325 325 320 319 319 313 312 310 313 316 317 317 317 321 318 318 321 321 322 323 325 324 325 325 324 324 324 321 319 317 316 315 313 312 311 309
325 327 328 327 327 328 326 327 327 325 319 320 321 317 312 310 315 317 318 318 320 319 318 319 320 319 321 321 324 323 320 321 324 324 324 322 321 318 316 316 314 313 312
326 326 324 325 328 327 327 328 327 327 325 320 320 319 323 321 315 312 317 319 319 314 315 314 316 318 319 320 320 317 316 315 318 322 322 321 320 320 319 318 317 316 315
323 322 325 323 324 328 328 329 328 327 327 323 323 321 320 320 322 317 313 313 315 315 315 311 311 316 319 320 321 319 311 312 313 318 319 319 317 316 315 315 315 316 315
321 325 325 324 323 324 325 327 327 328 326 325 325 325 322 318 317 316 313 317 316 316 316 315 312 314 319 321 318 313 309 307 308 311 313 313 313 314 313 313 313 313 314
321 325 326 326 326 325 323 326 327 327 328 326 326 325 324 323 323 320 318 315 315 317 317 317 315 314 319 321 319 312 308 304 304 306 307 308 308 308 308 309 309 309 310
322 325 327 326 326 324 322 325 325 324 325 326 326 327 325 324 325 323 319 316 313 312 314 314 316 318 318 317 316 306 313 303 302 302 304 305 305 305 305 305 305 305 306
324 325 325 325 325 325 326 325 322 320 323 321 325 326 325 325 324 325 324 322 318 311 311 315 311 317 316 318 313 311 309 303 301 301 300 301 302 302 302 302 303 303 303
325 325 326 325 324 322 321 324 322 322 322 324 324 324 325 325 325 326 324 322 319 316 309 316 315 317 313 311 309 309 310 302 301 299 298 298 299 300 300 300 300 300 300
325 325 323 323 323 322 322 321 324 324 323 323 325 325 323 325 325 326 324 323 319 314 309 313 307 308 310 306 305 306 308 308 307 299 298 297 296 296 296 297 296 296 295
326 326 326 323 322 323 323 322 322 323 323 322 323 324 323 323 324 325 323 318 316 313 309 307 305 304 302 302 302 304 304 305 307 302 299 297 296 295 294 293 293 294 294
327 326 326 325 325 324 324 324 324 323 324 324 324 323 323 323 323 319 316 313 312 309 308 307 305 301 300 302 300 299 301 301 303 302 296 294 294 293 292 293 293 293 293
327 325 324 325 326 325 325 325 324 324 324 324 324 324 324 323 321 317 315 312 311 308 307 305 303 296 297 297 296 295 295 299 299 302 298 293 293 293 293 292 292 292 292
326 327 326 327 326 326 324 325 325 324 324 323 323 323 322 317 309 311 314 313 309 306 304 301 299 292 292 292 292 293 292 294 297 298 295 294 294 294 294 292 292 293 293
326 326 325 324 325 323 309 303 313 324 323 322 321 322 319 308 307 300 300 301 307 305 300 298 296 294 293 291 291 290 289 288 287 295 293 292 294 291 293 294 292 291 290
326 324 324 324 323 324 304 301 299 320 322 323 321 319 318 315 305 310 293 290 289 290 291 297 294 291 288 290 290 287 287 287 287 291 291 289 292 290 292 291 291 290 290
324 323 323 324 323 323 302 300 298 315 319 321 321 320 317 311 301 295 290 287 285 286 286 288 288 286 287 288 287 287 287 288 289 289 290 284 289 288 291 291 291 290 290
324 324 324 323 321 322 300 296 299 311 310 298 295 296 295 292 291 291 286 284 283 282 285 286 285 284 284 283 282 287 284 284 284 284 289 287 287 286 289 288 289 290 290
323 321 311 301 294 299 292 293 297 295 289 287 287 287 287 288 287 288 287 286 281 280 281 280 281 281 282 280 280 283 284 282 282 281 286 284 284 284 282 287 288 289 288

GFSMA_sfc_thetae_066.txt.gz
Theta_e
330 329 325 324 323 324 322 319 320 320 320 319 322 322 324 323 321 321 321 326 326 326 325 325 324 323 321 320 318 318 318 317 316 314 313 313 312 312 311 310 309 309 309
330 329 327 322 323 323 324 320 323 320 319 320 321 322 324 323 321 321 321 322 325 326 325 324 324 323 322 321 319 318 318 317 316 314 313 312 311 311 310 309 308 307 307
328 329 328 325 325 324 324 323 324 321 319 319 320 321 322 322 322 321 321 321 322 325 325 326 325 324 323 322 320 319 318 317 317 315 313 311 311 310 309 308 307 306 306
326 328 327 326 326 325 325 323 321 319 318 317 317 318 319 320 322 321 321 321 322 322 324 326 326 326 325 324 322 321 320 318 317 317 315 313 311 310 309 308 307 306 306
325 326 325 326 327 325 325 323 320 319 317 316 317 317 318 318 319 321 322 320 321 321 322 324 324 325 325 326 324 323 322 320 319 318 317 315 313 311 310 309 307 307 306
324 325 324 325 323 324 322 321 319 320 318 316 317 316 316 317 317 317 318 320 320 320 322 322 322 322 323 326 326 325 324 322 320 319 318 318 316 313 312 311 309 308 307
323 322 322 323 321 319 319 320 319 316 316 317 314 312 312 314 315 314 315 315 316 318 318 321 322 322 321 324 326 326 326 325 323 321 320 318 318 316 314 313 312 310 309
321 321 322 321 322 321 319 319 316 314 315 315 310 309 305 307 311 313 312 313 313 314 316 317 320 320 319 321 321 326 327 326 326 325 323 321 320 318 317 315 314 313 312
320 319 322 321 321 322 320 319 320 317 314 314 314 310 305 303 307 310 311 311 311 313 313 314 314 315 316 318 321 322 321 321 325 326 326 324 322 321 319 318 316 315 314
320 320 322 322 321 322 322 322 323 320 319 313 312 315 316 316 310 306 309 311 313 312 313 313 313 316 316 314 317 318 315 315 319 324 326 325 324 324 322 321 319 317 317
321 322 323 323 324 322 323 322 321 321 321 318 316 316 314 315 315 311 305 307 310 311 311 312 311 310 313 314 314 314 314 313 315 319 323 324 324 323 322 321 320 319 318
318 320 322 322 321 322 322 322 322 321 322 320 319 318 317 314 312 311 308 309 307 309 311 311 309 309 310 312 314 313 310 310 312 315 318 321 322 322 320 319 317 316 316
315 316 321 321 320 321 322 322 321 320 321 319 319 318 318 318 318 315 312 309 309 312 311 313 313 312 313 312 313 312 310 307 308 311 314 316 316 316 316 315 314 313 313
317 317 320 321 321 321 321 321 319 318 319 319 319 320 319 319 319 317 315 311 307 309 310 310 315 314 313 313 313 311 310 305 305 306 307 308 309 309 310 310 309 308 308
318 319 321 321 321 322 321 319 318 317 318 319 319 319 318 320 318 317 317 316 312 306 307 310 311 315 314 314 314 311 309 305 303 302 303 304 305 306 306 306 306 305 305
318 318 320 321 321 322 322 320 318 317 317 318 318 318 319 319 319 319 318 316 316 313 309 311 311 312 314 315 313 311 308 305 302 300 300 301 302 303 303 303 303 303 302
319 318 319 320 321 321 321 319 318 318 317 316 316 317 317 318 317 318 318 318 316 316 312 314 314 312 312 312 309 307 307 304 302 299 299 299 298 299 299 299 299 299 299
319 319 320 320 321 321 320 320 319 319 317 316 316 316 316 318 317 318 318 317 317 317 314 311 313 309 307 307 308 302 305 306 304 300 299 298 298 297 296 295 295 295 294
321 320 320 320 320 320 319 319 318 317 316 317 317 317 317 317 317 317 317 317 318 317 315 312 311 307 305 301 300 301 301 302 305 304 299 297 297 296 295 294 293 293 293
322 321 320 320 320 319 319 319 318 317 317 317 317 318 318 317 317 317 317 317 317 315 313 310 309 305 300 298 302 299 297 299 300 303 300 297 296 295 294 292 292 292 293
323 323 322 321 321 321 321 319 318 318 317 317 317 318 318 316 309 312 317 317 315 313 311 308 306 303 296 292 296 298 297 296 297 298 296 295 291 291 291 293 292 293 293
323 323 322 321 320 320 309 303 311 319 319 318 317 319 319 308 307 301 301 302 311 312 310 308 307 304 298 297 295 293 292 288 287 294 290 289 292 290 290 290 293 292 293
322 321 321 321 320 321 304 302 300 317 319 319 318 318 317 316 306 311 300 296 291 290 293 309 306 300 290 290 290 288 286 286 285 287 288 285 289 287 290 290 292 291 290
321 320 321 321 320 320 302 299 297 309 315 316 316 315 315 313 312 308 292 286 285 286 287 289 288 288 289 289 289 288 286 285 285 286 288 282 286 284 288 288 291 291 290
320 320 320 320 319 318 292 294 298 310 312 298 292 292 294 293 291 292 287 284 283 283 286 287 286 286 285 286 286 286 283 283 282 282 286 283 282 283 283 284 286 289 289
319 316 297 294 291 293 290 294 297 298 290 286 286 286 288 288 288 289 286 284 281 280 281 281 281 282 282 282 283 283 283 282 282 280 283 282 281 281 279 282 283 282 282

GFSMA_sfc_thetae_069.txt.gz
Theta_e
328 325 324 323 322 321 318 316 316 317 314 315 318 320 319 319 319 320 318 325 326 327 326 325 324 323 321 320 320 319 317 317 316 315 314 314 313 313 312 311 311 311 311
326 322 321 320 320 320 317 315 316 314 314 316 318 321 319 319 318 318 318 321 324 326 326 325 324 323 322 320 319 319 318 317 316 315 314 313 312 312 311 310 309 309 309
326 321 320 319 320 319 316 316 316 317 316 318 317 320 320 319 318 318 318 319 321 323 324 325 325 324 323 321 320 319 319 317 316 315 313 312 312 311 310 309 308 308 308
328 325 321 320 321 320 318 318 318 317 315 315 314 317 320 319 318 318 319 319 319 320 322 325 326 325 324 323 322 321 319 318 318 316 314 313 312 311 310 309 308 307 307
328 327 323 322 323 321 320 319 319 316 315 314 315 314 315 319 318 319 318 318 318 319 319 323 324 324 325 325 324 323 322 320 319 319 317 315 313 312 311 310 309 308 307
325 326 325 324 324 322 320 320 319 315 315 316 317 315 314 315 318 317 318 319 319 319 320 319 321 321 323 325 326 325 325 324 322 320 320 319 316 314 313 312 310 309 309
323 324 323 323 321 323 319 319 317 316 313 314 311 310 311 313 313 314 317 317 318 319 319 320 320 320 321 324 326 327 328 327 325 322 321 320 319 317 315 314 313 312 310
322 321 323 322 319 322 319 317 314 312 313 313 309 308 304 306 310 311 311 313 315 317 319 319 320 320 320 320 321 326 328 328 327 325 323 323 322 321 318 317 315 314 313
320 320 322 321 320 320 318 316 314 312 310 311 312 308 303 302 304 306 308 308 310 310 312 316 320 320 320 320 321 321 321 322 327 328 327 325 324 322 322 319 318 317 316
319 318 320 319 319 320 317 316 317 314 314 309 310 313 313 312 305 303 306 307 307 309 309 309 313 318 319 318 319 318 316 316 319 325 327 327 326 324 323 322 321 319 318
317 318 318 319 317 318 318 318 318 317 317 314 310 311 311 312 311 307 302 305 306 309 310 311 312 312 314 313 314 318 313 313 315 320 324 326 326 326 325 323 323 322 321
317 319 317 320 320 318 319 318 318 318 318 317 315 314 312 310 309 308 305 304 304 306 308 309 309 310 310 310 313 312 310 310 311 316 319 322 324 325 325 325 324 322 321
316 317 319 318 318 319 319 319 318 317 317 317 317 317 317 317 315 312 311 307 307 307 307 309 310 309 310 308 309 310 311 307 308 312 315 317 319 321 322 323 322 321 320
316 317 318 320 320 317 318 319 319 318 318 318 317 317 318 318 318 316 312 310 304 306 308 310 313 312 312 311 311 309 311 307 305 307 310 313 315 316 317 318 318 318 318
317 316 316 319 320 319 317 317 317 317 318 318 318 318 317 318 318 318 316 315 311 304 306 309 311 314 315 315 313 313 312 310 305 304 306 308 311 313 313 312 312 312 311
317 317 316 318 319 320 320 318 318 317 316 317 317 317 316 317 317 318 317 316 315 312 307 311 310 313 314 315 313 312 313 310 305 303 302 304 306 307 307 307 307 307 307
316 317 316 318 319 319 320 319 319 317 316 315 315 315 315 317 316 317 318 317 315 315 309 311 313 312 311 312 313 313 314 312 311 302 301 301 303 301 301 302 302 303 303
318 317 316 316 317 318 318 317 317 318 316 314 314 313 314 316 315 316 316 315 315 315 313 309 313 313 309 312 313 312 308 309 310 302 300 300 300 298 298 298 298 298 298
318 318 317 315 316 318 318 318 318 317 317 316 315 314 314 314 313 315 315 315 315 315 315 313 313 315 314 302 304 301 307 307 306 304 298 298 298 298 297 296 296 295 294
319 317 317 317 317 317 318 318 318 318 317 317 316 316 315 314 314 314 315 315 315 315 315 315 314 314 310 303 306 306 301 302 303 305 301 299 298 297 296 295 294 293 291
319 319 317 316 317 317 318 318 318 317 317 316 317 316 316 314 308 311 316 316 315 315 314 314 313 312 308 294 299 304 302 304 299 300 297 297 296 295 295 293 292 291 291
320 320 319 318 317 317 308 302 311 317 316 315 314 314 315 306 306 301 300 302 312 314 314 314 313 310 310 305 305 303 297 290 289 294 291 290 292 290 292 291 291 292 292
320 319 319 320 319 318 304 301 299 316 316 315 315 315 315 316 307 314 303 296 291 291 293 305 310 310 306 299 294 289 287 287 285 288 288 286 289 287 291 292 292 292 292
319 320 320 320 320 320 303 301 298 309 315 317 317 317 317 316 312 311 294 287 286 286 287 289 290 288 288 289 290 289 287 285 285 286 287 283 286 285 289 290 291 291 290
319 319 319 319 319 318 291 293 297 308 313 302 293 293 296 297 293 295 289 284 283 283 286 287 286 286 286 287 288 288 284 284 282 283 286 283 283 284 284 284 287 290 288
318 314 296 292 292 293 289 291 297 302 291 286 286 287 288 288 289 289 287 284 281 281 282 282 281 282 283 283 284 284 284 282 281 280 281 282 280 281 279 282 283 282 283

GFSMA_sfc_thetae_072.txt.gz
Theta_e
329 329 327 326 325 323 321 317 315 313 314 317 319 318 317 318 318 319 321 326 326 327 326 326 325 324 323 321 320 319 318 318 317 317 316 315 315 314 313 312 312 312 312
328 326 325 322 321 319 319 318 314 312 312 315 318 318 317 317 318 317 319 322 325 326 326 325 325 324 323 322 320 319 318 317 316 316 315 314 314 312 311 311 310 310 310
325 323 320 319 319 316 314 313 313 311 311 316 318 318 317 317 317 317 317 318 321 323 324 325 325 324 323 322 321 319 318 317 316 315 315 314 313 312 311 310 309 309 309
323 320 318 318 318 315 314 315 314 311 311 314 316 317 316 316 316 317 317 318 317 319 322 324 325 325 323 322 321 321 320 318 317 316 315 314 313 312 311 310 309 309 309
321 319 318 318 317 315 314 315 314 312 311 312 316 317 317 315 315 317 316 317 316 316 316 322 323 323 324 323 323 322 322 321 320 319 317 315 314 313 312 311 310 310 309
323 320 320 321 318 316 315 316 314 312 313 312 316 315 317 316 315 315 316 317 317 317 317 317 319 320 322 325 325 324 325 324 322 321 320 318 316 315 314 313 312 311 310
326 320 320 322 319 318 317 317 315 313 312 312 310 308 311 315 315 315 316 316 316 317 317 317 318 319 320 323 326 326 327 327 325 324 322 321 320 317 316 315 314 313 312
325 323 320 322 322 319 318 317 314 313 312 313 311 308 305 307 311 313 315 316 316 317 317 318 318 318 318 319 320 326 327 328 328 326 325 323 323 322 319 317 316 315 314
322 324 322 322 321 321 318 316 313 313 309 310 312 309 302 303 306 308 310 314 314 315 316 318 318 319 319 319 320 321 321 322 327 329 328 325 324 323 323 321 319 318 317
321 321 322 321 319 321 319 317 316 312 312 310 308 310 310 309 305 302 307 307 309 311 312 315 317 318 319 319 319 317 315 316 319 325 328 328 326 325 324 324 323 322 319
319 319 320 320 318 320 318 317 316 314 312 309 307 309 310 312 311 305 301 303 304 306 309 311 314 317 318 319 319 317 313 312 314 320 324 327 327 327 325 325 324 323 322
317 317 319 319 319 319 319 318 318 316 315 313 311 311 310 309 308 307 303 302 303 305 308 309 308 310 313 315 317 314 312 310 311 315 319 322 324 326 327 326 325 325 324
316 316 317 318 318 319 320 319 318 318 316 315 313 312 315 312 312 310 308 306 305 306 306 308 310 311 310 310 311 311 311 308 308 311 314 317 319 321 323 324 325 325 325
317 318 318 318 319 319 319 319 318 317 315 315 316 315 316 316 316 315 312 307 304 305 307 307 310 311 311 311 310 308 310 305 305 306 309 312 314 316 317 319 321 322 323
317 317 318 318 318 319 319 318 316 317 317 316 316 315 315 317 317 317 316 314 311 306 305 308 309 313 313 313 311 311 311 309 305 304 305 306 309 312 313 315 316 318 319
316 317 315 318 319 318 318 318 317 317 316 316 317 316 316 316 316 317 317 316 315 312 307 308 309 313 314 315 314 313 313 310 306 304 303 303 305 307 309 311 313 314 315
315 316 316 316 317 319 319 317 317 317 316 316 316 315 315 315 314 315 316 316 314 314 310 312 313 310 310 312 314 314 314 313 313 305 303 302 302 302 304 306 307 307 307
315 315 316 315 315 316 318 318 317 317 316 315 315 315 315 315 314 314 314 313 314 314 312 309 312 311 307 311 312 312 312 313 313 309 304 301 301 301 301 302 302 301 301
317 316 316 315 314 315 316 316 317 316 316 316 316 315 314 314 313 313 313 313 314 314 313 311 310 313 313 305 309 307 311 309 310 308 302 300 299 300 300 300 299 298 298
318 318 317 316 315 315 315 316 316 315 315 315 316 315 314 313 312 312 312 312 313 312 313 312 312 312 313 312 311 312 310 308 309 310 303 300 299 299 298 297 296 296 294
318 318 317 317 317 316 315 314 315 315 315 315 315 315 315 313 307 309 312 312 312 311 311 311 311 312 312 306 303 311 308 311 307 305 300 298 297 297 297 296 295 293 292
317 317 317 317 316 316 306 301 308 315 316 316 315 315 316 307 306 301 300 301 309 312 311 311 312 310 311 312 312 309 310 294 295 294 293 290 293 292 293 292 292 292 291
317 317 317 317 317 317 303 300 299 314 316 317 317 316 316 316 306 313 302 296 297 292 294 309 312 312 312 313 313 300 295 291 289 289 289 286 289 288 292 292 291 291 291
316 317 318 318 318 319 302 300 299 311 315 316 317 316 315 315 314 312 311 308 291 287 288 290 295 295 291 292 295 294 290 285 285 286 288 283 286 285 290 290 291 291 292
317 317 318 318 318 317 291 293 297 311 313 314 312 298 298 303 303 300 307 292 285 284 287 287 287 287 287 287 289 289 286 286 283 283 286 284 284 284 285 285 287 290 290
301 299 290 288 287 289 288 290 291 304 308 294 287 287 288 288 289 290 291 286 282 281 281 282 282 282 283 283 283 283 285 283 281 279 280 282 280 281 280 282 283 282 282

GFSMA_sfc_thetae_075.txt.gz
Theta_e
327 330 329 327 326 325 322 319 316 316 317 317 317 317 317 318 317 319 319 326 327 327 327 327 326 324 324 323 322 321 320 320 319 319 318 317 317 316 315 315 315 314 314
330 329 327 325 324 323 320 317 314 314 317 317 316 317 317 317 317 316 318 321 325 326 327 326 325 325 323 322 321 320 319 319 318 318 317 316 315 313 313 313 313 312 312
330 328 326 323 321 318 317 314 312 312 314 317 316 317 317 317 316 315 316 317 320 323 325 326 325 324 324 322 320 320 319 318 317 317 316 315 314 313 312 312 312 311 310
329 327 324 320 318 315 314 314 312 311 313 316 315 316 316 317 316 315 316 316 316 318 322 324 325 325 323 323 322 320 319 318 317 317 316 315 315 313 312 312 311 311 310
326 323 321 319 315 314 314 313 311 312 312 314 314 314 313 315 315 317 315 315 315 315 316 322 323 323 324 323 323 323 322 320 319 318 317 316 315 314 313 312 311 311 311
322 320 318 316 316 313 311 312 311 310 312 314 316 313 312 312 315 315 315 316 315 315 315 317 318 319 322 324 323 323 324 323 322 321 319 317 316 315 314 314 313 312 311
321 318 318 316 316 311 312 313 312 310 309 311 309 309 309 311 312 313 314 315 315 316 315 316 317 317 319 323 325 325 325 325 325 323 323 321 319 317 316 315 315 314 313
321 318 319 316 315 313 313 314 313 311 311 312 310 309 305 308 311 313 313 315 314 317 316 316 316 317 317 318 319 325 326 327 328 327 325 324 323 321 319 318 317 316 315
323 319 320 318 317 315 316 316 314 314 310 310 312 309 303 304 307 308 311 314 314 314 316 316 316 317 317 317 318 320 320 321 327 329 329 327 325 324 324 322 320 318 318
324 321 320 321 320 318 317 317 315 314 313 311 307 310 309 308 306 302 307 312 314 313 314 315 316 317 317 317 317 316 315 315 319 325 328 329 327 326 325 324 323 323 321
321 322 322 319 319 320 318 318 314 312 312 313 308 307 308 310 308 305 302 304 306 311 314 314 315 316 317 318 318 317 313 312 314 319 323 326 328 328 327 326 325 324 324
318 319 321 320 319 319 318 317 317 315 312 313 313 310 309 308 308 307 303 304 304 305 309 311 312 314 316 317 318 315 312 310 311 315 319 322 324 326 327 328 327 326 325
318 317 319 319 319 319 319 318 316 316 315 314 312 311 312 311 311 310 309 306 305 306 305 308 310 312 313 315 316 314 313 308 309 312 314 317 319 321 323 325 326 327 327
318 319 317 318 319 319 319 319 318 317 317 315 314 314 314 313 314 312 310 308 303 304 305 306 308 310 311 311 311 309 313 307 307 308 310 312 314 316 317 319 321 322 324
318 317 316 317 318 318 318 318 317 316 317 317 316 315 314 315 315 315 314 313 310 304 305 307 307 311 311 312 310 311 310 309 305 305 305 307 310 312 313 314 315 317 319
316 315 316 317 316 318 318 317 317 317 317 317 317 316 316 316 316 317 316 315 314 311 308 312 312 312 313 312 311 310 311 308 305 303 302 303 304 307 309 310 311 312 314
313 314 316 317 317 317 318 317 316 317 316 316 316 315 315 316 315 315 315 315 313 313 309 312 314 315 310 312 313 313 313 312 312 305 303 303 302 302 303 304 305 307 308
313 314 314 315 316 318 318 317 316 317 315 315 316 315 315 315 314 314 314 313 313 314 312 309 312 313 307 311 312 312 313 314 314 311 305 303 302 302 301 301 302 302 303
313 314 314 314 314 314 316 316 317 317 316 316 316 315 315 315 313 313 313 312 313 313 312 311 311 313 313 309 307 309 311 312 313 311 305 303 303 303 301 300 301 301 301
316 315 315 315 315 314 314 315 316 316 316 316 316 316 316 315 314 314 313 313 313 312 312 311 311 311 311 313 307 310 310 310 309 312 308 305 303 301 300 299 298 299 300
317 317 316 316 315 315 315 314 314 314 313 313 314 314 315 313 307 309 313 312 311 310 310 310 309 310 310 310 309 312 311 311 313 310 310 305 302 299 299 298 299 298 296
316 316 315 316 316 316 305 301 308 314 314 314 313 314 314 306 305 300 299 301 308 310 309 309 309 308 309 311 312 312 309 309 307 298 298 293 295 294 296 296 295 293 293
317 317 317 316 316 316 302 300 299 313 314 314 314 314 315 316 307 313 302 297 298 297 301 312 310 310 310 312 313 311 310 308 308 293 290 286 289 289 292 293 292 292 292
305 314 316 317 317 316 290 293 297 310 314 314 315 315 315 315 315 314 313 311 307 303 295 296 302 300 294 291 294 297 297 286 286 286 288 285 286 285 290 291 292 292 291
296 295 291 290 293 290 288 289 290 304 312 313 314 300 293 300 297 295 309 308 293 284 286 287 287 286 286 286 287 289 286 287 284 281 282 284 284 284 284 285 287 289 289
288 286 284 284 285 285 287 288 290 294 299 299 288 287 287 287 288 289 291 296 285 281 281 282 281 282 282 282 283 282 284 283 282 280 280 281 281 282 280 282 282 282 282

GFSMA_sfc_thetae_078.txt.gz
Theta_e
328 330 329 328 328 325 321 316 318 319 316 317 317 318 318 317 317 318 320 326 327 328 328 328 327 325 324 323 323 322 322 322 321 320 320 320 319 318 318 317 316 316 315
325 327 327 327 326 324 320 315 317 317 316 317 316 318 318 317 318 318 319 322 325 326 327 327 326 325 325 324 322 322 321 321 320 320 319 318 317 316 316 316 315 314 314
326 329 328 326 324 323 318 314 313 316 316 317 316 316 317 318 317 318 318 319 322 324 325 327 326 324 324 323 322 321 320 320 320 319 318 317 316 315 314 314 314 313 312
329 329 327 325 322 321 318 314 313 314 315 314 314 315 316 317 318 317 318 318 318 320 323 324 325 325 323 323 322 322 321 319 319 318 317 317 316 314 314 313 313 312 311
327 328 326 322 319 318 318 314 312 314 314 314 314 314 314 315 316 317 316 316 317 317 318 322 323 323 324 324 323 322 322 320 319 318 318 317 316 315 314 313 312 312 312
327 327 323 319 319 317 314 313 311 310 314 314 314 312 312 313 315 315 316 317 316 317 317 318 320 320 321 324 324 324 324 323 321 320 319 318 317 316 315 314 314 313 313
327 324 320 317 317 314 314 313 311 310 310 313 311 310 310 311 312 313 314 315 316 316 316 317 317 318 319 323 325 324 325 325 324 323 322 320 319 317 317 316 315 315 314
321 320 318 317 315 313 313 313 312 309 310 314 309 308 306 309 311 313 314 315 315 316 316 317 317 318 318 319 320 325 326 327 327 326 325 324 323 321 319 318 317 317 316
320 319 318 317 313 313 313 314 312 311 310 312 314 309 304 304 308 310 311 312 313 314 316 316 316 317 318 317 319 320 320 321 327 329 329 327 325 325 324 322 320 319 318
320 319 319 316 314 313 313 315 314 313 313 311 309 311 311 310 307 302 308 312 314 313 315 316 316 317 317 318 318 316 315 315 318 324 328 329 328 327 326 325 324 323 322
320 319 320 317 316 315 316 316 314 313 313 313 310 309 309 309 308 305 302 305 310 313 315 315 316 316 317 317 317 317 312 312 313 319 323 326 328 329 328 327 326 325 325
321 319 320 320 320 318 317 317 315 314 313 313 313 310 310 308 307 306 304 305 307 308 313 315 315 315 317 317 318 315 312 310 311 315 318 321 324 326 327 328 328 327 326
317 320 319 319 320 319 317 317 316 315 313 312 312 311 311 311 312 310 307 306 305 306 307 309 312 315 316 317 318 314 314 308 309 311 314 317 319 321 323 325 326 328 328
318 318 320 319 319 319 319 318 317 316 316 315 314 313 312 312 313 312 310 308 304 306 307 309 309 311 313 315 315 311 316 308 307 308 310 312 314 316 317 319 321 322 324
318 318 318 319 319 318 318 319 319 318 317 316 316 315 315 314 314 314 313 312 309 303 304 308 309 311 311 312 311 312 312 310 306 306 306 308 310 312 313 314 315 317 319
317 314 315 318 318 318 319 319 318 318 317 317 317 315 315 315 314 315 314 314 313 310 305 310 310 312 312 312 312 311 312 308 305 303 303 304 305 307 309 310 311 312 314
316 316 316 316 317 317 317 317 318 317 316 316 316 316 315 316 314 315 315 315 314 314 309 312 314 314 312 314 315 314 313 312 312 304 302 302 302 303 303 304 306 307 309
314 315 315 316 316 316 317 317 316 317 315 315 315 315 315 315 314 315 315 314 314 315 312 309 312 313 312 315 314 314 314 314 314 310 304 303 302 301 301 301 301 302 303
312 313 314 313 313 316 316 316 316 316 315 315 315 315 315 315 314 314 314 314 314 313 313 310 310 314 314 314 311 311 312 314 314 310 305 303 302 303 302 301 301 301 301
312 313 313 314 314 313 315 316 316 316 316 316 316 316 316 315 315 315 314 313 313 312 312 311 310 311 312 314 312 310 310 310 310 312 309 307 307 305 302 302 301 300 300
314 313 313 314 315 315 315 314 314 314 315 315 315 316 316 314 308 311 315 314 314 312 311 310 310 310 310 310 310 312 310 312 313 314 312 312 311 310 310 301 303 300 299
316 316 316 315 314 314 304 300 308 314 314 313 313 314 315 306 306 300 300 302 310 313 311 310 310 309 309 311 312 311 310 308 306 314 312 311 303 308 304 302 299 297 297
304 310 313 316 316 314 289 291 295 312 314 314 313 314 314 314 306 313 303 297 298 297 300 312 310 310 310 311 310 310 309 309 309 300 296 295 290 290 292 294 294 293 293
294 292 291 292 295 291 288 289 289 297 310 314 314 312 302 304 307 298 309 311 309 302 292 298 302 295 286 287 291 295 293 287 287 285 286 286 286 284 288 290 291 291 291
288 287 287 287 287 287 287 289 290 296 302 292 288 287 287 287 287 290 292 292 288 283 285 286 285 284 284 284 285 289 286 289 288 282 281 284 283 283 283 283 285 287 287
286 285 283 284 285 284 286 288 289 294 287 286 284 284 285 285 286 287 287 287 281 280 281 281 280 281 281 281 282 281 282 282 282 279 280 281 281 282 279 282 281 283 282

GFSMA_sfc_thetae_081.txt.gz
Theta_e
332 333 333 334 330 328 329 333 331 330 329 328 328 327 326 326 325 325 325 326 328 330 330 330 330 328 325 324 324 323 323 323 322 322 322 321 320 320 319 319 318 318 317
333 333 333 333 331 326 328 331 330 328 327 327 326 326 325 325 325 325 324 327 326 328 330 330 329 327 325 324 323 323 323 323 322 321 321 320 319 319 319 318 317 316 316
330 331 331 331 331 325 323 328 328 327 326 326 325 325 325 324 323 324 326 326 325 324 327 328 327 325 325 324 323 322 322 322 321 321 320 320 318 318 317 317 316 315 315
331 331 330 329 329 324 322 324 325 324 324 323 323 323 323 323 324 325 325 326 325 322 324 325 326 326 326 324 323 323 322 321 321 321 319 319 317 316 316 316 316 314 314
329 329 329 329 328 322 322 323 323 323 321 322 321 322 323 322 324 324 324 325 326 325 325 323 323 324 325 325 323 323 322 321 321 320 319 318 318 316 316 315 315 315 314
327 329 327 324 325 322 321 321 321 323 322 322 319 320 321 323 324 323 324 324 324 325 325 325 324 323 322 324 324 323 324 323 321 320 320 319 318 317 316 316 315 315 315
327 325 325 322 323 321 320 321 321 321 320 323 319 317 319 321 321 322 324 322 322 324 325 324 324 323 322 323 325 325 325 325 324 322 321 320 319 318 318 317 316 316 315
326 326 321 322 321 320 322 320 320 320 320 321 318 317 311 314 318 320 321 322 322 322 322 323 323 323 323 323 323 325 325 326 327 326 324 324 323 322 320 318 318 317 317
325 323 321 320 319 321 319 319 320 321 317 320 322 318 311 311 315 319 319 321 322 321 322 321 322 322 323 323 322 322 320 321 326 329 329 327 326 325 324 323 321 320 319
320 320 319 318 317 320 319 318 318 320 321 317 319 318 322 320 314 312 317 319 321 320 322 321 322 322 323 323 322 318 315 315 318 324 328 329 328 327 326 325 324 323 323
321 319 318 315 316 318 319 318 317 318 321 320 318 317 317 318 320 316 311 313 318 320 321 321 322 322 322 322 323 320 312 312 313 319 323 325 327 328 328 327 326 326 325
320 320 318 317 316 317 317 319 318 318 318 320 318 318 316 315 313 314 313 315 315 317 318 321 321 321 321 321 320 315 312 309 311 314 318 321 323 325 327 328 329 328 328
319 318 319 317 317 317 319 320 320 319 319 320 321 318 319 318 317 316 315 313 314 317 317 321 321 321 321 322 322 315 313 308 308 311 314 316 318 320 323 324 326 328 329
322 321 320 319 318 318 318 318 318 319 321 320 320 322 319 318 318 316 315 314 312 313 314 315 318 321 321 321 320 311 316 307 306 307 309 312 314 315 317 318 321 323 324
320 320 320 319 318 317 317 316 317 317 317 317 317 319 318 315 315 316 317 316 312 309 310 314 315 318 318 320 317 321 321 313 308 306 306 308 310 312 313 314 315 317 319
322 320 319 319 318 318 317 316 315 317 317 317 317 316 316 317 315 315 315 315 314 312 308 315 315 320 319 315 316 316 315 311 306 304 304 305 306 308 309 310 311 312 314
319 320 319 320 318 318 317 317 318 317 316 317 318 317 316 318 317 316 316 316 314 313 309 314 317 319 316 315 318 319 317 315 315 305 303 303 303 303 304 305 306 307 309
320 319 318 319 320 319 319 318 316 318 316 316 317 317 316 316 315 316 315 314 314 315 315 312 316 316 316 318 318 319 320 317 317 311 305 303 302 302 301 301 301 302 303
320 321 319 318 318 320 318 318 318 318 317 317 317 316 317 318 318 316 315 314 314 314 314 312 313 315 315 317 317 317 321 323 321 312 305 303 303 302 302 301 301 301 301
318 318 318 318 319 320 320 319 318 318 318 318 319 318 317 316 316 317 315 316 318 318 318 313 312 313 314 319 318 316 316 318 316 318 314 309 308 306 303 302 302 301 301
317 317 317 319 319 318 317 317 318 317 317 317 319 319 319 317 309 314 320 320 318 315 314 313 311 312 313 315 312 314 312 313 316 321 320 320 321 320 319 307 306 302 300
307 315 315 315 314 307 290 291 299 318 317 317 316 317 317 307 307 301 300 302 309 315 312 312 311 310 311 312 313 313 312 310 308 317 315 315 319 316 304 297 295 296 296
297 296 295 299 292 291 289 290 290 303 310 315 315 313 313 312 301 310 302 297 297 296 292 302 307 310 308 299 296 307 310 310 310 298 294 299 291 289 292 292 293 292 292
290 289 289 290 289 288 288 289 289 298 303 292 290 290 291 290 290 291 296 295 286 285 286 287 285 284 284 285 286 291 291 289 288 284 285 287 286 284 285 286 288 289 289
287 286 286 286 286 286 287 288 293 293 288 286 286 286 286 286 287 289 294 287 284 283 285 285 284 284 283 283 283 288 285 286 287 283 281 284 283 282 282 282 284 286 286
285 285 283 284 284 284 286 287 289 288 284 283 282 283 284 284 285 285 286 285 280 280 280 280 280 279 280 281 281 280 281 280 280 279 279 281 282 283 281 283 283 284 284

GFSMA_sfc_thetae_084.txt.gz
Theta_e
336 334 333 336 337 334 333 333 338 336 335 334 334 333 332 331 330 328 329 328 329 331 328 328 329 329 328 327 325 325 324 323 323 323 323 322 322 321 321 320 320 319 319
335 333 334 336 334 331 332 332 335 334 334 333 333 332 331 330 328 328 327 327 326 328 330 329 330 329 326 325 324 324 323 323 323 323 323 322 321 320 320 319 319 318 317
336 335 336 336 333 333 330 331 334 335 332 331 331 331 329 328 326 326 327 326 326 325 327 330 330 328 326 325 324 324 323 323 323 322 322 321 320 320 319 319 318 317 317
332 332 332 334 333 331 331 329 334 330 330 329 328 328 327 326 326 326 326 327 326 325 326 327 328 327 327 325 324 324 323 323 322 322 322 321 320 319 319 318 317 317 316
331 331 334 335 332 329 331 326 330 330 328 328 327 327 326 325 326 325 325 326 327 324 327 324 324 324 326 326 324 324 324 323 322 322 321 320 319 318 318 317 317 316 316
330 332 331 331 329 328 325 326 327 329 329 326 324 324 326 325 325 324 323 325 326 327 327 327 324 323 322 325 326 324 324 324 323 323 322 320 319 319 318 317 316 317 316
328 328 328 328 326 324 323 324 328 327 325 327 322 321 322 323 324 323 325 325 325 326 326 326 325 324 323 323 325 325 325 325 325 323 322 321 321 320 319 318 318 317 317
331 328 326 325 325 323 321 322 326 324 325 326 321 320 313 318 321 323 324 324 326 325 324 324 325 325 325 325 323 325 326 326 326 325 324 324 323 322 321 320 319 318 318
327 326 326 324 324 322 319 320 326 326 322 325 326 320 313 312 317 321 323 323 324 324 324 325 325 325 325 324 323 322 320 322 327 329 328 326 325 324 323 323 322 321 320
326 325 325 324 323 322 320 321 325 326 325 322 324 323 324 321 315 314 322 323 324 323 325 324 324 324 324 325 323 318 315 315 318 325 328 330 328 327 326 325 324 324 323
322 322 322 322 321 322 321 321 325 327 327 325 322 323 323 323 323 317 314 318 323 324 325 325 325 325 325 326 326 323 313 312 314 319 323 326 329 329 329 328 327 326 325
321 319 318 319 320 319 320 321 327 326 325 325 324 324 321 320 319 318 316 318 318 322 324 325 326 326 326 327 324 316 312 310 311 315 318 321 323 325 327 328 329 329 328
319 319 318 317 317 319 319 320 322 323 324 324 324 324 322 321 322 320 318 315 315 319 321 325 325 325 325 327 325 316 314 309 309 311 314 316 318 321 322 324 325 327 328
320 320 318 319 318 318 319 321 320 321 323 325 324 324 323 323 324 322 318 314 312 315 318 321 324 326 326 326 325 313 322 308 307 307 309 311 313 315 316 318 320 322 324
325 321 321 318 318 317 318 319 318 318 320 322 325 325 324 323 323 322 320 318 315 310 311 318 317 323 326 327 323 326 325 315 307 306 306 308 310 312 312 313 315 316 318
323 323 321 320 317 318 317 318 316 318 318 319 319 319 322 322 323 323 321 319 317 312 308 315 319 320 323 319 318 321 323 314 307 304 304 304 305 308 309 310 311 312 313
323 323 321 319 317 316 316 315 314 315 316 317 319 318 317 319 320 319 319 316 314 314 310 313 316 318 322 319 319 321 318 319 319 305 304 304 303 303 304 305 306 307 309
324 323 323 319 318 317 316 314 312 313 314 314 315 317 316 317 317 318 317 316 315 316 313 311 314 315 315 318 319 318 317 317 321 313 305 303 303 302 301 301 302 302 303
322 322 321 321 320 319 319 316 315 316 316 317 316 313 314 316 315 317 316 316 317 316 315 313 312 316 317 317 318 322 323 324 325 315 307 304 303 303 303 302 301 301 301
319 320 320 319 319 321 320 318 317 316 316 318 318 318 316 317 317 317 316 317 317 317 316 314 316 318 319 321 321 318 320 324 323 323 316 310 308 306 303 303 302 302 301
320 321 321 320 320 320 301 301 320 320 320 320 321 322 322 318 310 314 318 319 320 318 315 315 316 317 319 319 317 318 316 318 319 319 319 320 321 323 310 298 297 297 297
301 302 302 304 296 295 289 290 296 316 319 319 318 320 320 309 308 299 299 300 306 314 314 313 313 311 312 313 314 313 313 311 309 295 299 310 296 290 290 291 291 292 293
294 294 294 293 290 289 289 290 290 301 306 296 294 295 298 296 293 296 295 289 288 287 288 295 299 295 289 288 288 292 296 292 291 288 292 289 289 285 287 288 289 290 290
289 289 289 289 288 288 288 290 290 294 289 288 287 288 288 288 288 289 295 288 285 285 285 285 283 282 283 284 285 288 290 290 288 285 284 290 287 284 285 285 287 287 287
286 286 286 286 286 286 287 290 290 287 285 284 284 285 285 285 286 290 292 284 283 282 283 284 283 283 283 284 284 288 284 286 287 282 281 283 284 283 283 284 285 286 285
286 286 284 285 286 285 286 287 288 286 283 283 284 284 284 284 285 285 284 282 279 279 280 280 281 282 283 283 283 283 284 284 284 284 283 284 286 286 285 287 286 287 287

GFSMA_sfc_thetae_087.txt.gz
Theta_e
340 339 336 337 338 340 334 330 331 336 338 337 336 335 330 332 330 330 330 329 331 333 331 330 328 327 328 328 326 326 325 324 324 324 324 323 323 323 322 322 321 321 320
340 339 337 337 339 339 336 330 331 332 337 336 333 332 330 330 329 329 329 329 327 329 330 329 329 330 329 328 326 325 324 324 323 323 323 322 322 321 321 321 320 320 319
338 339 337 338 335 336 337 330 330 331 334 332 329 330 329 329 327 326 327 328 327 325 327 330 331 330 327 325 325 324 323 324 324 323 323 322 321 321 320 320 319 318 318
337 337 336 336 337 334 334 328 329 327 328 328 328 326 327 327 326 326 326 326 326 324 326 327 329 329 328 325 325 325 324 324 324 323 323 322 321 321 320 319 319 318 318
336 336 335 334 334 333 332 330 328 327 327 326 326 326 326 324 324 324 325 326 327 326 326 325 325 325 327 327 325 325 325 324 323 323 323 322 321 320 320 319 319 318 317
333 332 331 331 330 331 331 330 326 326 327 326 324 323 325 325 325 324 324 325 326 326 326 327 326 323 323 326 327 325 325 325 324 324 323 322 322 320 319 319 318 318 318
332 331 330 330 329 330 328 328 326 324 323 325 322 322 323 325 325 324 325 323 325 324 326 327 325 323 323 324 326 325 326 326 325 324 324 323 322 322 320 319 318 318 318
330 329 329 328 327 327 326 325 325 322 323 326 321 318 314 317 322 324 325 324 326 324 323 326 326 324 325 323 322 326 326 326 326 325 324 325 324 323 322 321 320 319 319
334 332 331 328 325 327 324 324 324 323 319 324 326 320 313 311 317 321 324 323 325 323 324 324 324 324 325 325 323 322 320 321 326 328 327 326 325 325 324 324 323 322 321
331 332 331 328 326 324 323 323 325 324 323 322 323 323 323 321 315 314 321 322 324 323 326 324 324 324 325 324 323 319 316 315 318 325 328 328 327 326 326 325 325 324 324
327 328 326 326 324 324 323 323 322 323 324 325 321 323 322 322 322 317 313 318 321 324 324 326 325 325 325 325 326 322 313 312 314 319 324 327 329 329 327 327 326 326 326
323 321 321 324 323 322 321 322 322 322 324 325 324 324 322 319 319 318 316 318 318 321 324 326 326 326 326 326 323 317 313 310 311 315 318 322 325 327 328 329 329 329 328
320 318 318 318 320 321 321 322 322 323 325 324 324 323 325 324 324 322 320 316 316 319 321 326 327 328 326 329 328 316 313 308 308 311 314 317 319 321 323 325 326 327 328
322 320 318 317 319 320 320 321 322 323 324 325 325 325 323 324 325 322 320 317 313 314 318 321 326 327 328 328 325 313 324 308 307 308 309 312 314 315 317 318 320 322 323
323 322 320 318 317 319 319 319 319 319 321 325 325 323 323 324 325 324 323 321 316 311 311 317 317 327 327 328 324 328 328 317 307 306 306 308 310 312 312 313 315 316 318
325 324 320 320 318 317 318 319 318 319 319 320 321 322 323 323 322 322 323 323 321 316 310 314 318 321 325 322 322 324 327 314 308 305 304 304 306 308 309 310 311 312 313
325 325 323 319 318 317 317 317 316 316 315 316 319 320 319 321 321 323 323 323 321 319 314 316 316 317 317 317 319 319 318 320 320 307 304 303 304 304 305 306 306 308 309
324 323 324 321 318 317 316 315 315 315 314 315 317 317 317 317 317 319 319 318 318 319 315 310 314 315 315 317 317 317 318 319 319 313 306 305 304 303 303 302 302 303 303
323 324 323 321 319 317 316 315 315 315 314 314 314 315 316 316 317 317 318 316 317 316 315 313 312 316 319 319 317 318 319 320 321 315 306 303 303 303 303 302 301 301 301
321 321 322 322 320 319 318 317 315 313 312 314 314 316 316 314 315 315 316 314 314 313 313 313 313 314 316 321 320 319 319 322 321 323 316 310 308 303 297 296 296 296 297
316 316 320 320 315 301 295 299 311 316 316 315 316 317 317 314 307 309 315 315 316 315 314 313 313 314 314 315 315 317 316 317 321 304 305 305 298 295 292 293 293 294 294
299 299 298 297 296 294 289 291 295 311 310 309 310 308 305 297 296 291 290 290 290 299 304 308 311 311 309 293 292 295 297 298 300 292 295 297 292 288 289 288 290 291 291
292 291 291 291 290 290 290 291 292 300 295 293 292 292 294 293 292 295 289 287 286 286 285 290 292 284 285 284 286 290 293 293 294 286 289 292 290 285 286 287 288 288 288
288 288 288 288 288 289 290 289 288 289 287 287 287 287 287 287 288 291 287 284 283 284 284 284 283 282 283 284 285 287 289 288 288 284 283 286 286 283 285 285 287 287 287
286 286 287 286 286 286 288 288 287 286 285 284 284 285 285 285 287 290 285 282 281 281 284 285 285 284 284 284 285 286 285 287 286 283 283 283 286 285 285 285 286 286 286
286 286 285 286 286 285 287 288 287 286 283 283 283 283 284 285 286 286 284 283 280 281 283 285 285 285 285 285 283 284 284 284 285 285 283 281 285 286 285 288 287 287 287

GFSMA_sfc_thetae_090.txt.gz
Theta_e
336 337 336 335 333 334 333 332 332 331 331 334 334 331 330 329 331 329 328 330 331 334 332 331 331 330 328 326 325 326 324 325 325 325 325 324 325 324 323 323 323 322 321
337 336 335 333 333 334 332 331 329 328 329 332 332 331 329 328 329 327 327 327 329 331 332 331 329 329 328 328 326 325 324 324 324 324 324 324 323 323 323 322 321 320 320
336 335 334 333 333 334 332 329 328 328 328 331 330 329 330 326 326 325 325 325 325 326 328 329 330 330 328 327 326 324 324 324 324 323 324 322 322 322 321 321 320 320 319
336 334 332 332 333 333 331 327 327 327 328 329 327 327 325 324 322 323 324 324 323 322 325 327 329 330 329 327 326 325 324 323 324 323 324 323 322 322 321 320 320 319 319
335 334 332 332 332 331 330 327 326 325 325 325 325 322 322 322 321 321 323 322 322 321 323 325 326 326 327 327 324 325 325 325 325 324 324 323 322 322 321 321 320 319 319
334 333 332 331 331 329 328 327 326 326 325 325 326 321 320 319 319 318 322 323 321 322 323 324 322 322 324 326 326 325 326 326 325 324 324 324 323 322 321 320 320 320 319
332 332 330 330 330 328 327 327 326 323 323 325 321 317 319 320 318 317 320 321 322 322 322 323 322 321 320 324 326 327 326 326 326 325 325 324 323 323 322 320 320 319 319
331 330 329 328 328 327 327 326 324 321 322 324 318 316 311 315 319 319 319 319 322 320 319 323 321 320 319 319 319 326 326 326 326 326 325 326 325 324 323 321 320 320 320
330 330 328 328 327 327 326 326 324 321 319 322 322 315 310 308 313 318 318 318 319 322 318 322 322 321 319 319 320 321 321 321 327 328 327 326 326 325 324 323 323 322 321
329 329 328 328 327 326 325 325 326 323 321 318 320 320 317 316 310 310 317 318 319 320 319 320 318 320 320 321 320 317 315 315 319 324 327 328 327 326 326 325 325 324 324
329 328 329 328 327 325 324 325 324 323 322 320 319 318 316 317 316 313 309 314 317 318 318 319 319 319 320 321 319 318 313 312 314 319 323 326 328 328 327 326 326 326 326
323 322 324 325 325 325 323 324 325 324 322 321 321 319 317 314 314 314 311 313 313 316 319 319 318 320 319 319 320 316 311 310 311 315 319 322 324 326 328 329 328 327 327
320 319 319 321 323 324 323 323 323 323 322 320 320 320 320 319 319 317 316 314 313 315 317 319 320 319 321 320 319 315 313 308 308 312 315 317 319 321 323 325 328 329 329
320 320 318 319 320 321 321 322 322 322 321 320 321 321 320 320 319 317 315 313 310 312 315 316 320 322 322 322 321 313 319 307 306 307 309 312 314 316 317 318 320 322 323
321 320 319 318 318 319 320 321 320 319 320 321 321 321 320 319 320 319 318 317 311 305 308 315 314 322 322 324 321 322 321 311 306 305 305 307 310 312 313 314 315 316 318
322 320 319 318 318 318 319 319 319 320 320 321 321 320 318 319 319 318 318 318 316 312 307 311 312 315 320 320 320 321 321 315 308 305 305 305 306 309 310 310 311 312 313
324 322 320 318 317 317 318 317 317 317 317 317 317 317 317 318 317 318 318 317 316 316 311 312 314 314 313 316 316 317 317 316 317 306 303 303 303 303 305 306 307 308 309
324 322 321 319 317 316 317 316 315 315 314 314 314 315 315 316 315 316 316 316 316 317 313 310 312 311 312 314 314 314 316 317 317 312 306 305 304 303 302 302 302 302 302
322 322 322 319 317 316 315 315 314 313 312 312 313 314 314 315 314 314 315 314 314 314 314 312 311 312 312 313 314 316 316 316 319 313 306 303 301 300 298 297 297 297 297
320 321 321 320 318 316 315 315 314 314 314 314 314 314 315 315 314 314 314 314 314 313 313 312 311 311 312 314 314 314 314 316 316 316 303 297 296 294 294 294 294 294 295
305 305 303 301 299 297 294 299 313 313 311 311 312 312 311 302 296 298 310 313 313 312 311 310 310 311 312 312 306 299 302 303 298 295 301 298 295 293 291 291 292 292 292
296 296 294 294 294 295 291 292 299 304 304 304 302 302 297 295 290 289 289 287 289 296 301 301 304 296 294 291 290 292 294 296 296 289 292 295 292 287 287 288 289 290 290
291 290 291 291 290 290 290 291 292 293 291 291 290 292 293 292 293 289 287 286 286 286 285 292 285 284 284 284 285 289 290 290 291 285 287 289 288 285 286 287 288 289 289
288 287 287 288 288 288 288 288 288 287 286 286 286 287 287 289 291 288 285 284 283 284 284 284 283 282 283 284 285 287 287 287 285 283 283 284 284 282 283 284 287 287 287
286 285 286 285 286 286 288 287 287 285 284 283 284 285 285 285 287 287 284 282 281 281 286 286 286 285 284 284 284 284 283 285 284 282 279 280 285 285 284 284 285 286 286
284 284 283 284 285 285 288 287 286 285 282 282 283 283 285 285 286 286 283 282 281 282 284 284 283 284 284 283 283 280 281 281 282 281 276 279 283 283 282 285 285 280 280

GFSMA_sfc_thetae_093.txt.gz
Theta_e
334 334 331 332 330 330 329 330 330 331 331 333 333 332 329 328 328 329 330 331 332 334 333 334 333 332 331 329 329 328 327 325 327 326 326 325 325 324 323 323 323 322 322
333 332 332 332 331 330 330 329 330 329 328 331 331 330 328 329 327 328 328 328 329 331 332 332 331 330 329 327 328 327 324 325 325 326 325 324 325 324 324 323 322 322 321
332 331 330 330 331 331 329 328 328 327 327 330 329 329 328 328 327 326 328 327 327 327 329 331 331 329 328 327 325 325 324 325 324 325 325 324 324 323 323 322 321 321 321
332 330 328 328 331 329 327 326 326 325 325 325 325 328 328 327 325 324 325 324 324 324 325 327 328 329 330 327 326 326 325 324 324 324 324 323 323 323 322 322 321 321 320
332 329 328 328 330 328 326 325 325 325 324 325 326 327 325 325 323 324 323 323 321 320 320 324 325 326 328 328 326 326 325 324 325 324 324 323 323 322 322 321 320 320 320
330 329 328 328 329 328 327 325 324 325 324 325 327 326 323 322 322 322 321 322 320 320 321 323 325 322 324 326 327 326 326 326 326 325 325 324 323 323 322 321 321 320 320
328 327 327 326 328 327 325 325 325 323 323 325 321 318 319 317 319 320 321 319 319 320 320 321 322 320 321 324 326 326 327 327 327 326 325 324 323 323 322 322 321 321 320
327 327 327 328 327 325 324 326 325 322 322 325 319 316 311 314 317 315 318 319 318 320 321 321 321 319 317 318 319 326 326 327 327 326 326 326 325 325 323 322 321 321 320
328 327 328 328 328 327 326 325 325 322 319 322 322 316 309 308 312 315 315 318 317 318 319 321 320 319 318 317 319 321 321 321 327 328 327 326 326 325 324 323 322 321 321
329 328 328 327 327 326 325 326 325 322 321 318 321 322 317 315 309 307 313 315 317 319 316 320 320 319 319 317 318 317 315 315 319 326 328 328 327 327 326 326 325 324 323
327 327 327 324 326 326 326 326 324 322 322 319 319 319 316 315 315 310 307 312 315 317 317 318 320 319 319 319 317 317 313 312 314 320 324 327 329 328 327 326 326 326 326
326 325 327 326 325 325 325 325 326 323 321 321 321 319 316 313 313 311 309 311 311 314 316 315 316 317 317 318 319 316 312 310 311 315 319 322 325 327 328 328 327 327 327
318 319 320 321 323 325 325 325 325 324 322 321 320 319 319 316 316 315 313 311 311 313 313 315 316 317 318 317 318 315 312 308 309 312 315 317 320 322 324 326 328 329 329
319 319 318 319 320 320 323 324 324 324 323 321 320 320 320 319 318 317 315 313 309 311 313 314 319 318 318 319 317 312 315 307 307 308 310 312 314 316 317 319 321 323 325
318 317 317 318 318 320 322 322 322 322 323 321 321 321 320 319 319 318 317 315 312 307 310 313 315 320 321 321 319 318 317 312 306 306 305 308 310 312 313 314 315 317 319
320 319 317 317 318 318 319 320 319 321 321 321 321 320 320 318 318 317 316 316 314 309 306 311 313 316 321 322 320 321 321 314 307 305 304 305 307 309 310 311 311 312 314
318 318 317 317 317 317 318 317 318 319 318 319 319 320 319 318 317 317 316 316 314 314 309 311 312 314 314 316 316 317 316 317 317 306 304 304 304 304 305 306 307 307 308
321 319 318 316 316 317 317 316 316 317 318 318 319 319 317 316 316 315 315 315 315 315 312 309 312 312 311 312 313 314 314 316 316 311 306 301 300 299 299 298 298 299 299
322 320 318 317 315 316 315 315 314 314 314 314 315 314 315 315 313 314 313 313 314 314 313 311 311 312 313 313 313 313 314 315 317 311 298 295 296 295 296 295 295 296 296
319 319 318 317 315 315 315 315 314 313 313 313 314 313 313 313 313 313 313 313 313 313 312 312 311 311 311 312 312 310 311 304 301 305 297 295 294 294 294 294 294 294 294
303 304 302 301 300 299 297 305 314 313 312 312 313 310 301 298 295 297 312 313 312 312 311 310 310 310 309 300 299 297 299 301 293 292 299 295 292 291 291 291 292 292 292
295 295 295 295 294 294 292 294 303 302 302 305 300 297 295 291 289 289 289 288 289 300 306 305 299 296 290 289 291 291 294 296 295 287 290 290 290 287 287 289 290 290 290
291 290 290 290 289 289 290 291 291 292 291 290 291 293 293 290 289 288 287 286 286 286 287 292 287 285 284 284 286 289 289 290 286 283 285 286 288 284 287 288 289 288 288
287 287 288 288 288 288 288 288 287 287 287 287 287 288 290 290 288 286 285 284 284 284 284 284 283 283 283 284 285 287 288 285 284 281 281 283 283 282 284 282 287 287 287
285 285 286 286 286 286 287 287 286 285 284 284 286 286 286 286 286 287 284 282 283 283 286 286 285 285 284 284 284 285 283 285 283 279 274 280 283 276 283 284 284 287 286
283 283 283 284 286 285 286 286 285 284 282 282 284 285 286 285 286 285 284 283 282 282 283 282 282 283 281 280 283 277 275 277 274 275 273 279 281 278 276 284 282 280 276

GFSMA_sfc_thetae_096.txt.gz
Theta_e
332 331 330 330 329 330 330 327 327 328 330 333 333 331 330 330 330 331 332 331 333 337 338 338 338 337 335 333 332 330 328 328 327 325 324 325 326 325 323 324 324 324 323
333 332 331 330 329 329 330 329 328 328 327 331 331 331 329 329 329 329 330 330 330 333 334 336 336 335 334 332 330 329 328 327 326 325 324 325 325 325 324 324 323 322 322
333 332 332 331 329 330 328 327 326 326 325 330 329 329 329 328 327 327 328 327 327 327 329 333 333 332 331 329 328 327 327 327 326 325 325 325 324 323 323 323 322 322 322
332 330 330 330 331 330 329 327 326 326 324 325 325 326 327 328 327 326 327 326 325 325 326 328 330 331 330 327 326 324 324 325 326 324 324 324 323 323 323 322 322 321 321
331 330 328 328 331 330 329 327 326 325 323 323 324 325 326 326 325 327 325 324 322 321 322 325 326 325 327 328 325 326 326 325 324 325 324 324 323 323 322 322 321 321 321
330 329 326 327 329 327 326 326 325 324 324 324 325 325 325 325 324 324 323 323 321 320 320 321 322 322 324 326 327 327 327 326 325 324 324 323 323 323 322 322 321 321 320
329 327 326 326 327 326 325 324 323 322 322 324 321 322 320 321 321 322 322 321 319 320 319 320 320 320 322 324 326 327 326 326 326 325 324 324 322 324 323 322 322 321 321
329 329 326 326 326 326 325 325 323 322 322 324 318 316 311 313 317 320 320 320 317 319 319 320 321 319 319 319 320 325 325 326 325 325 325 325 323 324 323 322 322 322 321
328 327 326 325 325 325 323 324 323 322 320 322 320 315 310 308 312 315 317 317 316 317 318 320 320 320 318 317 319 321 320 321 327 327 327 326 326 325 324 323 323 322 322
328 325 324 325 326 326 325 324 325 322 322 319 319 321 318 316 310 309 314 315 316 316 317 318 319 319 318 317 318 316 315 315 319 326 327 327 327 326 326 325 325 323 323
328 327 326 326 325 325 325 325 324 322 323 321 320 318 317 315 315 311 308 311 313 317 317 318 319 319 318 317 316 316 313 312 314 320 325 327 328 328 327 327 326 326 325
324 325 323 326 325 325 322 325 325 322 321 321 321 319 317 314 313 311 309 311 312 313 316 317 318 318 318 317 318 314 312 310 311 315 320 323 326 328 328 327 327 327 327
323 324 324 325 325 324 322 325 325 323 321 320 321 320 319 317 317 315 312 310 310 312 313 315 317 319 318 317 318 314 312 308 309 312 315 318 320 322 325 327 328 328 328
322 320 320 321 321 322 324 324 324 324 323 321 320 320 319 317 317 316 314 312 309 310 312 313 316 316 317 317 316 311 316 307 307 308 310 312 314 316 317 320 322 324 326
316 315 317 317 318 319 320 321 323 323 323 322 321 321 320 319 318 317 317 315 312 307 309 312 314 318 318 318 316 314 315 309 306 304 305 307 310 312 313 315 316 317 319
317 315 316 316 316 318 319 320 321 322 322 322 321 320 320 320 318 317 317 315 313 311 308 313 314 317 319 320 317 319 319 313 305 304 304 304 305 308 309 310 311 312 314
319 317 317 316 316 316 318 318 319 319 319 320 320 320 319 319 317 316 316 316 314 313 308 310 312 313 315 317 318 318 318 319 318 306 304 304 302 302 303 303 304 305 307
319 318 317 316 316 316 317 316 316 317 317 317 319 319 318 317 316 315 315 314 314 315 312 308 311 311 311 313 314 313 314 316 317 303 298 297 297 297 296 297 297 298 298
319 318 317 315 315 316 316 315 315 314 317 318 318 318 318 317 315 314 313 313 314 313 313 311 310 312 312 312 312 313 313 314 303 298 295 295 295 295 295 295 295 296 296
319 318 317 316 315 315 315 315 314 314 313 314 315 315 317 316 314 313 313 312 312 312 312 311 310 311 311 312 312 309 309 300 300 299 295 293 293 294 294 294 293 293 293
302 304 303 302 301 300 299 307 313 312 312 312 305 302 299 299 296 300 313 312 312 311 310 310 309 308 308 302 304 298 301 300 290 290 294 293 291 291 291 292 292 292 292
295 294 293 293 293 293 291 294 304 306 307 304 297 294 293 291 290 289 289 288 290 307 309 309 306 303 292 291 291 293 295 296 293 286 290 288 289 287 288 289 290 289 289
290 290 289 289 288 289 289 290 291 294 293 293 294 294 291 289 289 288 287 287 286 286 286 295 290 287 286 285 287 290 290 290 284 282 285 285 287 284 287 288 288 288 288
287 287 287 287 287 287 287 288 288 288 288 287 289 291 289 287 287 287 285 284 284 284 284 284 283 283 283 285 286 288 288 283 282 280 281 283 283 279 284 285 287 287 287
284 285 286 286 285 285 287 286 286 286 285 285 286 286 286 286 287 288 284 283 282 283 285 285 285 284 284 284 285 286 285 285 282 274 273 280 275 275 283 283 284 287 287
283 283 283 284 285 284 286 286 285 284 283 283 284 285 286 285 286 286 284 283 280 281 281 280 280 280 281 281 281 278 275 276 278 269 272 278 274 271 273 285 279 279 275

GFSMA_sfc_thetae_099.txt.gz
Theta_e
333 331 331 332 332 330 328 327 327 330 331 332 331 330 330 330 330 331 332 331 333 338 341 340 339 338 337 335 333 332 331 329 328 326 325 323 323 325 323 323 325 325 324
332 330 329 329 328 329 328 328 327 327 327 329 329 329 330 329 330 330 331 331 330 334 338 340 339 338 337 335 333 331 329 328 326 325 324 324 323 323 322 324 324 323 322
331 330 330 329 327 328 326 325 326 327 327 329 328 329 329 329 329 328 328 330 330 328 331 335 336 337 336 334 332 331 329 328 326 325 324 324 324 323 323 323 322 322 322
332 330 332 331 328 329 329 326 326 325 325 326 326 327 328 328 328 328 328 327 327 327 327 329 332 334 334 332 331 330 329 326 325 325 325 325 324 323 322 323 322 322 322
332 331 331 330 330 329 329 328 326 326 324 324 325 325 326 327 326 328 327 326 324 322 322 326 327 328 329 330 329 328 326 325 327 326 324 323 323 323 322 323 322 322 321
331 329 328 329 329 329 328 328 326 325 324 324 325 324 325 326 326 326 326 326 323 321 321 322 324 324 324 327 327 327 327 327 326 326 325 324 323 322 322 322 322 321 321
329 328 326 327 329 327 326 327 326 323 322 324 322 321 322 324 324 325 325 324 321 320 319 319 318 319 322 325 326 326 328 328 327 326 326 324 323 322 321 322 322 321 321
329 328 326 327 327 325 325 325 324 322 323 324 319 317 312 314 319 323 323 322 321 320 319 319 318 318 319 322 321 327 328 328 325 326 325 326 324 323 322 322 321 321 321
329 330 328 327 326 326 324 324 324 323 320 323 319 316 310 308 312 317 319 319 318 318 319 319 319 318 318 317 319 321 321 322 326 326 324 327 326 324 324 323 323 322 322
327 328 327 327 326 326 324 324 324 323 322 318 320 320 315 314 310 308 314 316 316 315 315 317 318 318 318 317 317 316 315 314 318 325 327 327 326 325 326 325 324 324 323
326 326 327 326 326 325 325 324 323 322 321 319 319 318 316 315 314 312 309 311 314 315 316 316 318 318 318 317 316 315 313 312 314 320 325 327 327 327 326 326 326 326 325
325 326 326 326 326 325 324 323 324 323 322 320 321 318 317 312 312 312 310 312 312 313 316 317 317 318 318 317 317 314 312 310 311 315 319 323 326 327 327 327 327 327 327
318 324 324 324 324 323 323 323 323 322 322 321 321 318 318 316 316 316 313 312 311 312 312 315 318 318 318 317 317 313 312 308 309 311 314 317 320 323 325 327 327 328 328
320 320 322 321 323 323 321 321 323 323 323 321 321 321 319 317 317 316 314 312 308 310 311 312 316 318 319 317 316 311 315 307 306 308 310 312 314 316 318 320 322 324 326
322 323 322 322 321 321 321 322 322 322 323 322 321 321 320 318 318 318 317 315 311 306 308 311 312 316 318 318 315 315 315 309 306 304 304 306 310 312 313 314 315 316 319
318 317 316 314 315 314 315 318 318 320 321 322 321 321 320 319 317 318 317 316 314 311 307 313 314 315 317 317 315 315 314 309 304 304 303 304 305 307 308 309 310 311 312
316 314 313 312 314 312 316 316 317 318 319 319 320 320 319 320 318 317 317 316 314 312 309 310 313 313 315 316 315 318 317 316 313 304 303 302 301 301 301 302 302 304 305
317 317 315 314 315 315 315 315 316 317 317 317 319 320 319 319 317 317 317 316 314 313 311 308 310 310 312 314 315 315 316 315 304 298 297 297 297 296 296 297 297 297 297
315 317 316 315 315 315 315 315 315 316 315 317 317 319 318 318 316 316 315 314 315 313 313 310 309 311 311 312 311 312 311 301 299 297 295 295 296 295 295 295 295 295 295
317 317 317 315 314 314 315 315 315 313 313 313 315 317 318 318 316 315 314 314 313 313 311 310 310 310 311 312 312 309 303 301 296 296 294 294 294 294 294 294 294 294 293
307 307 304 301 300 298 296 298 312 312 312 305 300 299 298 302 302 307 314 313 313 311 310 309 308 308 308 306 306 301 302 293 289 292 292 291 291 291 291 292 292 292 291
295 295 293 293 292 291 290 292 301 307 304 301 297 295 293 292 290 290 290 288 293 310 309 309 308 306 299 296 294 296 297 293 290 286 289 286 289 287 288 289 289 289 289
291 289 289 289 288 288 289 290 291 293 292 293 293 292 291 290 289 288 287 287 286 286 286 301 298 291 289 288 290 291 291 289 284 282 286 284 286 285 286 288 288 288 288
287 287 287 287 286 287 288 288 288 288 287 287 288 288 287 287 287 287 286 284 283 284 284 284 283 283 285 285 287 289 286 282 281 280 281 282 283 283 285 285 288 288 288
284 284 285 285 285 285 287 287 287 286 285 285 286 286 286 286 287 288 284 282 281 281 284 285 284 284 285 286 287 287 284 284 281 277 277 282 279 281 283 283 284 285 285
282 283 283 284 285 284 286 286 286 285 283 283 284 285 286 285 286 285 283 282 278 278 279 279 279 280 280 281 281 280 284 282 278 275 276 276 274 274 279 283 279 275 275

GFSMA_sfc_thetae_102.txt.gz
Theta_e
337 334 332 334 329 327 327 326 326 328 329 331 330 330 331 331 331 331 332 332 334 339 343 342 341 340 338 336 335 334 332 331 329 327 326 325 325 327 326 325 325 322 323
336 333 333 334 328 328 326 326 326 326 328 331 330 329 330 330 330 330 330 330 327 333 337 341 341 340 338 336 335 334 331 329 328 327 325 325 325 324 322 325 323 324 322
335 333 332 331 331 329 326 324 324 325 326 329 329 329 329 329 329 328 330 330 329 328 331 336 338 338 338 336 334 333 331 330 328 325 324 323 324 324 323 323 321 322 321
332 330 332 331 329 329 329 327 326 326 324 326 326 327 328 328 328 328 329 329 328 331 329 331 334 335 335 336 334 332 331 329 327 326 325 324 324 322 321 321 322 321 321
331 331 333 331 329 329 329 327 327 327 323 324 324 326 327 327 328 329 328 327 327 327 328 327 328 330 332 334 333 332 331 329 327 327 325 325 323 323 322 322 322 322 322
331 331 332 330 330 328 327 327 326 326 325 324 326 325 325 327 327 327 327 327 326 325 326 326 327 326 327 330 331 330 330 327 326 327 325 325 323 322 323 323 322 322 322
331 331 330 329 329 328 328 328 327 325 324 324 322 322 323 325 325 326 327 326 325 324 323 323 323 324 325 326 328 329 328 326 328 328 326 324 323 322 321 321 323 322 322
331 330 329 328 328 328 327 327 325 323 324 324 319 317 312 315 321 324 325 325 324 323 322 321 321 320 321 323 322 326 327 328 327 327 326 325 324 323 322 321 321 322 322
331 330 328 328 328 328 325 325 325 323 321 323 321 318 310 310 313 317 322 323 322 321 321 321 320 319 319 320 321 322 321 323 328 327 327 326 325 323 322 322 322 322 321
330 330 328 328 328 327 325 324 325 324 323 320 321 321 318 315 310 308 316 318 320 320 319 319 319 319 319 319 319 317 315 315 320 326 326 327 326 325 324 324 324 323 323
329 329 327 326 327 326 325 325 324 323 324 322 321 319 316 315 314 309 309 312 315 317 318 318 319 319 319 319 318 317 313 312 313 320 324 325 327 326 325 325 326 325 324
326 325 325 325 325 326 324 324 324 323 322 322 321 320 319 314 311 311 309 312 313 313 316 317 317 319 319 318 318 314 311 310 311 315 319 323 326 326 326 326 326 326 326
324 324 324 324 325 326 325 324 323 322 322 320 321 320 320 319 316 315 314 312 312 313 314 316 318 318 319 319 318 313 312 308 309 311 314 317 320 323 325 326 327 328 328
324 324 324 325 325 324 323 323 321 321 322 321 321 321 320 320 317 316 314 313 309 310 312 312 317 318 319 318 317 311 316 307 307 307 309 312 314 316 318 320 323 324 325
320 321 321 322 322 322 321 322 321 321 321 321 322 322 321 321 319 318 318 317 313 308 309 312 311 318 319 319 316 317 317 309 306 305 305 307 310 312 313 314 316 317 319
320 320 318 318 318 319 321 321 320 321 321 322 322 321 321 321 318 318 317 317 316 312 308 313 314 316 318 318 316 317 316 310 305 303 303 304 305 307 308 309 310 310 312
320 319 319 318 317 316 316 315 315 315 316 318 320 320 320 321 318 317 317 317 315 313 309 310 314 315 315 316 315 315 314 315 305 302 302 302 301 302 302 303 304 305 305
318 317 316 315 315 315 315 315 312 316 316 316 317 318 318 319 318 318 316 316 315 315 311 308 310 311 313 316 315 316 314 306 301 298 298 297 297 297 297 297 297 298 298
317 317 316 315 315 315 315 314 314 315 316 316 317 317 317 319 318 317 316 315 315 314 313 310 308 311 311 314 313 309 302 299 298 297 295 295 296 296 296 296 296 295 295
316 315 316 315 315 314 314 315 315 314 313 310 308 310 314 318 319 318 316 316 315 313 313 312 310 310 312 312 312 305 300 299 295 295 294 294 295 295 294 294 294 294 294
312 309 305 302 301 300 297 300 309 313 309 302 299 297 294 297 302 308 316 316 315 313 312 311 309 309 309 309 308 306 299 293 291 294 292 291 291 291 291 292 292 291 291
295 295 293 293 292 292 290 293 300 303 301 298 295 293 292 291 290 290 290 289 297 313 311 310 309 307 304 302 299 302 293 291 289 288 288 287 289 287 288 289 290 289 289
289 288 288 288 288 289 290 292 292 293 292 291 290 290 290 290 289 289 288 288 287 287 288 304 305 298 295 291 294 294 294 291 285 283 287 284 286 284 287 288 288 288 288
285 286 286 286 287 288 288 289 289 289 287 287 287 287 287 287 287 287 286 284 284 284 285 285 285 285 285 286 288 290 286 282 282 281 283 282 284 283 285 286 288 288 288
283 284 284 285 285 286 287 288 287 286 285 285 286 286 285 285 287 287 283 281 280 280 284 285 284 284 285 286 288 287 285 284 280 277 278 282 279 282 283 280 282 287 286
283 283 283 284 285 284 287 287 286 285 283 283 284 284 286 285 285 284 282 280 277 277 279 280 279 279 279 280 282 282 286 280 277 276 277 278 277 279 280 279 278 278 279

GFSMA_sfc_thetae_105.txt.gz
Theta_e
342 343 346 346 345 345 344 343 343 342 342 342 342 341 338 339 338 339 338 330 331 337 341 342 341 341 339 338 337 336 334 333 331 329 329 329 328 328 328 327 326 326 325
342 340 340 341 343 343 342 342 341 341 340 340 339 339 339 338 336 333 333 333 328 330 338 341 341 341 340 338 337 335 333 332 330 328 328 328 327 327 326 326 325 324 324
340 339 338 339 339 340 341 340 339 338 338 336 335 338 338 338 336 332 331 332 330 327 328 337 339 340 339 338 335 335 334 332 330 328 326 326 326 325 324 325 324 325 323
340 337 336 336 336 335 337 337 334 334 334 334 332 335 336 335 331 331 331 331 330 331 329 331 334 336 337 338 336 335 333 331 330 327 326 324 326 325 324 324 324 323 322
338 335 336 336 335 332 333 333 332 333 332 331 332 333 334 332 328 329 331 329 329 329 330 330 329 329 333 335 336 335 333 330 329 326 326 325 325 324 322 321 323 322 322
336 336 336 336 334 332 331 331 329 330 330 330 328 329 330 332 331 328 329 329 329 328 328 328 331 333 327 332 334 334 333 331 329 327 326 326 324 324 323 322 323 322 323
334 335 336 335 333 332 330 330 329 327 326 328 326 326 327 330 330 327 331 330 330 328 327 327 331 334 333 329 332 334 332 331 328 328 327 326 325 324 324 323 322 323 323
335 335 335 333 331 330 330 330 328 326 326 326 322 320 314 318 324 328 328 329 329 330 326 326 327 332 333 331 329 329 331 330 328 327 328 327 326 324 323 322 322 323 323
336 335 334 333 330 330 329 330 330 328 322 325 326 320 312 312 316 323 325 327 328 328 329 325 325 329 330 329 326 324 321 323 327 329 329 327 326 325 323 323 323 322 322
334 335 334 333 331 331 331 330 331 329 326 321 324 324 321 321 316 314 319 323 327 325 326 324 323 327 328 328 324 319 315 316 321 327 328 328 326 326 324 324 323 322 322
334 334 333 333 333 332 331 330 329 328 327 324 323 322 320 318 318 316 313 316 319 322 323 322 322 324 327 326 326 321 314 312 315 323 326 327 327 326 325 324 324 324 324
331 332 332 332 332 330 331 332 328 328 326 325 325 324 321 316 316 315 315 317 316 317 320 320 320 322 325 326 323 316 312 310 311 316 321 323 325 325 325 325 326 326 326
328 329 330 331 331 330 331 331 327 327 326 324 323 322 323 322 321 321 320 318 316 315 316 318 320 321 322 325 324 315 312 308 309 312 315 318 320 323 324 325 326 326 327
328 330 329 331 331 329 329 331 330 329 325 324 324 323 323 322 322 320 320 318 314 314 315 315 318 319 321 323 322 311 321 307 307 308 310 313 315 317 319 321 323 324 325
328 328 329 329 329 327 328 328 325 326 328 324 323 323 323 324 325 324 321 319 316 310 310 314 314 320 321 322 321 323 323 310 306 306 306 308 310 313 314 315 317 318 320
328 326 326 327 326 327 327 325 325 326 322 322 322 322 322 324 323 324 323 323 320 316 311 316 315 317 320 321 321 324 323 312 305 304 303 304 306 308 309 310 311 313 314
325 325 325 324 324 325 326 325 325 321 321 321 321 321 321 323 321 321 322 321 319 320 315 314 316 316 317 319 322 323 323 322 313 303 302 302 302 303 304 305 306 307 308
324 323 323 321 322 322 322 321 318 318 318 320 322 322 322 321 321 320 319 317 319 318 318 310 314 314 315 318 322 321 318 313 307 299 299 299 298 298 298 298 299 299 300
320 321 320 319 319 318 317 317 318 319 321 321 320 321 318 318 317 318 317 317 318 316 316 312 310 312 314 318 316 309 305 303 300 298 296 296 296 296 296 296 296 296 295
319 319 320 318 317 317 317 317 317 318 318 315 309 304 301 301 307 318 317 317 316 315 315 312 311 311 312 315 311 302 299 300 297 297 296 295 295 295 295 295 295 294 294
316 317 312 306 305 305 301 312 317 317 309 303 300 297 295 293 292 297 317 317 316 315 314 312 311 311 311 310 306 305 299 294 293 295 293 293 292 293 293 293 293 292 291
295 295 294 293 293 293 290 292 302 306 303 300 297 295 294 292 291 289 290 289 290 314 312 312 311 310 310 310 305 302 293 292 289 293 289 287 290 287 288 289 290 290 289
288 288 289 289 288 289 289 291 292 296 294 293 293 293 291 291 290 289 288 288 287 287 288 303 310 306 302 298 301 297 296 294 287 287 288 284 286 284 287 288 289 288 288
285 285 286 287 287 288 288 288 288 289 288 288 288 289 289 288 287 287 285 284 284 284 285 286 285 285 286 287 291 293 288 283 284 282 286 282 285 283 285 287 288 288 288
284 284 285 285 285 286 287 287 287 286 285 285 286 287 286 286 286 287 285 282 281 281 284 285 284 284 285 287 289 289 287 286 282 279 280 283 283 282 280 280 285 287 286
281 282 281 283 284 284 286 286 286 285 283 283 284 284 285 284 284 284 283 281 278 278 280 280 279 279 280 281 282 284 287 283 280 279 278 280 279 282 276 278 279 281 281

GFSMA_sfc_thetae_108.txt.gz
Theta_e
348 348 347 347 347 346 346 346 345 345 344 344 345 344 343 344 343 343 340 332 333 335 338 342 344 343 341 340 339 338 336 334 333 331 332 331 330 330 329 329 328 328 327
347 345 347 346 347 346 346 345 344 343 342 343 342 343 343 342 339 342 342 338 329 332 334 338 341 340 340 339 338 337 336 334 333 331 331 330 329 328 328 328 327 327 326
348 345 344 344 345 346 347 345 345 344 342 340 340 341 341 341 340 340 339 334 334 327 329 333 335 337 340 339 337 337 335 334 332 331 329 329 328 327 327 326 325 325 325
347 344 341 341 343 346 345 343 341 339 340 339 339 339 339 341 340 340 337 333 334 335 329 329 327 332 338 339 337 336 334 334 332 330 329 328 327 327 325 326 323 325 325
343 341 339 341 342 340 341 341 340 339 337 336 337 338 338 337 337 336 333 330 333 334 334 328 326 329 334 336 337 337 335 333 331 329 327 326 326 326 325 325 322 324 322
341 340 340 341 339 337 339 339 337 337 336 335 332 333 336 336 336 335 334 331 329 333 331 331 330 331 326 332 335 336 336 333 331 329 327 325 326 326 324 324 323 324 321
340 339 339 339 336 335 336 337 337 333 333 334 328 327 331 334 333 334 334 331 333 331 332 329 331 331 330 328 332 335 335 333 331 329 328 327 327 325 324 323 324 323 323
339 338 338 336 336 336 335 335 333 329 331 334 325 323 318 322 329 333 332 331 332 333 332 331 329 330 331 336 334 332 334 333 331 329 329 327 326 325 324 324 324 323 324
339 338 338 337 336 337 334 334 332 330 326 328 332 323 315 314 319 327 330 330 332 332 332 333 331 330 330 331 331 329 324 326 330 330 330 328 327 326 325 324 324 323 324
340 338 338 338 338 337 335 336 333 334 332 325 328 330 324 324 318 318 325 329 332 331 330 333 332 333 330 330 328 324 317 317 322 327 329 329 327 326 325 324 323 324 323
337 338 339 338 337 336 335 335 333 334 335 331 327 325 325 322 320 320 319 322 325 329 331 330 330 331 331 330 330 324 315 313 316 323 327 328 327 326 325 325 324 323 323
333 335 337 338 338 335 333 334 337 337 334 334 332 330 327 320 319 317 319 320 323 325 326 327 327 328 326 327 325 317 312 311 312 318 322 325 326 326 325 325 324 324 325
331 332 334 335 335 335 337 336 337 336 335 333 331 331 331 330 327 323 322 321 320 324 322 324 324 325 324 325 325 317 312 308 309 313 318 320 322 323 324 324 324 325 325
330 332 333 334 334 336 335 336 335 334 335 334 330 330 327 326 326 323 320 318 314 316 319 321 322 323 324 324 322 312 323 307 307 309 311 314 316 318 319 320 322 323 324
333 332 332 331 333 332 331 333 333 333 332 332 331 329 326 326 327 327 323 322 317 311 313 320 320 323 325 325 321 320 323 310 306 306 307 309 312 314 315 316 318 319 321
334 333 332 330 330 329 329 331 332 331 329 331 329 329 326 327 326 327 328 326 324 317 314 322 322 325 323 321 318 323 323 312 306 304 304 305 307 310 311 312 313 314 316
332 331 330 327 328 328 328 327 328 329 328 328 328 328 324 328 324 325 327 326 324 323 316 318 323 326 322 322 320 321 322 323 322 304 303 303 303 304 305 306 308 309 311
328 327 327 326 326 326 327 327 327 327 326 326 325 323 324 323 322 323 322 323 323 323 321 315 318 321 322 320 319 318 320 322 322 301 302 301 301 301 301 301 301 302 303
324 324 324 324 324 325 325 327 326 325 325 325 324 325 324 324 323 325 324 321 320 321 319 317 315 319 320 318 317 312 307 303 301 299 297 297 298 298 297 297 298 297 297
321 322 323 323 323 323 324 324 322 321 321 321 319 319 315 312 308 309 314 319 318 317 317 316 315 314 316 316 310 301 299 300 299 298 298 297 296 296 295 295 295 295 295
316 319 318 318 315 316 312 322 321 321 317 312 309 305 301 295 291 293 302 311 317 316 315 314 312 312 312 312 307 304 299 295 295 295 294 294 295 294 294 294 294 293 293
293 295 296 298 297 295 292 294 312 315 308 304 300 299 297 295 293 289 289 288 289 305 314 313 312 310 310 311 309 301 293 291 288 293 290 288 290 288 290 290 291 291 290
288 288 289 289 290 290 291 292 293 297 295 294 295 296 295 293 293 293 289 288 287 287 287 299 311 306 309 310 307 299 297 296 290 289 287 284 286 285 287 289 290 289 289
284 285 285 286 286 287 288 288 288 288 287 287 288 289 289 289 288 288 287 286 284 285 285 286 285 285 286 288 302 302 296 285 285 285 287 283 285 284 285 287 288 288 288
282 282 283 284 285 285 287 287 286 285 284 284 285 286 286 285 286 288 285 284 283 283 284 285 285 285 286 286 289 292 289 288 285 282 282 284 283 280 281 282 286 288 287
281 281 280 281 283 283 286 286 285 284 282 282 283 283 284 284 284 284 283 282 278 279 280 281 280 280 280 281 283 284 289 288 282 281 281 282 281 280 276 279 281 282 282

GFSMA_sfc_thetae_111.txt.gz
Theta_e
350 347 347 345 349 348 347 347 345 345 344 344 345 343 343 343 344 342 348 334 334 336 342 342 341 340 341 341 340 339 338 338 337 335 334 334 333 333 332 331 329 329 328
348 345 346 344 342 346 348 346 345 343 343 344 344 343 344 343 343 342 340 339 332 334 337 338 338 333 339 341 339 338 337 336 336 334 333 332 331 330 330 329 328 328 327
351 349 345 345 343 344 351 348 347 345 343 342 341 342 343 342 341 341 340 340 335 327 331 334 336 335 335 338 339 338 337 335 335 333 332 331 330 329 329 328 327 326 326
349 351 345 345 346 345 344 346 344 342 340 341 340 339 340 341 340 340 340 339 337 334 327 330 330 329 332 335 337 337 336 335 334 333 331 330 329 329 328 327 326 323 323
347 349 346 344 345 344 344 343 343 343 340 339 339 340 340 338 339 340 337 338 336 335 334 328 327 327 332 333 335 337 337 335 333 331 330 329 329 328 325 326 323 322 323
348 349 346 345 344 342 342 342 342 341 340 338 335 334 338 338 339 339 337 335 335 334 333 331 328 327 325 329 331 337 337 336 333 331 329 328 327 327 324 324 323 322 322
346 347 345 343 343 339 341 339 340 336 336 339 336 334 333 335 335 336 336 335 334 332 332 332 331 330 329 328 331 336 337 336 334 332 330 328 326 326 324 324 324 322 321
347 345 345 342 343 338 337 336 336 333 335 338 330 328 323 328 331 333 335 334 334 334 330 332 330 330 331 330 328 331 335 336 334 333 330 328 326 326 325 323 322 321 322
348 345 341 343 344 338 335 336 335 333 330 333 334 326 319 318 322 330 332 333 332 333 333 334 331 330 331 330 329 328 325 326 331 332 331 328 327 326 325 322 322 321 321
344 344 344 339 344 339 337 335 335 335 334 326 331 332 332 328 321 319 328 330 332 331 334 333 333 331 330 330 327 324 320 319 324 329 330 329 328 327 325 325 321 321 321
342 338 339 340 342 341 340 338 334 335 335 332 330 329 330 328 328 322 319 324 327 331 331 333 335 334 333 331 331 326 316 315 318 324 328 328 327 327 326 325 324 322 321
340 337 337 336 340 340 336 339 339 336 336 334 333 330 326 324 322 323 321 321 322 327 329 332 333 333 333 333 330 322 314 312 314 319 323 326 326 326 325 325 324 324 324
337 337 333 335 335 336 337 340 338 332 337 335 335 332 331 329 328 326 325 323 321 328 325 328 330 332 330 332 331 317 313 310 311 315 318 321 323 323 324 324 324 325 324
336 339 333 334 336 336 337 338 338 334 334 335 335 335 332 332 332 330 326 323 319 322 324 323 326 327 331 330 326 313 317 307 308 310 313 316 318 319 319 320 321 322 323
336 338 335 333 333 334 334 336 336 337 335 333 335 335 333 332 332 329 329 325 321 313 315 321 323 327 326 327 324 326 323 309 306 306 308 311 313 315 316 317 318 319 320
336 337 337 333 332 332 332 334 334 335 336 333 333 331 331 331 330 330 328 328 326 321 317 322 324 327 327 325 321 325 323 311 305 304 304 306 309 311 312 313 314 315 316
334 334 333 332 331 331 331 331 332 332 330 329 330 329 329 330 329 328 328 327 327 325 319 322 325 328 327 324 323 323 322 320 314 304 303 304 304 305 307 308 309 310 312
333 333 333 330 329 329 329 329 330 332 329 327 328 328 328 328 328 328 328 327 326 326 322 319 323 325 324 323 322 320 321 321 320 304 303 303 303 302 302 303 304 304 305
330 329 330 329 328 327 327 329 331 330 327 327 328 328 327 327 325 326 326 324 326 325 323 321 319 322 324 321 320 316 307 302 301 300 298 299 300 301 301 300 301 301 301
321 324 325 325 325 325 325 327 328 329 327 326 326 326 323 321 321 320 319 321 322 321 320 318 317 318 318 320 317 305 300 300 298 299 297 297 297 298 299 297 297 297 297
296 300 310 311 317 320 319 324 326 326 321 317 313 309 301 296 292 292 302 307 312 315 316 315 315 314 313 313 304 305 299 294 294 295 294 294 295 295 295 297 297 295 295
289 291 290 292 294 298 297 304 315 318 315 309 302 299 296 294 290 289 289 288 288 295 306 314 314 312 311 312 309 301 294 292 289 294 288 285 289 288 290 292 293 292 292
286 287 289 288 287 291 293 297 296 298 296 295 298 296 295 293 294 294 289 288 286 286 286 291 302 299 306 310 307 300 297 296 290 289 289 284 285 284 287 289 290 290 289
282 283 283 286 286 286 287 288 288 288 287 287 288 289 289 288 288 290 288 286 284 284 284 285 285 285 285 287 302 302 298 286 286 286 288 283 285 284 285 286 289 288 287
281 281 281 282 283 284 287 286 286 284 284 284 285 285 285 285 286 288 286 284 283 283 284 284 284 284 284 286 291 293 289 288 285 283 284 284 283 280 281 284 286 287 286
281 281 280 281 282 282 285 285 285 284 282 282 282 283 284 284 284 284 283 281 279 279 280 280 280 280 280 281 283 285 289 290 284 282 283 282 280 280 277 280 282 284 284

GFSMA_sfc_thetae_114.txt.gz
Theta_e
345 345 343 344 345 345 344 342 342 342 341 342 342 339 339 339 339 337 339 333 334 339 345 344 343 342 341 340 338 340 340 340 340 339 337 336 336 335 333 332 330 329 329
343 344 343 343 344 344 344 342 340 339 339 339 339 339 338 338 338 338 338 333 333 334 338 343 342 339 339 338 334 336 338 338 338 338 337 335 335 334 332 330 330 329 328
344 343 343 341 340 344 342 341 341 341 340 339 337 338 338 338 337 338 337 335 330 329 331 335 338 339 336 332 328 331 335 336 336 336 334 333 332 332 331 329 329 328 325
344 345 342 342 343 340 343 342 340 336 336 337 335 336 336 336 336 336 336 334 332 330 327 330 333 335 335 333 333 331 336 335 335 334 333 332 331 330 329 328 327 326 325
346 343 343 342 342 342 339 341 339 337 335 334 334 335 334 334 334 337 334 334 332 330 330 327 327 328 331 332 331 335 336 336 336 334 333 331 330 329 329 328 327 325 323
343 343 342 342 341 339 338 338 336 337 335 334 335 333 333 334 334 335 332 334 332 330 330 329 326 325 325 331 332 335 337 338 336 334 332 331 330 329 328 327 326 325 325
343 342 341 342 340 338 337 337 337 334 333 335 330 328 330 332 332 331 332 331 331 330 330 328 328 327 326 326 330 333 336 339 336 334 333 331 329 328 326 325 323 323 325
343 343 341 340 340 337 335 336 336 332 333 334 326 324 320 323 328 330 330 330 329 329 329 328 329 327 328 328 327 330 331 335 336 335 333 330 328 327 325 324 322 322 322
343 341 340 340 339 337 334 334 336 332 329 332 332 322 315 313 319 326 328 328 328 328 329 327 328 328 329 328 326 325 323 325 333 334 333 329 327 327 325 324 323 322 322
334 340 339 340 338 338 334 333 335 334 331 327 331 330 325 322 315 314 323 327 328 327 328 328 328 327 328 328 327 323 319 318 322 331 332 330 328 327 326 324 324 323 323
330 337 338 339 338 338 336 333 333 333 332 329 328 328 326 325 323 318 314 318 325 328 327 328 329 328 328 327 327 323 316 315 317 324 329 329 328 327 326 325 324 324 324
325 333 336 337 336 335 336 335 334 333 332 331 328 327 326 323 321 318 315 317 319 321 326 327 327 329 329 328 326 321 315 312 314 320 324 326 327 327 326 325 325 323 324
317 325 333 334 335 336 336 336 335 333 332 330 329 327 327 325 324 322 319 316 316 320 321 324 326 327 329 329 328 319 316 310 311 315 320 322 323 324 324 324 324 324 324
314 320 330 332 333 333 334 335 334 334 333 331 329 329 327 326 326 324 321 319 314 316 317 316 322 324 327 326 324 313 321 309 309 311 314 317 318 319 320 321 321 322 322
310 315 322 331 332 333 332 333 333 332 332 331 330 329 328 328 328 327 325 323 317 310 311 317 317 323 324 326 323 320 321 309 307 307 309 312 315 316 316 317 318 319 320
307 312 317 328 332 332 332 333 332 332 330 331 327 326 325 323 327 326 324 322 320 315 310 317 318 321 323 324 320 325 324 310 306 305 306 307 310 312 313 313 314 315 316
308 310 317 326 330 330 331 331 331 330 330 330 329 327 324 320 326 324 325 324 322 320 315 316 319 322 321 320 321 322 324 318 312 305 304 304 305 307 308 309 309 311 312
316 314 319 327 328 329 329 330 329 329 329 327 327 327 325 326 323 325 324 322 321 320 317 314 318 318 318 321 321 320 321 322 320 307 304 303 303 303 304 305 305 306 307
306 318 325 326 327 328 328 330 330 329 329 328 327 325 324 324 324 324 323 322 320 321 318 315 314 317 320 321 320 318 316 304 304 303 301 301 301 302 302 301 303 303 303
296 298 312 322 326 327 328 328 328 328 328 327 325 323 321 319 318 318 317 316 316 317 318 317 316 316 316 319 320 308 301 301 299 298 298 298 299 300 300 300 300 301 302
291 293 293 295 298 302 306 321 327 327 325 316 306 300 296 294 293 296 306 299 301 307 311 313 313 314 314 313 309 308 301 294 293 295 294 294 296 296 297 298 300 300 299
285 287 289 291 290 290 291 297 317 323 313 304 297 294 293 291 289 289 289 288 287 291 297 303 311 311 313 314 311 306 294 292 290 293 288 286 290 289 291 293 294 295 295
284 283 284 287 288 288 289 293 295 299 299 300 297 295 294 293 291 288 287 286 286 286 285 287 294 287 289 293 301 302 298 298 290 289 289 284 286 285 289 290 291 291 291
281 281 282 283 285 287 289 289 288 288 288 287 287 287 288 288 290 288 285 283 283 283 283 283 283 282 284 286 289 300 297 286 287 286 287 282 285 283 285 286 289 289 288
281 281 281 281 281 283 286 287 285 284 284 283 284 285 285 285 288 289 284 282 280 280 283 284 284 283 283 285 287 293 288 288 285 284 285 284 283 280 283 283 285 287 287
282 282 282 282 282 281 284 284 284 283 281 281 282 283 285 284 285 284 282 281 278 278 279 279 279 279 280 280 282 282 287 290 284 283 284 282 280 280 277 280 284 284 284

GFSMA_sfc_thetae_117.txt.gz
Theta_e
339 339 340 341 342 341 340 338 339 339 338 337 338 337 337 336 335 336 332 332 335 340 346 347 345 344 342 341 340 338 337 339 339 340 338 336 335 335 334 332 332 331 330
339 340 339 339 341 341 341 339 338 338 338 337 337 338 336 336 336 335 334 330 330 334 340 346 346 345 343 342 339 338 337 338 338 340 338 336 335 334 332 331 330 330 330
340 338 338 337 340 342 340 340 336 334 334 336 335 335 335 335 335 335 333 330 329 329 331 338 342 343 343 341 339 336 335 335 334 337 337 336 335 333 332 330 329 329 329
342 339 338 338 336 341 340 339 337 334 333 333 332 332 333 333 333 334 333 331 329 329 328 330 334 338 338 339 338 335 334 332 336 337 336 335 334 333 331 330 329 328 327
343 341 338 337 337 336 339 338 336 333 330 331 331 331 331 331 331 334 332 331 329 327 326 327 328 330 333 336 335 334 334 334 331 336 335 334 333 332 331 329 328 327 326
339 341 340 339 336 335 335 336 336 332 331 331 333 331 329 330 330 329 330 331 329 328 327 326 324 324 326 332 335 335 335 336 337 336 335 333 332 331 330 329 328 327 326
339 338 338 337 337 336 335 333 331 332 328 331 327 324 326 327 327 328 329 329 329 328 327 327 325 324 324 325 330 332 334 336 337 337 335 333 331 329 328 328 327 326 325
333 337 338 337 338 335 332 333 330 325 329 332 323 320 319 319 324 327 327 328 328 328 327 327 325 324 325 324 326 331 333 336 337 337 334 331 330 329 328 328 327 326 324
323 331 337 337 337 336 333 332 331 329 328 327 328 321 315 311 315 321 325 327 326 325 326 326 325 325 325 325 325 325 323 325 332 335 334 331 330 329 328 326 326 324 324
315 320 325 334 336 336 334 332 334 333 331 327 324 325 319 317 311 310 318 324 325 326 324 325 325 326 326 326 325 322 318 317 323 329 333 331 330 329 328 326 324 325 323
310 313 318 323 332 333 333 332 330 332 331 328 327 327 324 319 317 314 311 317 321 323 326 325 325 325 326 327 327 323 315 314 316 325 330 331 330 328 327 326 325 324 324
307 310 314 319 326 332 333 331 330 330 333 332 328 326 326 323 320 315 312 313 319 319 325 325 325 326 326 326 326 320 314 312 313 319 324 327 327 327 327 326 325 325 324
302 305 309 313 320 328 332 333 330 330 331 331 329 328 327 326 324 322 316 313 314 317 317 322 325 327 327 326 326 318 315 310 310 314 319 322 324 324 324 325 325 325 324
300 302 305 308 312 316 329 331 331 331 331 331 329 329 328 326 324 320 321 314 311 312 314 314 320 325 327 327 325 315 322 309 308 310 313 317 319 320 320 321 322 322 322
300 301 303 305 309 314 322 329 328 328 331 332 330 329 327 327 326 323 323 321 317 310 311 313 314 320 325 325 323 322 324 312 308 307 308 312 315 317 316 317 318 319 319
299 301 301 303 306 312 319 327 324 328 328 331 330 329 327 326 323 323 322 322 320 314 311 314 316 317 321 322 319 322 320 312 306 304 305 308 311 313 313 314 314 315 316
298 300 303 305 306 308 315 326 325 326 326 328 329 327 325 323 322 321 321 318 321 320 315 313 316 317 317 319 318 319 320 320 313 304 304 305 306 307 308 309 310 311 312
296 299 304 308 308 309 314 325 327 327 326 327 327 326 324 322 320 319 321 318 321 321 316 313 314 314 315 318 319 319 319 322 320 306 303 304 304 305 306 305 306 306 307
293 296 297 303 311 312 314 324 326 328 327 327 326 326 325 323 318 320 322 322 322 322 319 314 313 313 314 318 317 318 317 312 311 306 302 301 303 304 304 303 303 304 304
289 291 295 295 299 303 315 324 324 324 325 326 325 326 325 323 319 320 322 321 319 320 317 317 315 315 316 317 317 311 305 303 300 300 299 300 303 302 302 302 302 302 302
287 287 289 291 292 292 297 305 317 323 324 317 308 303 302 303 306 312 314 311 313 311 313 313 312 313 313 313 313 310 309 295 294 296 294 293 297 298 299 300 302 301 300
284 285 284 286 288 289 290 295 308 319 310 302 296 293 293 293 293 292 291 289 294 303 305 306 310 310 311 310 311 305 295 294 294 293 289 286 290 289 291 294 297 298 298
282 282 283 284 284 286 287 289 290 290 291 294 296 297 293 292 289 287 287 286 286 286 286 292 296 288 290 288 289 301 298 296 292 288 288 285 286 285 288 291 294 294 294
281 282 282 282 283 284 286 286 286 286 285 286 287 289 291 289 289 287 285 283 282 283 283 283 282 282 283 285 287 293 295 286 287 286 287 283 284 283 285 287 290 291 290
280 280 281 282 282 283 285 285 285 284 284 284 284 285 286 284 287 287 283 280 280 280 284 284 284 283 283 284 286 291 288 289 285 285 285 284 283 281 282 284 285 288 288
280 280 279 280 282 282 285 284 283 282 281 282 283 283 285 284 284 284 282 280 277 278 279 279 279 280 280 281 283 282 286 288 284 284 285 282 281 281 278 281 283 284 284

GFSMA_sfc_thetae_120.txt.gz
Theta_e
341 342 341 340 340 340 340 338 338 338 338 337 336 335 335 335 333 334 333 332 333 336 344 346 347 346 345 343 341 340 340 339 339 337 337 337 336 336 335 334 333 333 333
341 340 340 340 340 340 340 339 338 337 337 337 336 335 336 335 334 333 332 332 330 334 340 346 346 346 345 342 340 339 338 337 335 337 337 336 335 334 333 332 332 331 331
339 340 339 338 340 340 339 338 337 337 336 336 334 334 334 334 334 333 332 331 329 328 332 338 340 344 344 343 341 339 338 336 335 333 337 336 334 333 332 331 331 330 330
341 338 338 338 338 340 339 338 336 334 334 334 333 331 332 332 332 333 332 330 328 329 327 330 334 338 341 342 341 339 338 335 336 337 336 335 334 333 332 331 330 329 329
338 338 337 337 335 338 338 338 337 335 332 331 332 331 330 331 331 332 330 329 328 326 326 327 329 331 335 338 341 341 339 337 336 334 336 335 334 333 332 330 330 329 329
333 338 339 339 334 334 336 337 336 335 332 331 331 330 328 329 330 330 330 330 328 326 325 325 325 327 328 333 336 338 338 337 336 336 335 336 334 333 331 330 329 328 328
327 328 336 337 336 334 334 334 335 329 328 329 325 322 323 326 326 327 329 328 327 326 324 324 323 323 324 327 332 336 336 337 336 335 337 335 333 332 331 330 329 328 327
314 319 321 327 335 335 334 331 332 328 331 329 325 318 317 320 323 325 325 328 327 327 326 325 324 323 323 324 325 329 333 334 336 336 335 334 332 332 331 330 329 328 326
310 313 316 321 325 333 333 333 332 330 327 327 327 321 312 313 315 320 324 326 326 325 327 326 325 324 324 324 323 324 323 325 331 334 335 333 332 331 330 329 328 327 326
304 308 311 313 317 321 329 331 332 330 330 325 327 328 321 317 312 311 319 325 325 324 323 325 325 325 324 323 323 321 318 317 321 330 334 333 331 330 329 329 328 327 326
302 304 307 310 312 315 321 329 328 329 328 325 324 326 320 319 315 312 309 318 323 325 324 324 325 324 324 324 325 322 315 312 316 324 329 331 331 330 329 328 328 327 325
298 301 303 305 309 312 317 325 329 328 325 324 325 326 325 319 316 313 310 312 316 322 324 324 323 324 325 324 324 319 314 311 312 318 324 327 329 330 329 328 327 326 325
296 297 299 300 302 306 312 315 323 328 327 326 326 326 326 325 323 319 314 312 312 314 317 322 324 325 327 325 325 318 314 309 310 313 318 322 325 326 326 326 327 326 325
295 296 297 299 301 302 305 309 313 326 328 327 326 327 326 327 326 321 319 313 308 311 312 315 322 326 327 326 323 314 321 308 307 309 313 316 319 321 321 322 323 323 323
295 297 299 299 300 301 303 307 310 314 327 327 327 328 327 327 327 326 324 319 316 306 312 312 315 323 327 326 322 322 322 312 307 306 308 311 314 316 317 318 318 319 320
294 296 296 298 299 302 302 304 307 313 323 326 327 326 326 327 326 326 325 323 320 315 310 313 315 316 323 324 321 324 322 312 306 304 304 306 310 312 314 315 315 316 317
293 293 294 296 298 300 303 305 306 309 316 324 326 326 327 326 325 324 324 322 320 317 314 312 316 317 317 319 317 320 319 318 314 304 303 303 305 307 308 310 312 312 313
291 292 293 295 298 300 304 306 306 309 313 321 323 325 326 327 325 324 323 322 321 320 317 313 313 313 315 316 317 319 320 320 317 305 303 302 303 303 304 306 307 308 307
289 290 290 293 295 298 299 310 309 309 313 321 322 322 324 326 324 324 323 321 318 320 319 314 313 315 315 316 315 317 318 316 313 307 302 300 301 302 303 303 305 306 306
286 287 288 289 291 292 294 300 310 310 314 323 322 322 324 325 324 322 320 319 317 318 318 318 315 313 313 315 317 313 308 306 306 302 299 297 300 301 301 302 303 305 304
285 285 286 286 288 288 290 292 302 314 316 320 316 317 320 321 313 316 319 319 319 318 318 317 316 312 311 313 315 311 312 300 296 297 295 291 294 296 297 300 304 304 303
283 284 284 284 284 287 287 291 297 298 299 298 296 296 297 298 301 299 296 294 309 317 316 316 315 314 312 311 310 307 300 297 299 294 290 287 289 288 289 293 295 298 300
281 281 282 284 284 284 287 287 288 288 289 289 292 294 291 291 292 293 291 290 289 289 291 304 306 299 299 291 293 300 298 297 296 289 289 284 286 284 286 290 293 296 297
279 279 280 282 283 284 285 286 286 285 285 285 285 285 287 288 287 287 288 286 285 284 284 285 286 283 283 285 287 292 294 286 286 286 288 283 284 282 285 286 289 291 293
278 279 279 280 281 283 286 285 285 284 283 283 283 284 285 284 286 286 283 283 281 280 284 285 284 284 285 285 286 290 287 288 285 285 285 284 282 280 282 283 285 288 288
277 278 278 279 282 282 285 285 283 283 281 282 283 283 285 284 284 284 282 280 277 278 279 279 279 280 281 282 284 283 285 288 284 284 285 282 281 281 278 282 283 284 285